Date StartTime U_cm/s V_cm/s W_cm/s Ustd_cm/s Vstd_cm/s Wstd_cm/s Uvar_(cm/s)^2 Vvar_(cm/s)^2 Wvar_(cm/s)^2 KE_(m/s)^2 TurbulentKE_(m/s)^2 HorizWindSpeed_cm/s FrictionSpeec_cm/s DragCoef SpeedOfSound_m/s SonicTemperature_C Pressure_mb 
11/24/2014  00:00:00      -56.764       -0.261       -3.983       13.357       13.926       11.517      178.419      193.943      132.643        0.187        0.025       56.765        8.766        0.024      331.630       -0.231      870.343
11/24/2014  00:01:00      -34.851        3.915       -1.661       20.681       10.934       11.371      427.692      119.550      129.308        0.095        0.034       35.070       13.215        0.142      331.627       -0.237      870.348
11/24/2014  00:02:00      -29.504        8.162        3.980       18.957        9.909        9.842      359.380       98.190       96.859        0.075        0.028       30.612       10.541        0.119      331.683       -0.143      870.360
11/24/2014  00:03:00      -20.612       20.994       -1.732       11.381       17.530        7.728      129.532      307.317       59.727        0.068        0.025       29.421        4.743        0.026      331.690       -0.133      870.374
11/24/2014  00:04:00      -42.108       25.330       -1.093       10.901       11.834        9.971      118.827      140.055       99.414        0.139        0.018       49.140        4.063        0.007      331.808        0.062      870.373
11/24/2014  00:05:00      -29.600       16.573       -1.052        8.653       12.700        7.643       74.882      161.289       58.409        0.072        0.015       33.924        3.664        0.012      331.836        0.107      870.352
11/24/2014  00:06:00      -43.647       10.643       -6.357        8.490        9.514        6.906       72.086       90.516       47.695        0.113        0.011       44.925        5.282        0.014      331.811        0.065      870.321
11/24/2014  00:07:00      -51.804        6.045       -8.084        7.553        8.355        6.061       57.046       69.800       36.734        0.147        0.008       52.156        4.709        0.008      331.784        0.022      870.293
11/24/2014  00:08:00      -46.392       -4.233       -7.319       10.125        9.616        6.384      102.512       92.461       40.752        0.123        0.012       46.585        4.358        0.009      331.810        0.064      870.264
11/24/2014  00:09:00      -50.068      -16.520       -3.694        6.609        5.658        3.917       43.675       32.010       15.339        0.144        0.005       52.723        1.788        0.001      331.782        0.019      870.250
11/24/2014  00:10:00      -39.559      -21.784       -0.821       11.329        8.236        5.728      128.349       67.835       32.811        0.113        0.011       45.160        6.230        0.019      331.738       -0.054      870.264
11/24/2014  00:11:00      -50.175       -1.120       -6.669        7.965        9.712        4.889       63.439       94.325       23.898        0.137        0.009       50.187        3.733        0.006      331.721       -0.081      870.290
11/24/2014  00:12:00      -52.504      -13.119       -8.814        8.666        9.284        8.116       75.092       86.193       65.863        0.162        0.011       54.118        4.625        0.007      331.766       -0.006      870.299
11/24/2014  00:13:00      -65.303       -6.005       -7.188       14.750       10.287        7.318      217.552      105.831       53.551        0.236        0.019       65.579        6.716        0.010      331.681       -0.147      870.286
11/24/2014  00:14:00      -81.193      -26.659       -7.844       28.878       13.995       10.630      833.912      195.857      112.989        0.425        0.057       85.457       13.193        0.024      331.656       -0.188      870.275
11/24/2014  00:15:00     -101.432      -22.538      -14.024       17.264       13.632       11.204      298.033      185.840      125.528        0.580        0.030      103.906        3.839        0.001      331.565       -0.338      870.271
11/24/2014  00:16:00     -101.133      -26.149       -9.980       21.488       17.839       13.855      461.735      318.224      191.974        0.599        0.049      104.459        6.832        0.004      331.404       -0.602      870.287
11/24/2014  00:17:00     -106.010      -32.180       -1.994       34.961       21.756       19.408     1222.266      473.330      376.687        0.717        0.104      110.787       19.837        0.032      331.405       -0.601      870.317
11/24/2014  00:18:00      -75.454      -24.218        2.771       26.014       23.576       15.064      676.715      555.848      226.931        0.387        0.073       79.245       13.175        0.028      331.401       -0.608      870.312
11/24/2014  00:19:00      -82.138        0.901       -6.223       21.981       13.894       11.885      483.159      193.043      141.251        0.380        0.041       82.143       11.079        0.018      331.364       -0.667      870.294
11/24/2014  00:20:00      -56.092       -8.782       -4.552       20.447       19.279       13.700      418.067      371.687      187.684        0.211        0.049       56.776       11.056        0.038      331.400       -0.611      870.284
11/24/2014  00:21:00      -62.641      -18.479       -2.417       22.102       13.991       14.682      488.498      195.736      215.562        0.259        0.045       65.309       13.125        0.040      331.447       -0.532      870.274
11/24/2014  00:22:00      -48.033      -18.667       -2.444       17.945       18.061       11.341      322.040      326.207      128.624        0.172        0.039       51.533        9.467        0.034      331.498       -0.448      870.266
11/24/2014  00:23:00      -73.012      -23.002      -12.069       11.516       12.145        9.108      132.612      147.494       82.954        0.318        0.018       76.549        5.155        0.005      331.563       -0.341      870.265
11/24/2014  00:24:00      -93.986      -17.883       -8.657       18.522       12.778       11.175      343.066      163.273      124.889        0.493        0.032       95.672        9.447        0.010      331.540       -0.379      870.273
11/24/2014  00:25:00     -101.796      -29.038       -7.487       19.645       19.526       11.843      385.939      381.272      140.267        0.608        0.045      105.857       10.740        0.010      331.480       -0.478      870.290
11/24/2014  00:26:00      -98.185      -27.541       -6.418       30.491       21.867       18.957      929.730      478.161      359.349        0.610        0.088      101.975       16.592        0.026      331.368       -0.662      870.301
11/24/2014  00:27:00      -73.408      -24.947        1.289       34.596       24.411       15.699     1196.867      595.881      246.456        0.403        0.102       77.532       12.850        0.027      331.429       -0.563      870.312
11/24/2014  00:28:00      -73.008      -23.814        3.537       27.349       23.422       13.827      747.946      548.608      191.184        0.370        0.074       76.794       13.797        0.032      331.398       -0.612      870.311
11/24/2014  00:29:00      -67.375      -16.606        2.512       32.000       21.296       16.811     1024.026      453.513      282.609        0.329        0.088       69.391       15.766        0.052      331.258       -0.843      870.319
11/24/2014  00:30:00      -94.201       -8.970       -4.183       26.242       13.265       15.111      688.662      175.965      228.354        0.503        0.055       94.627       15.122        0.026      331.327       -0.729      870.306
11/24/2014  00:31:00      -81.998      -23.227       -2.661       24.673       18.800       12.376      608.775      353.436      153.163        0.419        0.056       85.224       11.601        0.019      331.399       -0.611      870.289
11/24/2014  00:32:00      -62.657      -12.743        1.793       26.840       19.515       14.981      720.389      380.839      224.427        0.271        0.066       63.940       14.521        0.052      331.370       -0.659      870.270
11/24/2014  00:33:00      -83.422      -10.689       -8.228       23.397       16.932       14.145      547.439      286.695      200.094        0.409        0.052       84.104       13.454        0.026      331.462       -0.507      870.248
11/24/2014  00:34:00     -109.166       -9.040       -6.529       31.998       16.885       13.776     1023.851      285.111      189.769        0.677        0.075      109.539       15.684        0.021      331.400       -0.609      870.243
11/24/2014  00:35:00     -116.225      -15.703      -10.768       28.736       21.755       16.472      825.776      473.301      271.314        0.772        0.079      117.281       16.780        0.020      331.381       -0.640      870.258
11/24/2014  00:36:00     -101.934       -9.765       -8.655       34.889       19.443       21.928     1217.225      378.029      480.844        0.632        0.104      102.400       19.704        0.037      331.325       -0.734      870.285
11/24/2014  00:37:00      -72.675      -17.745        0.972       30.259       25.982       19.792      915.587      675.071      391.734        0.379        0.099       74.810       17.786        0.057      331.288       -0.794      870.307
11/24/2014  00:38:00      -74.649      -21.887        1.043       26.691       32.996       15.938      712.417     1088.713      254.036        0.405        0.103       77.791       11.265        0.021      331.323       -0.736      870.319
11/24/2014  00:39:00      -75.241      -10.899       -2.939       32.183       21.447       16.019     1035.720      459.981      256.619        0.377        0.088       76.026       15.216        0.040      331.328       -0.728      870.332
11/24/2014  00:40:00      -49.611      -16.829       -3.681       25.040       23.482       18.873      626.984      551.427      356.180        0.215        0.077       52.388       13.364        0.065      331.378       -0.646      870.332
11/24/2014  00:41:00      -54.725      -35.074      -10.736       24.245       16.447       12.695      587.825      270.512      161.161        0.268        0.051       65.000        9.160        0.020      331.432       -0.557      870.305
11/24/2014  00:42:00      -29.239      -25.171       -3.618       25.629       18.422       12.786      656.825      339.381      163.471        0.133        0.058       38.581       11.680        0.092      331.443       -0.540      870.289
11/24/2014  00:43:00      -44.161      -33.749        2.796       38.788       19.647       17.165     1504.537      385.997      294.625        0.264        0.109       55.581       16.306        0.086      331.503       -0.441      870.305
11/24/2014  00:44:00      -41.799      -29.393       -6.064       14.948       15.677        8.424      223.440      245.768       70.972        0.159        0.027       51.099        5.716        0.013      331.531       -0.394      870.343
11/24/2014  00:45:00      -38.170      -21.714        0.470       16.978       10.265       12.676      288.256      105.365      160.690        0.124        0.028       43.914       10.798        0.060      331.484       -0.471      870.382
11/24/2014  00:46:00      -42.326      -19.294       -6.466        6.457        5.508        5.249       41.696       30.342       27.550        0.115        0.005       46.516        2.055        0.002      331.504       -0.440      870.397
11/24/2014  00:47:00      -44.624      -19.726       -4.472        9.110       10.122        5.971       82.999      102.463       35.647        0.131        0.011       48.789        5.994        0.015      331.480       -0.478      870.389
11/24/2014  00:48:00      -30.143      -15.237       -2.764       17.156       16.210        9.418      294.313      262.769       88.707        0.090        0.032       33.775        7.688        0.052      331.447       -0.532      870.380
11/24/2014  00:49:00      -62.889      -18.301       -7.438       10.065       12.152        7.227      101.294      147.678       52.226        0.232        0.015       65.497        4.858        0.006      331.476       -0.486      870.386
11/24/2014  00:50:00      -70.070      -20.463       -7.236        7.856       11.353        6.902       61.717      128.887       47.632        0.281        0.012       72.997        4.288        0.003      331.477       -0.485      870.392
11/24/2014  00:51:00      -61.726      -18.282       -9.528       16.300       13.097       10.446      265.682      171.543      109.125        0.239        0.027       64.377        7.823        0.015      331.416       -0.583      870.381
11/24/2014  00:52:00      -53.548      -10.478       -9.733       16.108       14.372        9.309      259.477      206.551       86.654        0.181        0.028       54.563        8.534        0.024      331.378       -0.646      870.353
11/24/2014  00:53:00      -45.092       -3.310       -4.111       13.232        5.944        7.987      175.077       35.336       63.784        0.117        0.014       45.213        7.519        0.028      331.371       -0.657      870.335
11/24/2014  00:54:00      -46.319       -9.868       -0.191       10.150       12.413        7.057      103.015      154.091       49.808        0.127        0.015       47.358        4.719        0.010      331.393       -0.620      870.326
11/24/2014  00:55:00      -48.320      -10.860       -3.691        9.489        8.498        7.053       90.048       72.217       49.746        0.134        0.011       49.526        3.754        0.006      331.408       -0.595      870.326
11/24/2014  00:56:00      -55.731      -13.978       -9.748        8.850        8.290        9.200       78.318       68.719       84.638        0.181        0.012       57.457        6.333        0.012      331.423       -0.572      870.326
11/24/2014  00:57:00      -59.479      -16.846       -9.420        7.098        5.690        5.399       50.379       32.377       29.145        0.201        0.006       61.819        4.233        0.005      331.463       -0.509      870.319
11/24/2014  00:58:00      -64.279       -9.994      -12.655        7.202       10.507        6.859       51.863      110.406       47.048        0.230        0.010       65.051        2.446        0.001      331.459       -0.514      870.315
11/24/2014  00:59:00      -81.604      -19.986       -9.968       12.247        8.088        8.655      149.988       65.416       74.917        0.372        0.015       84.015        7.194        0.007      331.502       -0.442      870.322
11/24/2014  01:00:00      -89.543      -28.920      -10.540        9.701        8.731        6.657       94.106       76.230       44.320        0.459        0.011       94.097        1.952        0.000      331.474       -0.489      870.316
11/24/2014  01:01:00     -106.321      -25.566      -13.093       13.738       12.582        9.295      188.738      158.302       86.394        0.628        0.022      109.351        5.587        0.003      331.447       -0.531      870.287
11/24/2014  01:02:00     -109.839      -18.344       -8.185       14.205       13.335       11.531      201.791      177.817      132.975        0.649        0.026      111.360        9.534        0.007      331.370       -0.659      870.250
11/24/2014  01:03:00      -79.384      -28.365       -3.770       19.648       13.889       11.152      386.035      192.899      124.377        0.391        0.035       84.299       11.167        0.018      331.326       -0.730      870.218
11/24/2014  01:04:00      -85.285      -23.392       -3.002       19.667       16.803       14.974      386.809      282.342      224.215        0.436        0.045       88.435       13.013        0.022      331.337       -0.713      870.171
11/24/2014  01:05:00      -97.328      -29.658      -10.586       12.644       16.977        9.500      159.883      288.215       90.248        0.550        0.027      101.747        7.765        0.006      331.383       -0.638      870.124
11/24/2014  01:06:00      -85.728      -38.422       -1.476       25.054       16.631       14.677      627.710      276.578      215.411        0.497        0.056       93.945       13.425        0.020      331.322       -0.739      870.094
11/24/2014  01:07:00      -85.156      -40.475       -2.244       22.227       19.761       14.612      494.044      390.506      213.499        0.500        0.055       94.286       11.272        0.014      331.317       -0.746      870.081
11/24/2014  01:08:00      -91.220      -35.351       -5.509       22.208       13.090       10.498      493.192      171.345      110.206        0.519        0.039       97.830        9.479        0.009      331.325       -0.732      870.075
11/24/2014  01:09:00     -111.434      -39.180       -5.443       26.870       26.214       13.032      721.972      687.163      169.831        0.778        0.079      118.121        6.955        0.003      331.207       -0.928      870.075
11/24/2014  01:10:00     -126.487      -41.822       -1.321       30.233       31.855       19.833      914.054     1014.725      393.343        1.004        0.116      133.222       18.130        0.019      331.181       -0.970      870.084
11/24/2014  01:11:00      -91.101      -12.830       -9.584       20.929       17.590       15.439      438.022      309.397      238.351        0.477        0.049       92.000       13.913        0.023      331.182       -0.967      870.094
11/24/2014  01:12:00      -93.889      -21.384      -11.081       14.982       10.904        9.534      224.468      118.904       90.904        0.491        0.022       96.293        8.992        0.009      331.391       -0.625      870.101
11/24/2014  01:13:00      -58.864      -16.696       -3.008       14.630       10.067        9.354      214.040      101.335       87.502        0.208        0.020       61.186        7.603        0.015      331.285       -0.797      870.091
11/24/2014  01:14:00      -64.597      -20.747       -7.685       16.962       15.534        9.571      287.693      241.296       91.599        0.264        0.031       67.847        9.403        0.019      331.258       -0.843      870.073
11/24/2014  01:15:00      -57.547        3.822       -3.178       18.188       17.636       10.516      330.813      311.028      110.594        0.204        0.038       57.674        8.921        0.024      331.234       -0.883      870.067
11/24/2014  01:16:00      -30.244      -11.076       -1.746       11.928       13.524        9.850      142.273      182.897       97.028        0.073        0.021       32.208        8.749        0.074      331.303       -0.768      870.072
11/24/2014  01:17:00      -38.001      -10.758       -5.449       12.262       12.353        8.384      150.368      152.600       70.296        0.098        0.019       39.494        5.612        0.020      331.341       -0.706      870.079
11/24/2014  01:18:00      -30.476        6.285       -5.817       10.634       12.684        8.703      113.083      160.874       75.738        0.068        0.017       31.118        6.688        0.046      331.323       -0.736      870.083
11/24/2014  01:19:00      -49.026       -6.760       -8.107        9.932       16.414        8.224       98.635      269.427       67.638        0.148        0.022       49.490        2.681        0.003      331.344       -0.701      870.095
11/24/2014  01:20:00      -55.593      -17.956      -13.947        9.152       10.619        8.186       83.768      112.765       67.003        0.194        0.013       58.421        3.528        0.004      331.285       -0.797      870.100
11/24/2014  01:21:00      -69.299      -12.213      -11.673       17.855       13.142        8.414      318.815      172.706       70.802        0.282        0.028       70.367        7.276        0.011      331.224       -0.899      870.109
11/24/2014  01:22:00      -64.106      -16.270      -12.627       15.810       16.271       12.145      249.954      264.762      147.491        0.260        0.033       66.138        8.135        0.015      331.203       -0.932      870.134
11/24/2014  01:23:00      -79.182      -15.017       -9.561       23.505       18.068       11.536      552.468      326.466      133.089        0.380        0.051       80.593        8.020        0.010      331.171       -0.985      870.170
11/24/2014  01:24:00      -56.523       -8.757       -7.447       15.602       15.258       11.863      243.423      232.797      140.731        0.197        0.031       57.197       10.664        0.035      331.209       -0.924      870.203
11/24/2014  01:25:00      -59.711      -28.019       -7.174       17.689       14.520        8.799      312.918      210.844       77.422        0.250        0.030       65.958        5.627        0.007      331.115       -1.078      870.203
11/24/2014  01:26:00      -70.638      -20.177      -11.493       17.814       16.235       10.088      317.340      263.563      101.775        0.311        0.034       73.463        5.946        0.007      331.088       -1.122      870.184
11/24/2014  01:27:00      -42.852      -28.456      -12.409       21.670       10.899       10.681      469.600      118.794      114.084        0.175        0.035       51.440        5.356        0.011      331.154       -1.017      870.174
11/24/2014  01:28:00      -11.997      -22.116      -10.059       12.680       13.741       10.171      160.795      188.824      103.444        0.059        0.023       25.160        7.519        0.089      331.149       -1.024      870.169
11/24/2014  01:29:00      -29.688       -4.250        1.548       12.507       12.009       10.667      156.420      144.206      113.781        0.066        0.021       29.991        7.134        0.057      331.198       -0.941      870.171
11/24/2014  01:30:00      -12.864        9.703       -0.157       12.954       10.840        7.921      167.813      117.510       62.750        0.030        0.017       16.113        4.028        0.063      331.330       -0.723      870.199
11/24/2014  01:31:00        3.137       10.057        1.282        5.545        6.118        4.980       30.746       37.424       24.803        0.010        0.005       10.535        2.096        0.040      331.488       -0.466      870.227
11/24/2014  01:32:00      -15.713       -3.862        3.538       14.061        9.829        5.573      197.711       96.601       31.056        0.030        0.016       16.180        4.646        0.082      331.442       -0.540      870.246
11/24/2014  01:33:00      -38.180       -7.598       -0.776        9.242        7.795        7.847       85.412       60.760       61.582        0.086        0.010       38.929        4.782        0.015      331.268       -0.826      870.255
11/24/2014  01:34:00      -52.549       -6.207       -7.250       13.289       10.613        6.753      176.610      112.637       45.597        0.159        0.017       52.914        5.210        0.010      331.264       -0.831      870.252
11/24/2014  01:35:00      -33.916      -11.508       -2.488       11.606       12.694        7.641      134.711      161.144       58.379        0.082        0.018       35.815        6.524        0.033      331.246       -0.861      870.250
11/24/2014  01:36:00      -33.164       -6.300       -2.481        7.733        7.229        5.741       59.801       52.257       32.954        0.065        0.007       33.757        3.332        0.010      331.260       -0.840      870.250
11/24/2014  01:37:00      -26.775       -3.394       -0.347        5.568        5.301        4.930       31.001       28.098       24.305        0.041        0.004       26.990        2.405        0.008      331.413       -0.590      870.248
11/24/2014  01:38:00      -22.959        0.708        0.519        5.208        3.655        5.772       27.121       13.357       33.319        0.030        0.004       22.970        2.286        0.010      331.433       -0.554      870.260
11/24/2014  01:39:00      -25.206        6.308        2.570        6.591        6.163        6.759       43.442       37.980       45.687        0.040        0.006       25.983        3.406        0.017      331.421       -0.575      870.285
11/24/2014  01:40:00        7.996       12.288        4.911       12.225        8.905        5.087      149.453       79.301       25.876        0.025        0.013       14.661        5.735        0.153      331.467       -0.498      870.299
11/24/2014  01:41:00       30.705       18.511        7.189        8.521        7.538        6.796       72.610       56.819       46.190        0.076        0.009       35.853        4.182        0.014      331.639       -0.215      870.302
11/24/2014  01:42:00       18.758        8.466        5.452       12.661       17.309        8.079      160.301      299.606       65.271        0.049        0.026       20.580        6.762        0.108      331.622       -0.244      870.294
11/24/2014  01:43:00       21.564        7.891        3.784       15.990        7.022       10.576      255.673       49.309      111.849        0.048        0.021       22.962        6.452        0.079      331.615       -0.256      870.283
11/24/2014  01:44:00       24.820       11.829        8.165       17.661        9.477       10.930      311.919       89.815      119.476        0.067        0.026       27.495        8.970        0.106      331.615       -0.255      870.272
11/24/2014  01:45:00        0.146        0.613        7.986        8.608        9.150        8.781       74.097       83.729       77.107        0.015        0.012        0.631        4.762       57.032      331.473       -0.489      870.245
11/24/2014  01:46:00       -5.479       -4.722        8.969        7.747       10.345        5.891       60.020      107.013       34.702        0.017        0.010        7.233        4.806        0.441      331.277       -0.812      870.218
11/24/2014  01:47:00      -38.294       -8.905       -0.792       16.024        9.895        4.994      256.778       97.905       24.945        0.096        0.019       39.316        4.169        0.011      331.264       -0.832      870.191
11/24/2014  01:48:00      -59.991      -10.494       -9.084       17.333       11.935       11.584      300.433      142.455      134.178        0.218        0.029       60.902        8.979        0.022      331.147       -1.026      870.182
11/24/2014  01:49:00      -43.870      -20.163       -7.427       19.710       16.232       11.296      388.497      263.473      127.603        0.158        0.039       48.282       12.351        0.065      331.109       -1.089      870.201
11/24/2014  01:50:00      -48.109       -2.351       -4.195        9.181       14.912        7.486       84.300      222.369       56.046        0.135        0.018       48.167        5.603        0.014      331.121       -1.067      870.238
11/24/2014  01:51:00      -42.087       -1.331       -6.499        6.808        5.684        4.343       46.351       32.310       18.860        0.096        0.005       42.108        3.626        0.007      331.300       -0.773      870.265
11/24/2014  01:52:00      -44.733      -14.386       -4.581        9.214        9.418        7.806       84.894       88.691       60.939        0.123        0.012       46.989        6.488        0.019      331.315       -0.747      870.273
11/24/2014  01:53:00      -40.298       -3.843       -7.513        6.332        6.621        6.996       40.095       43.834       48.949        0.091        0.007       40.481        3.974        0.010      331.354       -0.685      870.271
11/24/2014  01:54:00      -26.941       -8.482       -3.083        8.369        8.433        5.811       70.032       71.119       33.772        0.049        0.009       28.245        1.647        0.003      331.391       -0.625      870.265
11/24/2014  01:55:00      -29.360       -5.684       -8.283        7.061        7.755        9.238       49.864       60.147       85.341        0.058        0.010       29.905        7.779        0.068      331.379       -0.641      870.260
11/24/2014  01:56:00      -15.823       -4.420        1.223        7.515        4.734        9.509       56.475       22.407       90.417        0.022        0.008       16.428        4.246        0.067      331.469       -0.497      870.258
11/24/2014  01:57:00       -8.712       -1.440       -4.258        9.183       19.254        8.910       84.320      370.704       79.391        0.032        0.027        8.830        8.550        0.937      331.538       -0.382      870.270
11/24/2014  01:58:00      -26.832       22.690        4.003        8.626       10.619        5.740       74.406      112.768       32.949        0.074        0.011       35.140        3.756        0.011      331.501       -0.444      870.292
11/24/2014  01:59:00      -25.828       16.422       -2.061       15.079       14.156        5.613      227.378      200.397       31.501        0.070        0.023       30.606        6.051        0.039      331.603       -0.275      870.319
11/24/2014  02:00:00      -34.018      -21.715       -4.817        6.446        9.704        6.499       41.550       94.169       42.235        0.091        0.009       40.358        4.172        0.011      331.412       -0.590      870.341
11/24/2014  02:01:00      -26.366      -16.764       -7.618       16.494        9.243        7.484      272.043       85.426       56.012        0.072        0.021       31.244        5.459        0.031      331.389       -0.627      870.360
11/24/2014  02:02:00      -48.270      -25.679       -3.540        8.548        8.388        5.577       73.069       70.355       31.106        0.159        0.009       54.676        2.844        0.003      331.346       -0.697      870.368
11/24/2014  02:03:00      -48.495      -25.764       -5.442       12.306       13.130        9.170      151.429      172.396       84.083        0.173        0.020       54.914        6.043        0.012      331.306       -0.764      870.359
11/24/2014  02:04:00      -57.281      -17.968      -13.388        8.221        9.388        7.253       67.585       88.140       52.610        0.200        0.010       60.033        5.160        0.007      331.298       -0.775      870.362
11/24/2014  02:05:00      -63.348      -26.225      -12.306        9.994       11.489        9.601       99.890      131.997       92.176        0.259        0.016       68.561        3.243        0.002      331.258       -0.843      870.377
11/24/2014  02:06:00      -68.732      -29.174      -13.473       26.577       17.357       12.531      706.339      301.250      157.024        0.346        0.058       74.667       11.234        0.023      331.159       -1.006      870.397
11/24/2014  02:07:00      -78.655      -35.063      -12.834       17.966       15.361       12.414      322.794      235.975      154.105        0.415        0.036       86.116        8.331        0.009      331.085       -1.128      870.413
11/24/2014  02:08:00      -89.969       -9.610      -11.263       24.851       18.630       16.955      617.576      347.062      287.485        0.478        0.063       90.480       15.054        0.028      331.061       -1.167      870.404
11/24/2014  02:09:00      -48.339      -17.928       -6.143       21.342       14.171       14.514      455.493      200.808      210.666        0.178        0.043       51.556       14.336        0.077      331.063       -1.164      870.378
11/24/2014  02:10:00      -71.471      -19.911       -5.484       23.460       18.968       12.114      550.354      359.773      146.739        0.330        0.053       74.193       14.178        0.037      331.146       -1.028      870.355
11/24/2014  02:11:00     -100.518      -33.191      -18.020       12.880       11.084        7.972      165.894      122.857       63.558        0.594        0.018      105.856        4.902        0.002      331.248       -0.858      870.362
11/24/2014  02:12:00      -95.491      -39.643       -8.882       24.462       21.230       13.720      598.401      450.721      188.227        0.600        0.062      103.393       12.760        0.015      331.072       -1.150      870.379
11/24/2014  02:13:00      -88.315      -32.369       -6.349       23.560       25.449       12.555      555.085      647.662      157.629        0.512        0.068       94.060       12.534        0.018      331.039       -1.203      870.382
11/24/2014  02:14:00      -75.632       -2.998       -1.372       33.865       34.864       26.240     1146.841     1215.518      688.534        0.439        0.153       75.691       21.951        0.084      330.982       -1.297      870.385
11/24/2014  02:15:00      -97.464       -5.987       -8.409       34.169       24.566       22.905     1167.495      603.475      524.662        0.595        0.115       97.648       16.845        0.030      330.980       -1.301      870.405
11/24/2014  02:16:00      -81.276       -8.156       -9.727       28.536       22.659       16.249      814.297      513.417      264.014        0.418        0.080       81.684       13.502        0.027      330.964       -1.326      870.424
11/24/2014  02:17:00      -86.777      -21.876       -8.880       18.137       21.824       11.751      328.939      476.298      138.081        0.452        0.047       89.492        5.780        0.004      331.002       -1.264      870.436
11/24/2014  02:18:00      -76.433      -28.288       -8.275       16.928       19.646        9.145      286.568      385.952       83.630        0.373        0.038       81.499        7.813        0.009      331.022       -1.231      870.423
11/24/2014  02:19:00      -59.508      -30.641       -5.449       13.748       14.748        9.676      188.996      217.493       93.627        0.250        0.025       66.934        5.307        0.006      331.112       -1.083      870.414
11/24/2014  02:20:00      -63.860      -24.135      -11.227       19.563       17.645        9.801      382.719      311.360       96.057        0.279        0.040       68.269        5.429        0.006      331.068       -1.156      870.406
11/24/2014  02:21:00      -27.970      -19.071       -0.765       27.234       14.026       12.685      741.701      196.742      160.900        0.112        0.055       33.853       11.486        0.115      331.084       -1.128      870.426
11/24/2014  02:22:00      -66.331      -22.136      -17.170       17.263       14.644       10.998      298.009      214.437      120.963        0.291        0.032       69.928        7.342        0.011      331.184       -0.965      870.435
11/24/2014  02:23:00      -67.069      -21.340      -15.355        9.961       14.282       10.410       99.216      203.965      108.378        0.280        0.021       70.382        5.185        0.005      331.258       -0.843      870.428
11/24/2014  02:24:00      -64.291      -18.496      -13.331       13.481       17.874       10.402      181.740      319.464      108.204        0.263        0.030       66.899        8.180        0.015      331.208       -0.925      870.431
11/24/2014  02:25:00      -99.981      -23.104      -14.758       19.344       13.354       14.377      374.201      178.332      206.693        0.575        0.038      102.615       12.150        0.014      331.023       -1.230      870.460
11/24/2014  02:26:00     -102.476      -23.416      -10.079       17.569       15.668       12.087      308.662      245.486      146.098        0.593        0.035      105.118        9.874        0.009      330.987       -1.288      870.486
11/24/2014  02:27:00      -80.443      -35.453       -5.130       17.390       22.227       17.431      302.425      494.022      303.845        0.443        0.055       87.909       12.363        0.020      330.990       -1.284      870.505
11/24/2014  02:28:00      -92.539      -28.424       -5.182       23.722       12.297       12.013      562.733      151.219      144.319        0.513        0.043       96.806        9.656        0.010      331.043       -1.198      870.506
11/24/2014  02:29:00      -75.868      -39.452        1.083       21.967       20.594       14.778      482.545      424.097      218.397        0.422        0.056       85.513       13.489        0.025      331.015       -1.242      870.503
11/24/2014  02:30:00      -87.890      -27.258       -6.021       13.994       19.908       10.638      195.831      396.326      113.167        0.460        0.035       92.020        8.473        0.008      331.081       -1.134      870.510
11/24/2014  02:31:00     -106.515        2.211       -9.685       25.791       12.480       11.638      665.194      155.762      135.450        0.620        0.048      106.538       10.023        0.009      331.012       -1.247      870.513
11/24/2014  02:32:00     -112.905       -2.929      -13.523       13.173       14.059       10.639      173.527      197.657      113.192        0.671        0.024      112.943        7.002        0.004      331.044       -1.194      870.534
11/24/2014  02:33:00      -98.160       -9.280      -13.258       14.780       13.549       10.207      218.453      183.570      104.191        0.520        0.025       98.597        6.042        0.004      331.059       -1.171      870.549
11/24/2014  02:34:00      -92.322      -14.381       -7.587       18.991       10.743       10.624      360.642      115.420      112.872        0.469        0.029       93.435        5.195        0.003      331.185       -0.963      870.549
11/24/2014  02:35:00      -74.291      -34.068       -2.591       18.886       14.566       10.805      356.684      212.168      116.757        0.369        0.034       81.730       11.458        0.020      331.182       -0.966      870.538
11/24/2014  02:36:00      -83.103      -31.225       -3.643       16.884       15.704       10.130      285.075      246.625      102.610        0.426        0.032       88.776        7.135        0.006      331.067       -1.158      870.513
11/24/2014  02:37:00      -98.694      -22.882      -11.050       16.877       18.518       10.020      284.839      342.904      100.408        0.556        0.036      101.312        8.285        0.007      331.012       -1.247      870.499
11/24/2014  02:38:00      -95.937      -34.671       -8.178       14.834       14.895       10.086      220.057      221.853      101.727        0.551        0.027      102.010        5.143        0.003      331.037       -1.208      870.486
11/24/2014  02:39:00      -71.717      -37.281       -5.365       18.991       18.251       11.941      360.641      333.102      142.597        0.370        0.042       80.828        7.540        0.009      330.916       -1.405      870.490
11/24/2014  02:40:00      -65.804      -42.075       -6.604       16.547       21.724       10.196      273.799      471.927      103.953        0.350        0.042       78.105        4.088        0.003      330.897       -1.435      870.487
11/24/2014  02:41:00      -59.496      -35.413       -6.034       14.342       23.923       10.858      205.692      572.298      117.894        0.286        0.045       69.238        9.753        0.020      330.951       -1.348      870.491
11/24/2014  02:42:00      -85.554      -28.209      -10.044       18.709       18.902       10.702      350.039      357.283      114.539        0.452        0.041       90.085        9.631        0.011      330.977       -1.305      870.483
11/24/2014  02:43:00      -92.852      -21.187       -8.864       19.510       20.404       10.913      380.641      416.344      119.103        0.503        0.046       95.238       11.170        0.014      330.978       -1.302      870.475
11/24/2014  02:44:00     -103.114      -33.855      -13.266       16.908       18.114       12.569      285.895      328.127      157.972        0.636        0.039      108.530       12.220        0.013      330.923       -1.393      870.475
11/24/2014  02:45:00     -115.365      -28.243       -5.470       22.401       14.753       13.986      501.819      217.646      195.596        0.753        0.046      118.772       12.618        0.011      330.954       -1.341      870.465
11/24/2014  02:46:00      -97.340      -33.928       -5.781       28.804       16.346       10.424      829.677      267.191      108.668        0.593        0.060      103.083        8.419        0.007      331.020       -1.234      870.462
11/24/2014  02:47:00      -66.069      -33.555        1.119       21.657       17.183       12.267      469.005      295.247      150.467        0.320        0.046       74.102        9.854        0.018      331.071       -1.152      870.459
11/24/2014  02:48:00      -97.450      -40.516       -4.869       16.876       15.396       10.412      284.785      237.043      108.410        0.590        0.032      105.537       10.863        0.011      331.174       -0.982      870.468
11/24/2014  02:49:00      -97.105      -37.479       -3.592       22.700       22.252       13.691      515.283      495.159      187.438        0.602        0.060      104.087       10.510        0.010      331.035       -1.210      870.489
11/24/2014  02:50:00     -106.934      -19.410       -3.346       28.660       16.398       15.746      821.374      268.906      247.948        0.658        0.067      108.681       16.544        0.023      330.930       -1.381      870.497
11/24/2014  02:51:00      -94.183      -32.760       -2.542       14.606       17.719       10.932      213.332      313.967      119.512        0.530        0.032       99.718        9.676        0.009      330.978       -1.305      870.486
11/24/2014  02:52:00      -93.897      -33.854       -7.390       12.820       13.873       10.071      164.362      192.453      101.428        0.524        0.023       99.814        6.633        0.004      331.037       -1.205      870.476
11/24/2014  02:53:00      -82.818      -26.797       -3.686       20.016       13.962       10.196      400.653      194.936      103.953        0.414        0.035       87.046        6.689        0.006      331.117       -1.075      870.472
11/24/2014  02:54:00      -91.424      -17.582       -9.951       23.865       17.404       13.047      569.560      302.884      170.217        0.490        0.052       93.099       10.561        0.013      331.069       -1.155      870.471
11/24/2014  02:55:00     -128.279      -43.012      -14.895       18.934       15.808       12.797      358.481      249.903      163.751        0.965        0.039      135.298        5.676        0.002      330.894       -1.440      870.481
11/24/2014  02:56:00      -98.694      -26.726      -10.039       18.119       21.562       16.115      328.281      464.904      259.678        0.580        0.053      102.249        9.529        0.009      330.828       -1.550      870.491
11/24/2014  02:57:00      -84.880      -29.309      -10.046       21.827       15.743       10.567      476.426      247.830      111.660        0.450        0.042       89.798        9.485        0.011      330.961       -1.331      870.494
11/24/2014  02:58:00      -84.112      -36.137       -8.651       20.010       14.644       10.521      400.394      214.440      110.696        0.459        0.036       91.546        9.915        0.012      330.916       -1.404      870.497
11/24/2014  02:59:00      -85.687      -55.000       -6.462       20.783       21.111       15.070      431.914      445.690      227.092        0.576        0.055      101.819       10.000        0.010      330.900       -1.430      870.496
11/24/2014  03:00:00      -76.459      -41.989       -4.227       25.038       22.429       16.130      626.891      503.066      260.179        0.451        0.070       87.230       11.134        0.016      330.839       -1.531      870.502
11/24/2014  03:01:00      -83.269      -24.374       -8.716       26.092       17.157       14.914      680.811      294.346      222.421        0.440        0.060       86.763       14.261        0.027      330.816       -1.568      870.510
11/24/2014  03:02:00      -99.785      -44.044       -6.757       28.480       20.672       15.737      811.108      427.345      247.641        0.671        0.074      109.073       12.771        0.014      330.938       -1.369      870.519
11/24/2014  03:03:00      -91.585      -44.170      -10.607       21.981       14.900       11.963      483.170      221.996      143.103        0.565        0.042      101.679        6.798        0.004      331.014       -1.244      870.535
11/24/2014  03:04:00      -77.417      -33.483      -12.323       15.725        9.182        9.039      247.263       84.306       81.703        0.384        0.021       84.348        8.204        0.009      330.976       -1.305      870.559
11/24/2014  03:05:00      -79.812      -31.677       -4.944       14.151       17.926       10.640      200.264      321.359      113.203        0.402        0.032       85.869        8.245        0.009      331.065       -1.162      870.572
11/24/2014  03:06:00      -67.077       -3.942       -5.553       26.062       12.450       12.036      679.202      155.010      144.865        0.276        0.049       67.193       10.102        0.023      331.029       -1.222      870.574
11/24/2014  03:07:00      -85.139      -24.116       -6.706       11.137       11.848        7.992      124.033      140.381       63.865        0.410        0.016       88.489        5.252        0.004      331.089       -1.121      870.573
11/24/2014  03:08:00      -75.337      -37.498       -2.487       12.107       14.376        8.885      146.576      206.671       78.936        0.376        0.022       84.154        6.514        0.006      331.129       -1.054      870.563
11/24/2014  03:09:00      -70.503      -26.247       -5.335       15.589       16.986        9.672      243.004      288.525       93.552        0.316        0.031       75.230        8.462        0.013      331.092       -1.117      870.555
11/24/2014  03:10:00      -66.433      -47.253       -2.926       18.291       16.043        9.301      334.548      257.375       86.509        0.367        0.034       81.524        9.305        0.013      331.195       -0.946      870.572
11/24/2014  03:11:00      -79.423      -40.931       -4.187       11.030        9.887        8.107      121.653       97.753       65.718        0.414        0.014       89.350        6.096        0.005      331.169       -0.989      870.623
11/24/2014  03:12:00      -80.501      -30.193       -7.574        9.732       10.484        6.732       94.711      109.904       45.320        0.385        0.012       85.977        2.897        0.001      331.162       -1.000      870.662
11/24/2014  03:13:00      -93.706      -26.643       -9.746        8.423       12.117        9.651       70.953      146.816       93.149        0.495        0.016       97.420        3.516        0.001      331.101       -1.100      870.670
11/24/2014  03:14:00      -83.567      -33.505        3.608       20.458       17.315       15.337      418.544      299.807      235.238        0.454        0.048       90.034       11.013        0.015      331.130       -1.053      870.659
11/24/2014  03:15:00     -102.404      -53.332        1.926       35.976       24.972       16.609     1294.237      623.578      275.854        0.776        0.110      115.460       19.567        0.029      331.035       -1.211      870.652
11/24/2014  03:16:00     -112.313      -34.588       -4.196       21.254       19.320       13.304      451.727      373.254      176.995        0.741        0.050      117.518        9.066        0.006      331.014       -1.244      870.669
11/24/2014  03:17:00     -104.668      -40.530        0.262       19.458       15.584       12.710      378.598      242.859      161.554        0.669        0.039      112.241        9.225        0.007      331.041       -1.200      870.692
11/24/2014  03:18:00      -88.610      -25.709       -8.577       13.448       11.156        7.859      180.854      124.454       61.766        0.448        0.018       92.264        3.603        0.002      331.063       -1.164      870.712
11/24/2014  03:19:00      -72.088      -29.488       -1.367       18.751       14.603       10.925      351.597      213.262      119.364        0.338        0.034       77.886       11.129        0.020      331.075       -1.143      870.733
11/24/2014  03:20:00      -85.335      -34.165       -7.361       10.296       14.385        8.403      106.006      206.938       70.604        0.444        0.019       91.921        6.675        0.005      331.071       -1.152      870.745
11/24/2014  03:21:00      -84.267      -26.985       -4.692       18.678       13.182       10.149      348.886      173.770      103.003        0.424        0.031       88.482       10.307        0.014      331.037       -1.208      870.763
11/24/2014  03:22:00      -71.999      -18.128       -1.172       23.959       14.545       13.564      574.029      211.563      183.975        0.324        0.048       74.246       12.454        0.028      331.027       -1.224      870.783
11/24/2014  03:23:00      -75.279      -17.446       -0.598       25.589       15.822       11.164      654.788      250.327      124.635        0.350        0.051       77.275       12.429        0.026      330.955       -1.342      870.798
11/24/2014  03:24:00     -101.435      -35.486       -4.848       27.523       18.154       13.188      757.503      329.563      173.920        0.642        0.063      107.463       16.775        0.024      331.023       -1.229      870.818
11/24/2014  03:25:00     -111.672      -14.731      -13.433       31.141       14.297       15.735      969.736      204.410      247.592        0.714        0.071      112.639       14.526        0.017      330.857       -1.502      870.844
11/24/2014  03:26:00     -110.720      -10.281      -10.524       28.414       14.846       15.179      807.382      220.418      230.390        0.687        0.063      111.197       13.170        0.014      330.741       -1.692      870.882
11/24/2014  03:27:00      -92.699       -9.182       -5.008       34.276       19.465       20.619     1174.874      378.903      425.148        0.534        0.099       93.153       22.806        0.060      330.743       -1.688      870.916
11/24/2014  03:28:00     -123.675      -32.823       -5.362       29.164       22.459       17.276      850.510      504.391      298.455        0.903        0.083      127.957       17.193        0.018      330.810       -1.579      870.920
11/24/2014  03:29:00     -114.313      -24.392       -8.254       26.093       18.655       15.432      680.864      348.009      238.148        0.750        0.063      116.886       13.196        0.013      330.772       -1.641      870.918
11/24/2014  03:30:00      -96.395      -37.647       -2.740       26.117       20.168       12.654      682.111      406.742      160.129        0.598        0.062      103.486       12.077        0.014      330.776       -1.636      870.908
11/24/2014  03:31:00     -105.606      -13.888       -5.073       31.993       19.765       16.655     1023.581      390.673      277.386        0.653        0.085      106.516       17.113        0.026      330.679       -1.793      870.907
11/24/2014  03:32:00      -83.126      -18.094       -1.507       26.483       23.966       18.950      701.372      574.376      359.106        0.444        0.082       85.072       15.088        0.031      330.740       -1.693      870.906
11/24/2014  03:33:00     -154.725        4.393      -16.694       28.934       22.912       17.722      837.158      524.941      314.064        1.296        0.084      154.787       17.429        0.013      330.959       -1.333      870.890
11/24/2014  03:34:00      -99.117      -24.116       -3.617       40.838       33.825       20.219     1667.770     1144.125      408.797        0.682        0.161      102.009       10.884        0.011      330.892       -1.445      870.879
11/24/2014  03:35:00     -110.954      -31.200      -14.103       26.152       23.139       16.626      683.904      535.426      276.413        0.749        0.075      115.257       14.878        0.017      330.849       -1.513      870.859
11/24/2014  03:36:00     -101.076      -54.309       -8.560       15.235       27.447       14.744      232.101      753.328      217.381        0.722        0.060      114.743        8.972        0.006      330.811       -1.577      870.832
11/24/2014  03:37:00     -109.440      -36.302       -8.818       26.660       31.510       18.773      710.736      992.899      352.443        0.771        0.103      115.304       10.060        0.008      330.759       -1.662      870.823
11/24/2014  03:38:00     -133.894      -34.145      -14.076       31.868       27.305       21.443     1015.590      745.590      459.817        1.076        0.111      138.179       18.260        0.017      330.724       -1.722      870.839
11/24/2014  03:39:00     -126.130      -21.419      -17.358       43.748       27.022       20.012     1913.880      730.166      400.478        0.986        0.152      127.936       20.655        0.026      330.670       -1.808      870.854
11/24/2014  03:40:00     -124.660      -11.542       -9.998       35.000       21.782       21.044     1224.995      474.453      442.858        0.896        0.107      125.194       18.225        0.021      330.573       -1.967      870.866
11/24/2014  03:41:00     -129.292      -11.516      -13.644       38.088       27.611       22.969     1450.664      762.392      527.567        0.989        0.137      129.804       24.203        0.035      330.686       -1.782      870.885
11/24/2014  03:42:00     -130.587      -16.031       -8.398       27.103       29.959       18.507      734.583      897.548      342.509        0.968        0.099      131.567       13.627        0.011      330.737       -1.699      870.902
11/24/2014  03:43:00     -110.711      -18.438      -10.924       38.886       22.699       16.221     1512.107      515.245      263.126        0.750        0.115      112.236       17.287        0.024      330.714       -1.736      870.911
11/24/2014  03:44:00     -114.891       -9.322       -6.416       34.118       25.706       19.238     1164.038      660.775      370.103        0.776        0.110      115.269       18.552        0.026      330.741       -1.692      870.920
11/24/2014  03:45:00     -157.503       -9.913      -15.674       44.676       21.630       19.449     1995.923      467.845      378.254        1.400        0.142      157.815       21.259        0.018      330.842       -1.526      870.925
11/24/2014  03:46:00     -133.060      -36.211      -15.097       29.835       32.543       19.186      890.121     1059.070      368.117        1.078        0.116      137.899       13.597        0.010      330.804       -1.588      870.909
11/24/2014  03:47:00      -87.254      -33.746       -1.471       39.857       43.561       16.232     1588.571     1897.592      263.486        0.625        0.187       93.553       18.880        0.041      330.796       -1.602      870.886
11/24/2014  03:48:00      -94.815      -33.390       -3.226       43.685       28.874       18.433     1908.404      833.707      339.793        0.660        0.154      100.523       18.216        0.033      330.751       -1.675      870.868
11/24/2014  03:49:00     -106.242      -59.931       -8.158       21.287       31.369       17.382      453.154      984.015      302.138        0.834        0.087      121.980       15.254        0.016      330.828       -1.550      870.861
11/24/2014  03:50:00     -110.017      -15.364       -5.554       27.878       18.319       14.584      777.203      335.585      212.691        0.685        0.066      111.085       15.574        0.020      330.785       -1.620      870.865
11/24/2014  03:51:00      -90.774      -12.012       -6.346       39.867       17.444       17.068     1589.373      304.290      291.303        0.530        0.109       91.566       21.488        0.055      330.846       -1.520      870.888
11/24/2014  03:52:00      -84.413      -19.352       -5.904       30.925       16.138       11.604      956.364      260.434      134.663        0.444        0.068       86.603       12.771        0.022      330.796       -1.601      870.926
11/24/2014  03:53:00      -86.351      -24.848      -10.506       18.584       19.238       11.984      345.383      370.104      143.617        0.452        0.043       89.855       10.571        0.014      330.831       -1.544      870.963
11/24/2014  03:54:00      -85.598       -6.241       -6.087       31.052       23.266       18.793      964.215      541.312      353.191        0.463        0.093       85.825       16.970        0.039      330.810       -1.579      870.976
11/24/2014  03:55:00      -74.078       -3.349        0.629       30.595       27.056       19.621      936.083      732.050      385.001        0.378        0.103       74.154       16.424        0.049      330.882       -1.460      870.967
11/24/2014  03:56:00      -83.826       -6.869       -1.348       37.379       22.362       19.855     1397.202      500.074      394.226        0.468        0.115       84.107       19.088        0.052      330.872       -1.477      870.954
11/24/2014  03:57:00      -59.175      -17.733        5.412       33.936       23.750       17.493     1151.661      564.049      306.009        0.293        0.101       61.775       19.270        0.097      330.798       -1.600      870.970
11/24/2014  03:58:00      -44.762      -26.912        2.836       25.511       25.701       15.673      650.805      660.564      245.650        0.215        0.078       52.229       12.021        0.053      330.809       -1.583      870.987
11/24/2014  03:59:00      -73.917       -5.069       -7.170       25.176       19.786       13.425      633.854      391.496      180.221        0.337        0.060       74.090       13.932        0.035      330.791       -1.609      870.996
11/24/2014  04:00:00      -60.208       -9.979        1.124       32.019       19.807       17.897     1025.236      392.305      320.285        0.273        0.087       61.029       19.859        0.106      330.800       -1.595      871.009
11/24/2014  04:01:00      -35.124      -26.559        1.281       31.476       24.497       13.849      990.762      600.119      191.807        0.186        0.089       44.035        7.187        0.027      330.860       -1.498      871.035
11/24/2014  04:02:00      -90.420      -40.068       -7.434       19.018       24.977       16.414      361.669      623.839      269.406        0.555        0.063       98.900        7.307        0.005      330.849       -1.514      871.058
11/24/2014  04:03:00      -68.905      -26.762        0.051       31.102       20.723       14.116      967.337      429.424      199.262        0.353        0.080       73.919       16.778        0.052      330.829       -1.549      871.066
11/24/2014  04:04:00      -50.043      -25.585        3.160       33.942       22.764       15.416     1152.083      518.192      237.666        0.254        0.095       56.204       19.627        0.122      330.800       -1.595      871.052
11/24/2014  04:05:00      -44.944      -16.815       -0.456       22.966       22.013       13.155      527.446      484.569      173.044        0.174        0.059       47.987        9.884        0.042      330.728       -1.713      871.040
11/24/2014  04:06:00      -36.221      -22.239        6.249       27.000       17.013       13.305      729.020      289.439      177.019        0.152        0.060       42.504        9.564        0.051      330.837       -1.534      871.041
11/24/2014  04:07:00      -34.723      -22.501        0.982       30.875       17.742       11.589      953.279      314.769      134.314        0.156        0.070       41.376       12.421        0.090      330.771       -1.644      871.061
11/24/2014  04:08:00      -52.882      -35.850       -0.595       25.786       18.914       14.513      664.893      357.746      210.639        0.266        0.062       63.888       11.121        0.030      330.705       -1.752      871.097
11/24/2014  04:09:00      -42.436      -49.083       -0.329       23.911       20.343       11.759      571.751      413.842      138.272        0.267        0.056       64.884        7.351        0.013      330.879       -1.464      871.114
11/24/2014  04:10:00      -34.203      -23.430       -1.718       24.758       13.674       10.120      612.954      186.971      102.422        0.131        0.045       41.459        8.544        0.042      330.857       -1.501      871.124
11/24/2014  04:11:00      -20.891       -9.301        5.959       23.414       11.149       10.932      548.216      124.311      119.517        0.068        0.040       22.868       10.141        0.197      330.851       -1.512      871.135
11/24/2014  04:12:00      -11.279      -10.705        3.975       24.170       13.338       11.320      584.171      177.907      128.136        0.057        0.045       15.550       11.227        0.521      330.772       -1.642      871.165
11/24/2014  04:13:00      -33.415      -17.480       -3.506       18.192       14.463        6.837      330.942      209.191       46.743        0.101        0.029       37.711        5.427        0.021      330.730       -1.710      871.188
11/24/2014  04:14:00      -27.262      -20.487       -1.727       25.389       13.071       10.717      644.591      170.863      114.861        0.105        0.047       34.102        6.318        0.034      330.752       -1.674      871.204
11/24/2014  04:15:00       -4.582       -7.207        3.057       16.213       11.824       10.279      262.872      139.811      105.659        0.030        0.025        8.540        6.776        0.630      330.684       -1.786      871.205
11/24/2014  04:16:00      -49.455      -28.206        1.706       38.819       18.687       13.878     1506.918      349.210      192.586        0.265        0.102       56.933       15.148        0.071      330.591       -1.938      871.196
11/24/2014  04:17:00      -35.983      -49.897        0.387       29.646       15.969       13.512      878.911      255.010      182.581        0.255        0.066       61.518       14.080        0.052      330.688       -1.779      871.198
11/24/2014  04:18:00      -60.789      -50.519       -3.667       34.593       20.511       15.906     1196.666      420.710      252.999        0.407        0.094       79.041       13.793        0.030      330.635       -1.864      871.207
11/24/2014  04:19:00      -57.313      -37.936        3.754       34.763       22.484       18.718     1208.483      505.525      350.365        0.340        0.103       68.731       16.403        0.057      330.699       -1.761      871.210
11/24/2014  04:20:00      -65.559      -38.910        2.451       25.860       21.494       15.182      668.746      461.973      230.505        0.359        0.068       76.236       15.333        0.040      330.656       -1.832      871.218
11/24/2014  04:21:00      -62.039      -53.840        2.305       21.129       20.739       13.903      446.440      430.098      193.283        0.391        0.053       82.143       10.952        0.018      330.707       -1.748      871.222
11/24/2014  04:22:00      -68.084      -31.540        0.832       23.140       13.962        8.037      535.454      194.940       64.590        0.321        0.040       75.035        5.339        0.005      330.646       -1.847      871.225
11/24/2014  04:23:00      -60.452      -27.355        2.165       28.213       13.564       16.144      795.957      183.976      260.627        0.282        0.062       66.353       16.689        0.063      330.684       -1.785      871.221
11/24/2014  04:24:00      -24.857      -28.686        5.770       27.868       15.176       15.351      776.600      230.326      235.650        0.136        0.062       37.957       15.119        0.159      330.680       -1.793      871.231
11/24/2014  04:25:00      -34.200      -19.541        5.220       23.374       15.141       13.241      546.357      229.249      175.318        0.126        0.048       39.389       13.256        0.113      330.615       -1.898      871.252
11/24/2014  04:26:00      -42.292      -23.292        2.954       15.706       14.790       12.924      246.674      218.733      167.019        0.149        0.032       48.281       11.979        0.062      330.637       -1.863      871.272
11/24/2014  04:27:00      -59.898      -20.163       -4.822       13.911       13.284        7.392      193.527      176.467       54.647        0.222        0.021       63.201        5.820        0.008      330.625       -1.882      871.281
11/24/2014  04:28:00      -63.655      -11.611        1.078       15.688       11.775        9.575      246.123      138.649       91.673        0.233        0.024       64.705        8.002        0.015      330.513       -2.066      871.274
11/24/2014  04:29:00      -81.400      -22.635       -5.943        8.622       13.905        7.334       74.332      193.361       53.785        0.375        0.016       84.489        4.612        0.003      330.533       -2.032      871.260
11/24/2014  04:30:00      -67.595      -33.161       -2.279       25.354       16.980       11.588      642.841      288.332      134.280        0.337        0.053       75.291       11.675        0.024      330.523       -2.050      871.252
11/24/2014  04:31:00      -64.685      -36.059        8.329       29.161       17.539       17.427      850.391      307.625      303.704        0.351        0.073       74.057       17.261        0.054      330.539       -2.025      871.257
11/24/2014  04:32:00      -61.901      -31.382        1.922       32.491       17.532       15.714     1055.633      307.376      246.924        0.321        0.080       69.401       15.774        0.052      330.519       -2.057      871.268
11/24/2014  04:33:00      -29.869      -17.931        8.204       26.348       16.420       13.998      694.218      269.610      195.953        0.122        0.058       34.838       15.323        0.193      330.539       -2.023      871.282
11/24/2014  04:34:00      -28.064      -19.047        6.669       29.798       22.926       13.703      887.905      525.585      187.775        0.140        0.080       33.917       15.382        0.206      330.559       -1.991      871.304
11/24/2014  04:35:00      -16.181      -13.060       13.341       27.452       15.005       12.121      753.601      225.141      146.927        0.087        0.056       20.794       15.912        0.586      330.496       -2.094      871.319
11/24/2014  04:36:00      -36.984        1.808        0.277       22.097       16.007        7.998      488.286      256.212       63.966        0.109        0.040       37.028        9.012        0.059      330.481       -2.119      871.333
11/24/2014  04:37:00      -48.197       -0.810       -3.243       11.431       14.443        9.421      130.664      208.589       88.763        0.138        0.021       48.204        6.794        0.020      330.505       -2.080      871.332
11/24/2014  04:38:00      -12.222      -11.838        5.392       13.816       11.893       11.508      190.892      141.442      132.433        0.039        0.023       17.015        4.946        0.084      330.511       -2.070      871.332
11/24/2014  04:39:00      -35.111      -23.190       -0.952       31.862       16.089       11.525     1015.156      258.852      132.820        0.159        0.070       42.078       12.364        0.086      330.554       -1.997      871.344
11/24/2014  04:40:00      -50.574      -20.305        5.760       26.578       14.912       10.975      706.371      222.357      120.449        0.203        0.052       54.498       13.088        0.058      330.540       -2.022      871.356
11/24/2014  04:41:00      -62.515      -26.034        0.917       15.371       22.783       10.224      236.261      519.085      104.531        0.272        0.043       67.719        6.227        0.008      330.544       -2.016      871.372
11/24/2014  04:42:00      -55.948       -9.721       -3.396       13.828       14.229       12.080      191.206      202.475      145.918        0.189        0.027       56.786        9.133        0.026      330.533       -2.032      871.406
11/24/2014  04:43:00      -77.164      -18.289       -2.365       24.193       13.796       12.546      585.278      190.339      157.400        0.361        0.047       79.302       12.790        0.026      330.497       -2.093      871.442
11/24/2014  04:44:00      -66.437      -15.893       -2.361       21.251       16.409       12.766      451.620      269.245      162.981        0.278        0.044       68.311       11.768        0.030      330.442       -2.183      871.461
11/24/2014  04:45:00      -65.683       -7.673       -0.501       25.791       18.732       14.625      665.200      350.891      213.901        0.280        0.061       66.129       13.414        0.041      330.321       -2.382      871.464
11/24/2014  04:46:00      -78.129      -16.500       -2.538       25.701       16.552       15.075      660.526      273.963      227.247        0.377        0.058       79.852       13.891        0.030      330.319       -2.384      871.472
11/24/2014  04:47:00      -80.847      -25.014       -0.488       24.185       21.926       15.318      584.897      480.742      234.648        0.423        0.065       84.628       16.181        0.037      330.325       -2.374      871.457
11/24/2014  04:48:00      -69.180      -35.215        2.781       26.519       20.917       13.201      703.272      437.534      174.267        0.367        0.066       77.627       12.706        0.027      330.363       -2.312      871.450
11/24/2014  04:49:00      -58.333      -30.392        3.980       35.825       22.849       18.721     1283.458      522.089      350.477        0.325        0.108       65.776       18.315        0.078      330.414       -2.229      871.453
11/24/2014  04:50:00      -29.492      -22.116        6.109       36.509       23.569       14.968     1332.881      555.497      224.041        0.175        0.106       36.864       13.792        0.140      330.441       -2.185      871.463
11/24/2014  04:51:00      -49.942      -13.481       -4.037       21.680       22.486       13.458      470.036      505.602      181.123        0.192        0.058       51.729       11.272        0.047      330.390       -2.269      871.471
11/24/2014  04:52:00      -33.130       -5.607        3.800       21.703       15.729       11.556      471.016      247.410      133.546        0.100        0.043       33.601        8.948        0.071      330.341       -2.349      871.497
11/24/2014  04:53:00      -50.447       -2.718       -2.156       21.540       15.214       13.214      463.966      231.465      174.618        0.171        0.044       50.520       13.001        0.066      330.246       -2.504      871.532
11/24/2014  04:54:00      -49.604        8.533       -8.038       18.540       14.737        7.650      343.725      217.174       58.522        0.161        0.031       50.333        7.207        0.021      330.268       -2.466      871.566
11/24/2014  04:55:00      -56.754       -5.763      -10.549       16.218       12.899        7.406      263.035      166.393       54.852        0.192        0.024       57.046        6.557        0.013      330.290       -2.431      871.582
11/24/2014  04:56:00      -48.618      -14.569      -10.002        9.150        7.137        7.104       83.716       50.936       50.472        0.143        0.009       50.754        3.967        0.006      330.242       -2.510      871.597
11/24/2014  04:57:00      -50.732       -8.804      -10.850        8.102       10.141        8.301       65.642      102.843       68.900        0.150        0.012       51.491        5.398        0.011      330.291       -2.428      871.628
11/24/2014  04:58:00      -46.932       -2.753      -11.859        7.445        9.123        4.466       55.423       83.235       19.943        0.125        0.008       47.013        2.715        0.003      330.265       -2.473      871.647
11/24/2014  04:59:00      -67.955      -11.877      -10.672       12.070       13.935       10.163      145.674      194.178      103.292        0.266        0.022       68.985        9.278        0.018      330.278       -2.450      871.660
11/24/2014  05:00:00      -57.848      -19.780      -15.097       12.105       11.621        8.978      146.530      135.037       80.597        0.216        0.018       61.136        4.967        0.007      330.260       -2.480      871.650
11/24/2014  05:01:00      -66.782       -5.495       -9.447       10.955        9.666        7.965      120.006       93.424       63.437        0.243        0.014       67.007        5.352        0.006      330.246       -2.504      871.633
11/24/2014  05:02:00      -55.511       -6.457       -9.441        7.919        6.450        6.531       62.715       41.601       42.648        0.168        0.007       55.885        2.831        0.003      330.272       -2.459      871.627
11/24/2014  05:03:00      -40.479       -6.579       -6.942       10.557        7.813        5.565      111.445       61.037       30.969        0.097        0.010       41.010        3.067        0.006      330.286       -2.438      871.638
11/24/2014  05:04:00      -28.837       -7.482       -4.352        8.929        7.235        4.839       79.736       52.352       23.416        0.053        0.008       29.792        3.752        0.016      330.310       -2.399      871.652
11/24/2014  05:05:00      -29.156       -5.219       -3.416       11.543        7.470        7.125      133.231       55.806       50.766        0.056        0.012       29.619        5.869        0.039      330.328       -2.368      871.661
11/24/2014  05:06:00      -28.687        2.970       -8.964        6.888        3.890        4.942       47.449       15.136       24.425        0.050        0.004       28.841        2.213        0.006      330.379       -2.286      871.684
11/24/2014  05:07:00      -22.397       -4.343       -3.409        7.699        5.491        4.361       59.281       30.150       19.019        0.032        0.005       22.815        2.983        0.017      330.406       -2.242      871.725
11/24/2014  05:08:00      -39.277      -17.310       -5.879        8.347        7.788        4.957       69.679       60.648       24.573        0.102        0.008       42.923        3.268        0.006      330.309       -2.400      871.757
11/24/2014  05:09:00      -44.701       -8.489       -9.063        6.640        6.720        5.544       44.089       45.164       30.739        0.114        0.006       45.500        2.853        0.004      330.295       -2.425      871.784
11/24/2014  05:10:00      -43.163      -20.112       -4.527       12.672        8.453        6.751      160.569       71.448       45.578        0.128        0.014       47.618        5.357        0.013      330.341       -2.350      871.812
11/24/2014  05:11:00      -35.520      -20.121       -1.074       16.718       10.732        6.878      279.493      115.168       47.308        0.105        0.022       40.824        4.449        0.012      330.318       -2.386      871.836
11/24/2014  05:12:00      -31.767      -10.020       -4.174       14.554        9.172        6.711      211.813       84.120       45.044        0.073        0.017       33.310        6.387        0.037      330.287       -2.438      871.852
11/24/2014  05:13:00      -21.378       -2.675       -4.679        5.253        5.222        5.561       27.589       27.274       30.921        0.029        0.004       21.545        1.677        0.006      330.324       -2.375      871.865
11/24/2014  05:14:00      -12.930        4.365       -2.453        6.776        4.691        5.396       45.921       22.005       29.114        0.014        0.005       13.647        3.816        0.078      330.329       -2.366      871.878
11/24/2014  05:15:00        4.738        7.880        3.849       21.690       12.335       10.712      470.475      152.141      114.745        0.042        0.037        9.195       13.340        2.105      330.425       -2.212      871.883
11/24/2014  05:16:00       36.535       31.041       22.954       16.730       12.199       13.964      279.907      148.823      194.990        0.172        0.031       47.941       10.563        0.049      330.484       -2.113      871.886
11/24/2014  05:17:00       24.740       22.677       14.621        8.090        6.679        8.213       65.455       44.607       67.450        0.076        0.009       33.560        2.606        0.006      330.509       -2.073      871.899
11/24/2014  05:18:00       30.624       20.784        9.773       11.374        9.601        8.358      129.364       92.180       69.854        0.088        0.015       37.011        7.362        0.040      330.513       -2.064      871.914
11/24/2014  05:19:00       31.567       17.519        2.992       12.438       10.723        7.853      154.697      114.993       61.666        0.082        0.017       36.103        6.055        0.028      330.490       -2.103      871.934
11/24/2014  05:20:00       29.519        7.749        4.214       15.330       13.218        8.884      235.013      174.729       78.928        0.072        0.024       30.519        8.419        0.076      330.505       -2.078      871.951
11/24/2014  05:21:00        6.579        7.572        7.578        9.395       11.293        7.995       88.259      127.526       63.924        0.022        0.014       10.031        5.745        0.328      330.488       -2.108      871.964
11/24/2014  05:22:00       -8.706        4.404       10.867        7.150        8.006        6.769       51.129       64.097       45.816        0.019        0.008        9.756        5.876        0.363      330.433       -2.196      871.984
11/24/2014  05:23:00       -3.686        9.763       19.085       11.398       11.517        8.510      129.903      132.653       72.414        0.040        0.017       10.436        6.269        0.361      330.459       -2.153      871.995
11/24/2014  05:24:00       31.792       18.121       22.811       18.105       11.615       12.917      327.781      134.914      166.860        0.124        0.031       36.594        8.450        0.053      330.564       -1.982      871.990
11/24/2014  05:25:00       24.493       13.326       16.145       19.950       13.455       15.113      397.999      181.028      228.412        0.092        0.040       27.883        9.845        0.125      330.593       -1.935      871.982
11/24/2014  05:26:00        5.501       10.744       18.540       11.464        8.180        9.286      131.420       66.917       86.228        0.039        0.014       12.070        6.855        0.323      330.553       -2.000      871.985
11/24/2014  05:27:00        1.531       -9.445       11.108        6.583       14.106        7.673       43.337      198.976       58.868        0.026        0.015        9.568        7.204        0.567      330.588       -1.942      871.977
11/24/2014  05:28:00       -3.129        3.964       18.376        6.509        7.726        4.786       42.370       59.699       22.906        0.024        0.006        5.050        4.444        0.774      330.531       -2.036      871.952
11/24/2014  05:29:00        1.481        6.488       19.308        8.434        8.371        6.024       71.139       70.069       36.283        0.030        0.009        6.655        3.824        0.330      330.485       -2.112      871.930
11/24/2014  05:30:00       11.754       17.915       16.823       19.352       10.913       10.009      374.492      119.092      100.170        0.067        0.030       21.427        5.296        0.061      330.470       -2.136      871.929
11/24/2014  05:31:00       47.905       36.294       23.893       26.932       13.537       12.231      725.342      183.253      149.608        0.262        0.053       60.101       10.051        0.028      330.497       -2.093      871.934
11/24/2014  05:32:00       62.145       50.614       28.250       24.111       24.371       20.646      581.335      593.964      426.277        0.441        0.080       80.148       16.754        0.044      330.481       -2.118      871.930
11/24/2014  05:33:00       68.777       32.165       21.377       30.511       19.876       24.380      930.915      395.057      594.387        0.407        0.096       75.927       20.258        0.071      330.459       -2.155      871.933
11/24/2014  05:34:00       82.109       60.792       34.871       24.362       14.974       19.444      593.496      224.211      378.058        0.642        0.060      102.164       11.777        0.013      330.403       -2.246      871.949
11/24/2014  05:35:00       83.792       49.453       23.449       27.457       16.926       19.680      753.910      286.504      387.304        0.572        0.071       97.297       14.445        0.022      330.374       -2.295      871.966
11/24/2014  05:36:00       93.288       55.557       23.425       22.088       15.171       20.820      487.890      230.160      433.470        0.674        0.058      108.579        8.874        0.007      330.388       -2.269      871.982
11/24/2014  05:37:00       70.473       56.642       36.658       17.368       12.910       18.968      301.661      166.674      359.793        0.517        0.041       90.414        9.163        0.010      330.395       -2.259      871.984
11/24/2014  05:38:00       58.989       41.900       39.771       28.110       22.560       18.197      790.199      508.949      331.124        0.422        0.082       72.355       12.228        0.029      330.360       -2.317      871.988
11/24/2014  05:39:00       60.374       28.749       25.015       29.599       24.786       21.873      876.081      614.346      478.407        0.353        0.098       66.870       17.252        0.067      330.369       -2.304      872.007
11/24/2014  05:40:00       94.667       47.639       13.873       23.428       25.873       16.883      548.864      669.390      285.030        0.646        0.075      105.977       10.529        0.010      330.400       -2.252      872.032
11/24/2014  05:41:00       79.320       55.922       26.538       22.156       18.116       22.278      490.877      328.172      496.327        0.572        0.066       97.051       15.039        0.024      330.401       -2.249      872.068
11/24/2014  05:42:00       83.310       54.749       24.818       22.934       15.366       25.587      525.947      236.111      654.705        0.599        0.071       99.689       14.520        0.021      330.411       -2.235      872.104
11/24/2014  05:43:00       84.232       40.848       23.232       25.534       24.254       23.141      651.993      588.260      535.525        0.554        0.089       93.614       15.500        0.027      330.391       -2.267      872.147
11/24/2014  05:44:00       79.878       53.317       32.705       21.159       14.120       21.077      447.721      199.368      444.240        0.569        0.055       96.037       12.401        0.017      330.328       -2.369      872.190
11/24/2014  05:45:00       93.238       55.930       27.930       24.642       15.179       15.426      607.240      230.398      237.949        0.684        0.054      108.727       11.481        0.011      330.375       -2.294      872.216
11/24/2014  05:46:00       91.830       54.688       21.734       30.064       15.439       21.953      903.858      238.375      481.919        0.676        0.081      106.881       16.328        0.023      330.396       -2.258      872.230
11/24/2014  05:47:00      100.456       55.149       17.895       19.357       13.307       16.395      374.677      177.085      268.812        0.714        0.041      114.598       10.164        0.008      330.398       -2.257      872.257
11/24/2014  05:48:00       94.853       55.915        4.791       18.865       17.555       15.187      355.884      308.169      230.645        0.652        0.045      110.107        6.683        0.004      330.326       -2.372      872.280
11/24/2014  05:49:00      108.578       57.303        7.273       26.481       21.566       19.329      701.253      465.077      373.608        0.833        0.077      122.771        9.537        0.006      330.335       -2.355      872.295
11/24/2014  05:50:00       83.270       58.395        1.957       23.189       26.253       16.764      537.709      689.199      281.028        0.593        0.075      101.705        7.278        0.005      330.295       -2.423      872.299
11/24/2014  05:51:00       93.174       65.926        4.822       18.948       21.171       17.691      359.031      448.217      312.965        0.709        0.056      114.139       13.593        0.014      330.287       -2.436      872.300
11/24/2014  05:52:00       65.216       31.175       -3.478       19.532       19.646       13.823      381.491      385.972      191.074        0.310        0.048       72.284       11.565        0.026      330.294       -2.425      872.290
11/24/2014  05:53:00       48.049       25.049        1.766       30.939       23.342       16.640      957.233      544.869      276.882        0.236        0.089       54.187       14.214        0.069      330.264       -2.474      872.291
11/24/2014  05:54:00       46.871       23.096        7.269       21.237       16.505       13.822      450.989      272.430      191.055        0.185        0.046       52.253        8.548        0.027      330.256       -2.487      872.281
11/24/2014  05:55:00       61.107       31.841        3.787       20.494       16.578       13.902      420.013      274.846      193.256        0.283        0.044       68.905        6.882        0.010      330.279       -2.449      872.271
11/24/2014  05:56:00       54.530       41.170       10.432       12.713       10.392       12.544      161.608      107.997      157.344        0.260        0.021       68.327        5.893        0.007      330.318       -2.384      872.265
11/24/2014  05:57:00       38.769       36.605        4.139       11.389        9.044        9.730      129.719       81.792       94.673        0.158        0.015       53.319        5.668        0.011      330.302       -2.411      872.283
11/24/2014  05:58:00       36.277       27.356        4.532       12.158       12.563        8.797      147.807      157.818       77.391        0.123        0.019       45.436        7.687        0.029      330.280       -2.447      872.298
11/24/2014  05:59:00       24.880       39.466       -4.934        8.025       11.895        8.263       64.400      141.487       68.272        0.124        0.014       46.653        5.801        0.015      330.268       -2.467      872.307
11/24/2014  06:00:00       47.206       37.777       -2.006       23.802       13.452       11.799      566.544      180.968      139.228        0.227        0.044       60.461        1.837        0.001      330.279       -2.450      872.313
11/24/2014  06:01:00       60.416       39.444        2.324       10.217        8.061        9.954      104.397       64.975       99.084        0.274        0.013       72.152        5.979        0.007      330.313       -2.394      872.319
11/24/2014  06:02:00       49.631       33.395       11.391       10.341        9.892        9.311      106.940       97.859       86.687        0.200        0.015       59.820        3.799        0.004      330.306       -2.405      872.329
11/24/2014  06:03:00       43.229       38.841       11.387        8.697        9.183       10.378       75.634       84.333      107.703        0.189        0.013       58.115        6.924        0.014      330.313       -2.392      872.321
11/24/2014  06:04:00       33.322       26.994        5.192       12.113        9.820        9.691      146.713       96.429       93.914        0.110        0.017       42.884        5.253        0.015      330.304       -2.408      872.313
11/24/2014  06:05:00       33.878       22.533       10.799       11.077        9.164        9.105      122.705       83.982       82.903        0.103        0.014       40.687        8.518        0.044      330.289       -2.434      872.305
11/24/2014  06:06:00       25.233       31.118        5.738       11.225        7.986        7.402      125.997       63.771       54.787        0.094        0.012       40.063        2.289        0.003      330.380       -2.286      872.297
11/24/2014  06:07:00       11.032       26.789        1.121       13.246        6.468        6.555      175.468       41.838       42.971        0.055        0.013       28.972        2.859        0.010      330.440       -2.188      872.310
11/24/2014  06:08:00        0.248       21.831       -1.861       11.944        5.909        4.263      142.661       34.922       18.177        0.034        0.010       21.833        3.701        0.029      330.419       -2.220      872.314
11/24/2014  06:09:00       -5.193       12.273        0.706       10.697        5.853        5.595      114.429       34.260       31.308        0.018        0.009       13.327        3.817        0.082      330.408       -2.241      872.322
11/24/2014  06:10:00      -17.039       12.367        0.548        9.732        4.833        3.673       94.713       23.355       13.494        0.029        0.007       21.054        2.820        0.018      330.405       -2.245      872.326
11/24/2014  06:11:00      -38.945       10.122       -3.709       11.840        6.655        5.847      140.192       44.290       34.185        0.093        0.011       40.239        6.945        0.030      330.310       -2.399      872.336
11/24/2014  06:12:00      -69.674       -3.684       -7.431       12.706       10.301        8.386      161.449      106.121       70.319        0.263        0.017       69.771        7.396        0.011      330.151       -2.662      872.346
11/24/2014  06:13:00      -83.361       -0.907       -8.438       14.534       11.893       10.604      211.244      141.442      112.441        0.374        0.023       83.366        6.497        0.006      330.127       -2.699      872.352
11/24/2014  06:14:00      -60.715       -4.453       -9.667       21.694       10.467       12.801      470.613      109.563      163.877        0.227        0.037       60.878        9.245        0.023      329.984       -2.933      872.350
11/24/2014  06:15:00      -39.646       -5.831       -8.580       16.329        9.387        7.857      266.652       88.116       61.739        0.105        0.021       40.072        6.103        0.023      329.912       -3.049      872.358
11/24/2014  06:16:00      -18.839        0.004       -5.456        7.930       19.828        7.208       62.888      393.161       51.962        0.045        0.025       18.839        6.577        0.122      330.038       -2.846      872.367
11/24/2014  06:17:00      -21.477      -14.398       -2.201       18.181       10.168        9.092      330.559      103.383       82.664        0.059        0.026       25.857       10.782        0.174      330.164       -2.640      872.380
11/24/2014  06:18:00      -49.809      -21.038       -3.691        8.614        7.032        5.621       74.202       49.451       31.591        0.155        0.008       54.070        4.410        0.007      330.084       -2.769      872.388
11/24/2014  06:19:00      -54.438      -14.479       -6.144       11.193        8.943        6.684      125.292       79.978       44.670        0.173        0.012       56.330        2.658        0.002      330.118       -2.715      872.388
11/24/2014  06:20:00      -41.298       -5.475       -7.776        8.488        7.744        7.219       72.044       59.974       52.121        0.099        0.009       41.660        3.230        0.006      330.084       -2.770      872.387
11/24/2014  06:21:00      -46.367       -7.392      -10.716        7.203        6.833        6.065       51.879       46.692       36.783        0.123        0.007       46.953        3.209        0.005      329.967       -2.959      872.398
11/24/2014  06:22:00      -52.234       -7.298       -9.311       11.919        8.309        8.878      142.051       69.035       78.828        0.158        0.014       52.741        4.907        0.009      329.879       -3.106      872.408
11/24/2014  06:23:00      -61.740       -4.505      -13.436       18.753        9.280        9.988      351.677       86.124       99.765        0.228        0.027       61.904        5.394        0.008      329.833       -3.181      872.415
11/24/2014  06:24:00      -81.527       -9.567      -15.097       14.088       10.515       10.000      198.480      110.563      100.004        0.369        0.020       82.086        8.467        0.011      329.806       -3.224      872.433
11/24/2014  06:25:00      -80.072       -4.661      -11.795       10.095       10.706        8.389      101.904      114.622       70.376        0.343        0.014       80.208        4.565        0.003      329.779       -3.269      872.449
11/24/2014  06:26:00      -69.751      -11.851      -16.273       10.668       11.927        8.323      113.798      142.259       69.269        0.280        0.016       70.751        5.010        0.005      329.826       -3.192      872.477
11/24/2014  06:27:00      -88.977      -20.411      -19.348       13.270       11.691        7.772      176.095      136.673       60.408        0.454        0.019       91.288        4.022        0.002      329.749       -3.318      872.504
11/24/2014  06:28:00      -81.621      -13.754       -9.538       30.084       23.939       18.636      905.034      573.095      347.284        0.438        0.091       82.772       15.719        0.036      329.712       -3.378      872.537
11/24/2014  06:29:00      -56.691      -11.781        2.230       42.924       30.045       19.579     1842.453      902.730      383.343        0.324        0.156       57.902       23.620        0.166      329.749       -3.316      872.549
11/24/2014  06:30:00      -41.626        8.544      -12.553       38.479       25.824       24.046     1480.665      666.897      578.195        0.234        0.136       42.494       22.058        0.269      329.702       -3.392      872.548
11/24/2014  06:31:00      -79.487       22.167      -15.333       37.621       35.304       26.291     1415.327     1246.344      691.218        0.520        0.168       82.520       20.165        0.060      329.712       -3.378      872.531
11/24/2014  06:32:00      -84.656       17.190      -10.271       47.718       42.487       20.756     2276.980     1805.166      430.832        0.604        0.226       86.384       18.667        0.047      329.808       -3.222      872.515
11/24/2014  06:33:00     -110.909      -12.678       -8.942       45.873       40.442       23.983     2104.347     1635.522      575.175        0.843        0.216      111.631       23.674        0.045      329.725       -3.357      872.489
11/24/2014  06:34:00      -86.292      -28.508       -9.324       36.205       37.573       21.905     1310.781     1411.756      479.822        0.577        0.160       90.879       18.167        0.040      329.741       -3.331      872.464
11/24/2014  06:35:00      -86.876       -1.619      -10.320       37.874       33.284       20.698     1434.448     1107.834      428.387        0.531        0.149       86.891       14.058        0.026      329.756       -3.306      872.458
11/24/2014  06:36:00      -86.392       13.227       -4.972       48.972       29.319       26.648     2398.218      859.596      710.118        0.581        0.198       87.399       25.186        0.083      329.811       -3.216      872.466
11/24/2014  06:37:00      -84.788        3.978       -6.617       52.455       37.208       23.697     2751.501     1384.427      561.552        0.597        0.235       84.881       26.966        0.101      329.769       -3.285      872.492
11/24/2014  06:38:00      -34.485       -4.480       -0.499       31.113       20.723       18.957      968.008      429.455      359.377        0.148        0.088       34.774       13.733        0.156      329.786       -3.257      872.521
11/24/2014  06:39:00      -59.049      -23.547       -6.757       25.385       19.889       18.224      644.374      395.581      332.105        0.273        0.069       63.571       11.094        0.030      329.787       -3.255      872.548
11/24/2014  06:40:00      -67.146      -33.390       -5.709       32.029       30.412       16.393     1025.852      924.901      268.714        0.394        0.111       74.989        9.753        0.017      329.790       -3.251      872.565
11/24/2014  06:41:00      -72.513      -21.238       -5.416       27.322       22.691       15.608      746.478      514.870      243.609        0.362        0.075       75.559       13.190        0.030      329.780       -3.266      872.567
11/24/2014  06:42:00      -96.041      -23.480       -8.278       17.575       16.514       14.683      308.881      272.713      215.585        0.532        0.040       98.869        6.621        0.004      329.756       -3.306      872.563
11/24/2014  06:43:00      -96.190      -41.841       -8.587       14.992       16.859       13.347      224.753      284.235      178.156        0.588        0.034      104.896        5.653        0.003      329.780       -3.267      872.550
11/24/2014  06:44:00     -117.586      -31.485      -14.641       22.705       21.511       13.108      515.525      462.725      171.822        0.809        0.058      121.728       10.616        0.008      329.775       -3.275      872.543
11/24/2014  06:45:00     -123.287      -21.462      -10.187       27.575       22.953       18.451      760.398      526.833      340.437        0.870        0.081      125.141       13.969        0.012      329.734       -3.343      872.544
11/24/2014  06:46:00     -116.515      -23.016       -6.110       31.098       32.495       18.713      967.101     1055.913      350.176        0.826        0.119      118.767       17.068        0.021      329.688       -3.418      872.552
11/24/2014  06:47:00     -129.072        2.278       -7.526       47.472       28.535       28.438     2253.574      814.231      808.728        1.030        0.194      129.092       28.316        0.048      329.660       -3.465      872.568
11/24/2014  06:48:00     -139.650       11.571      -12.987       43.101       35.359       21.966     1857.722     1250.291      482.520        1.170        0.180      140.129       21.686        0.024      329.648       -3.484      872.591
11/24/2014  06:49:00     -176.386       17.197      -13.999       34.187       32.197       25.394     1168.763     1036.619      644.861        1.723        0.143      177.222       21.466        0.015      329.751       -3.315      872.618
11/24/2014  06:50:00     -188.991       49.069      -15.066       32.247       24.169       16.536     1039.887      584.164      273.446        2.012        0.095      195.257       12.842        0.004      329.833       -3.181      872.639
11/24/2014  06:51:00     -184.921       38.675      -16.731       26.222       29.017       18.648      687.613      841.977      347.748        1.892        0.094      188.922       13.546        0.005      329.853       -3.148      872.648
11/24/2014  06:52:00     -124.604        3.259      -15.343       42.125       34.759       19.343     1774.532     1208.196      374.169        0.956        0.168      124.647       19.561        0.025      329.803       -3.230      872.643
11/24/2014  06:53:00      -90.085      -34.759       -4.390       42.809       36.206       20.727     1832.580     1310.862      429.606        0.646        0.179       96.558       21.026        0.047      329.821       -3.201      872.645
11/24/2014  06:54:00      -88.286      -46.184       -4.910       26.662       26.020       23.516      710.836      677.018      553.006        0.595        0.097       99.636       15.868        0.025      329.849       -3.155      872.657
11/24/2014  06:55:00     -128.681       24.024       -9.020       55.412       31.124       28.887     3070.483      968.709      834.455        1.104        0.244      130.905       26.833        0.042      329.787       -3.256      872.687
11/24/2014  06:56:00     -104.245       12.272       -7.539       48.648       39.659       22.318     2366.655     1572.874      498.076        0.776        0.222      104.964       20.255        0.037      329.715       -3.373      872.709
11/24/2014  06:57:00     -113.360        1.563      -12.496       33.876       35.297       21.328     1147.554     1245.869      454.892        0.793        0.142      113.371       15.587        0.019      329.686       -3.422      872.734
11/24/2014  06:58:00      -87.010      -26.603      -10.881       39.065       32.743       19.768     1526.086     1072.102      390.757        0.569        0.149       90.986       14.222        0.024      329.670       -3.447      872.765
11/24/2014  06:59:00      -50.525      -10.373        0.108       22.555       23.617       18.257      508.738      557.751      333.325        0.203        0.070       51.579       11.670        0.051      329.677       -3.436      872.784
11/24/2014  07:00:00        1.521      -34.262      -13.253       26.418       20.069       15.889      697.934      402.771      252.457        0.135        0.068       34.296        2.624        0.006      329.902       -3.068      872.811
11/24/2014  07:01:00      -44.213      -41.202        0.560       39.334       22.601       18.677     1547.129      510.815      348.813        0.303        0.120       60.435        7.567        0.016      329.806       -3.225      872.833
11/24/2014  07:02:00      -71.962      -28.604       -5.789       18.632       17.505       11.933      347.168      306.409      142.387        0.341        0.040       77.438        8.297        0.011      329.824       -3.193      872.843
11/24/2014  07:03:00      -61.553      -23.149      -11.373       18.878       13.685       10.338      356.391      187.284      106.864        0.255        0.033       65.762        7.753        0.014      329.858       -3.140      872.848
11/24/2014  07:04:00      -51.832      -30.330      -11.119       17.883       17.893       12.463      319.784      320.153      155.320        0.226        0.040       60.054        8.381        0.019      329.956       -2.980      872.855
11/24/2014  07:05:00      -17.761      -26.407        0.488       17.781       12.623       12.871      316.177      159.336      165.673        0.083        0.032       31.824        1.932        0.004      329.918       -3.042      872.862
11/24/2014  07:06:00      -32.448      -17.393       -8.237       10.237        9.532        6.993      104.794       90.856       48.897        0.083        0.012       36.815        5.074        0.019      329.966       -2.962      872.875
11/24/2014  07:07:00      -47.317      -11.377      -11.935        7.644       10.843        5.746       58.430      117.562       33.013        0.136        0.010       48.666        5.011        0.011      330.043       -2.837      872.904
11/24/2014  07:08:00      -54.806        0.150       -7.664        9.849        9.265        6.676       97.002       85.835       44.566        0.164        0.011       54.806        1.985        0.001      330.038       -2.844      872.936
11/24/2014  07:09:00      -58.514       -4.203      -13.849       14.181        5.867        8.320      201.110       34.416       69.217        0.197        0.015       58.665        7.796        0.018      329.973       -2.951      872.937
11/24/2014  07:10:00      -76.579      -15.119      -13.680        9.967        9.460        8.217       99.344       89.483       67.517        0.327        0.013       78.057        2.578        0.001      330.019       -2.877      872.943
11/24/2014  07:11:00      -86.712      -20.306      -10.227       10.663       10.510        9.063      113.697      110.468       82.141        0.417        0.015       89.058        6.659        0.006      329.964       -2.967      872.957
11/24/2014  07:12:00      -76.703      -17.752      -14.181       10.000       10.536        7.479      100.001      111.003       55.934        0.333        0.013       78.731        4.945        0.004      329.936       -3.011      872.981
11/24/2014  07:13:00      -79.301      -15.748      -12.466       11.347        9.099        8.262      128.756       82.798       68.259        0.349        0.014       80.850        6.326        0.006      329.946       -2.995      873.004
11/24/2014  07:14:00      -71.271      -20.899       -7.491       17.572       13.944       11.623      308.785      194.442      135.086        0.311        0.032       74.272        9.037        0.015      329.954       -2.981      873.025
11/24/2014  07:15:00      -80.275      -18.335       -6.890       16.478       13.071       12.712      271.510      170.839      161.587        0.372        0.030       82.343       11.275        0.019      329.932       -3.018      873.047
11/24/2014  07:16:00      -81.858      -31.132       -8.728       22.144       21.401       13.070      490.350      457.995      170.815        0.443        0.056       87.578        6.900        0.006      329.991       -2.922      873.068
11/24/2014  07:17:00      -81.393      -18.299       -3.106       29.107       12.144       13.443      847.238      147.469      180.723        0.407        0.059       83.424       16.354        0.038      329.981       -2.940      873.091
11/24/2014  07:18:00      -53.209       -9.532        1.328       25.331       17.762       12.277      641.650      315.494      150.729        0.202        0.055       54.056       14.018        0.067      329.987       -2.927      873.102
11/24/2014  07:19:00      -89.895       -1.513       -5.683       14.742       10.390       10.848      217.335      107.962      117.678        0.428        0.022       89.908        9.125        0.010      330.007       -2.895      873.106
11/24/2014  07:20:00      -63.328       -1.724       -5.134       39.509       12.643       14.080     1560.923      159.852      198.242        0.298        0.096       63.351       18.371        0.084      330.074       -2.786      873.108
11/24/2014  07:21:00      -74.402      -22.390        3.340       25.465       20.296       18.210      648.480      411.938      331.588        0.372        0.070       77.698       16.498        0.045      330.002       -2.903      873.106
11/24/2014  07:22:00      -45.645      -16.306        7.869       21.666       18.680       15.502      469.396      348.942      240.321        0.173        0.053       48.470       12.808        0.070      330.031       -2.857      873.104
11/24/2014  07:23:00      -46.344      -12.034        5.094       21.728       15.521       11.829      472.109      240.916      139.925        0.159        0.043       47.881       12.112        0.064      330.038       -2.845      873.089
11/24/2014  07:24:00      -42.184      -20.973        3.178       21.323       15.147       10.435      454.679      229.429      108.893        0.151        0.040       47.111        9.814        0.043      330.230       -2.530      873.072
11/24/2014  07:25:00      -59.315      -32.063       -4.515       14.747       12.438        7.618      217.465      154.705       58.030        0.250        0.022       67.426        4.733        0.005      330.306       -2.405      873.059
11/24/2014  07:26:00      -48.615      -34.762       -3.618       18.178       14.660        9.669      330.445      214.930       93.499        0.211        0.032       59.765        7.814        0.017      330.309       -2.400      873.062
11/24/2014  07:27:00      -37.618      -24.478       -3.951       21.818       13.541       11.432      476.025      183.350      130.702        0.141        0.040       44.881       10.268        0.052      330.285       -2.439      873.065
11/24/2014  07:28:00      -58.883      -33.128        1.447       30.017       16.617       13.136      901.007      276.130      172.567        0.296        0.067       67.563       15.074        0.050      330.230       -2.531      873.059
11/24/2014  07:29:00      -95.855      -57.538        0.564       43.021       34.116       19.612     1850.820     1163.920      384.619        0.795        0.170      111.798       19.884        0.032      330.268       -2.470      873.066
11/24/2014  07:30:00     -136.524      -98.297       -9.439       40.134       31.835       23.573     1610.701     1013.481      555.677        1.578        0.159      168.229       17.521        0.011      330.310       -2.398      873.073
11/24/2014  07:31:00     -118.303      -56.246        5.414       33.015       31.791       18.429     1090.008     1010.648      339.614        0.981        0.122      130.993       11.755        0.008      330.345       -2.341      873.082
11/24/2014  07:32:00      -71.124      -48.502        5.790       52.934       29.719       27.159     2802.044      883.229      737.609        0.593        0.221       86.087       29.037        0.114      330.381       -2.282      873.096
11/24/2014  07:33:00      -46.680      -39.226        1.422       31.949       23.055       17.024     1020.754      531.526      289.812        0.278        0.092       60.973       16.821        0.076      330.382       -2.281      873.103
11/24/2014  07:34:00      -49.315      -26.381        0.662       19.937       16.745       13.928      397.473      280.397      193.983        0.200        0.044       55.928        9.102        0.026      330.307       -2.404      873.124
11/24/2014  07:35:00      -56.251        2.048        0.911       25.600       18.347       15.005      655.384      336.602      225.154        0.219        0.061       56.288       14.172        0.063      330.218       -2.548      873.143
11/24/2014  07:36:00      -59.802      -16.082       -5.789       31.909       18.078       14.759     1018.159      326.810      217.842        0.272        0.078       61.926       17.495        0.080      330.251       -2.496      873.150
11/24/2014  07:37:00      -72.555      -40.632      -10.359       22.128       19.480       11.437      489.639      379.462      130.811        0.401        0.050       83.158        7.772        0.009      330.266       -2.471      873.149
11/24/2014  07:38:00      -65.022      -40.270       -5.115       31.261       19.121       13.815      977.277      365.625      190.857        0.370        0.077       76.483       15.391        0.040      330.288       -2.436      873.160
11/24/2014  07:39:00      -67.970      -38.785       -3.935       22.785       27.717       11.040      519.150      768.211      121.873        0.377        0.070       78.257        6.877        0.008      330.309       -2.400      873.169
11/24/2014  07:40:00      -49.420      -16.000        4.310       23.926       21.003       15.819      572.442      441.114      250.254        0.199        0.063       51.946       15.965        0.094      330.330       -2.366      873.182
11/24/2014  07:41:00      -45.017      -32.640        1.556       22.197       24.827       14.938      492.727      616.379      223.149        0.221        0.067       55.605       14.365        0.067      330.327       -2.372      873.195
11/24/2014  07:42:00      -85.018      -34.666       -5.617       23.089       19.972       10.691      533.086      398.861      114.292        0.475        0.052       91.813       10.349        0.013      330.311       -2.397      873.211
11/24/2014  07:43:00      -61.753      -38.560       -7.542       27.318       17.021       12.317      746.289      289.728      151.699        0.327        0.059       72.803       10.086        0.019      330.338       -2.353      873.231
11/24/2014  07:44:00      -56.434      -35.137       -4.931       16.455       21.581       10.436      270.770      465.729      108.906        0.264        0.042       66.478        8.595        0.017      330.336       -2.355      873.235
11/24/2014  07:45:00      -48.625      -47.102       -2.566       21.409       20.885       11.173      458.338      436.189      124.828        0.280        0.051       67.697       10.547        0.024      330.358       -2.320      873.251
11/24/2014  07:46:00      -32.236      -36.321       -0.737       18.161       12.184       11.274      329.839      148.438      127.106        0.148        0.030       48.564        9.316        0.037      330.378       -2.288      873.265
11/24/2014  07:47:00      -15.215       -6.556       -4.009        8.582        4.837        4.569       73.646       23.395       20.872        0.020        0.006       16.567        4.059        0.060      330.414       -2.229      873.286
11/24/2014  07:48:00      -25.715        0.577       -5.530        5.609        7.463        6.820       31.466       55.698       46.514        0.041        0.007       25.722        2.201        0.007      330.457       -2.161      873.306
11/24/2014  07:49:00      -19.034        2.794       -9.336        6.306        9.375        4.826       39.763       87.889       23.286        0.030        0.008       19.238        3.721        0.037      330.492       -2.098      873.329
11/24/2014  07:50:00       -0.976        9.227        1.483        8.424       10.511        9.926       70.969      110.491       98.530        0.018        0.014        9.278        5.027        0.294      330.544       -2.015      873.353
11/24/2014  07:51:00       11.819       22.572        0.322        7.855        6.966        9.424       61.697       48.524       88.807        0.042        0.010       25.479        5.432        0.045      330.573       -1.968      873.368
11/24/2014  07:52:00       49.063       33.637        4.516       14.740       12.748        9.509      217.254      162.500       90.427        0.201        0.024       59.486        8.206        0.019      330.606       -1.914      873.395
11/24/2014  07:53:00       52.055       49.846       16.363       27.855       25.775       26.987      775.898      664.373      728.307        0.381        0.108       72.071       13.432        0.035      330.603       -1.919      873.420
11/24/2014  07:54:00       34.310       58.794       29.748       25.438       26.069       28.039      647.100      679.604      786.185        0.382        0.106       68.073       14.969        0.048      330.594       -1.933      873.432
11/24/2014  07:55:00        0.863       55.144       50.762       13.097       27.016       22.720      171.526      729.875      516.211        0.352        0.071       55.151       13.087        0.056      330.691       -1.776      873.447
11/24/2014  07:56:00       38.681       54.399       33.996       34.815       24.137       26.110     1212.050      582.592      681.729        0.404        0.124       66.749       24.284        0.132      330.706       -1.751      873.437
11/24/2014  07:57:00       45.286       67.526       47.317       34.468       18.182       23.357     1188.042      330.584      545.527        0.546        0.103       81.305       20.452        0.063      330.667       -1.814      873.462
11/24/2014  07:58:00       50.468       68.739       48.510       35.774       19.305       26.909     1279.780      372.683      724.102        0.600        0.119       85.276       21.287        0.062      330.652       -1.839      873.482
11/24/2014  07:59:00       45.290       52.923       45.929       40.570       27.110       19.324     1645.920      734.929      373.420        0.486        0.138       69.656       18.310        0.069      330.727       -1.716      873.518
11/24/2014  08:00:00       62.540       42.290       29.388       39.120       29.044       33.006     1530.412      843.544     1089.417        0.501        0.173       75.496       25.069        0.110      330.753       -1.672      873.529
11/24/2014  08:01:00       56.955       37.341       14.276       23.185       35.769       20.701      537.548     1279.439      428.551        0.354        0.112       68.105       14.559        0.046      330.724       -1.720      873.551
11/24/2014  08:02:00      101.004       67.914        0.904       17.806       16.405       24.004      317.069      269.119      576.208        0.799        0.058      121.713       11.551        0.009      330.636       -1.864      873.568
11/24/2014  08:03:00       99.165       57.368       12.984       25.206       25.133       22.169      635.365      631.690      491.449        0.753        0.088      114.564       10.542        0.008      330.723       -1.722      873.593
11/24/2014  08:04:00       80.318       86.773       55.741       36.840       39.041       31.115     1357.183     1524.226      968.117        1.047        0.192      118.239       23.661        0.040      330.812       -1.576      873.606
11/24/2014  08:05:00       56.760       36.526       57.735       41.097       43.937       27.354     1688.955     1930.493      748.238        0.613        0.218       67.497       26.921        0.159      330.874       -1.472      873.613
11/24/2014  08:06:00       59.037       56.744       35.612       30.087       30.538       24.944      905.235      932.546      622.222        0.522        0.123       81.886       17.817        0.047      330.913       -1.411      873.617
11/24/2014  08:07:00       57.090       48.445       50.315       35.618       31.642       28.537     1268.608     1001.226      814.370        0.561        0.154       74.874       17.932        0.057      331.024       -1.229      873.630
11/24/2014  08:08:00       38.074       45.825       56.494       26.339       23.901       18.793      693.736      571.269      353.167        0.418        0.081       59.578       12.647        0.045      331.089       -1.121      873.645
11/24/2014  08:09:00        6.478       52.579       69.197       24.118       37.961       21.058      581.664     1441.045      443.449        0.503        0.123       52.976       23.304        0.194      331.199       -0.941      873.657
11/24/2014  08:10:00       64.439       82.067       67.369       40.345       27.007       25.855     1627.735      729.382      668.465        0.923        0.151      104.343       17.755        0.029      331.019       -1.235      873.673
11/24/2014  08:11:00       96.625       71.513       37.447       22.544       27.541       31.652      508.221      758.531     1001.820        0.906        0.113      120.210       25.904        0.046      330.953       -1.345      873.695
11/24/2014  08:12:00      130.469       68.093       35.227       36.488       31.082       33.058     1331.409      966.093     1092.835        1.314        0.170      147.170       22.738        0.024      330.964       -1.326      873.716
11/24/2014  08:13:00       91.681       75.042       47.097       42.512       26.862       38.009     1807.301      721.569     1444.683        1.011        0.199      118.477       26.405        0.050      331.016       -1.241      873.729
11/24/2014  08:14:00       46.309       88.392       79.884       35.711       34.066       28.220     1275.271     1160.517      796.344        0.979        0.162       99.788       25.114        0.063      331.076       -1.142      873.740
11/24/2014  08:15:00       53.724       72.649       38.160       33.712       33.136       33.958     1136.486     1097.985     1153.135        0.650        0.169       90.356       20.040        0.049      331.135       -1.046      873.740
11/24/2014  08:16:00       59.349       41.253       26.190       58.798       39.852       41.370     3457.257     1588.195     1711.471        0.633        0.338       72.279       38.949        0.290      331.299       -0.775      873.738
11/24/2014  08:17:00      116.667       55.824       -4.678       39.118       37.570       33.569     1530.217     1411.518     1126.880        1.041        0.203      129.335       20.820        0.026      331.056       -1.175      873.745
11/24/2014  08:18:00      142.269      108.022       -7.423       32.544       30.940       27.769     1059.126      957.291      771.128        1.738        0.139      178.632       12.213        0.005      330.904       -1.424      873.757
11/24/2014  08:19:00      125.714      101.564        0.062       41.921       29.863       25.533     1757.344      891.802      651.948        1.471        0.165      161.615       16.857        0.011      330.944       -1.359      873.772
11/24/2014  08:20:00       33.412       73.372       61.796       40.417       40.962       41.867     1633.556     1677.871     1752.836        0.769        0.253       80.622       27.605        0.117      331.341       -0.706      873.782
11/24/2014  08:21:00       12.617       42.513       31.803       28.763       34.580       38.931      827.324     1195.798     1515.658        0.326        0.177       44.346       19.346        0.190      331.405       -0.601      873.792
11/24/2014  08:22:00      122.657       87.480       21.040       29.647       31.292       31.357      878.933      979.208      983.288        1.299        0.142      150.657       18.393        0.015      331.076       -1.141      873.797
11/24/2014  08:23:00      101.861       82.231       -2.294       24.298       22.809       18.915      590.382      520.235      357.784        0.931        0.073      130.910       10.838        0.007      331.126       -1.061      873.793
11/24/2014  08:24:00       33.121       31.824       49.639       32.815       31.250       25.035     1076.824      976.582      626.738        0.363        0.134       45.932       11.481        0.062      331.483       -0.471      873.791
11/24/2014  08:25:00        8.480       47.036       61.717       33.287       40.894       27.057     1108.006     1672.333      732.057        0.480        0.176       47.795       28.897        0.366      331.506       -0.434      873.796
11/24/2014  08:26:00       99.718       70.611       14.820       33.442       31.490       27.586     1118.399      991.614      760.986        0.901        0.144      122.187       13.892        0.013      331.232       -0.885      873.813
11/24/2014  08:27:00       94.866       58.643        0.363       30.801       30.277       25.961      948.728      916.708      673.959        0.749        0.127      111.528       17.885        0.026      331.193       -0.950      873.832
11/24/2014  08:28:00       79.285       69.888        1.355       38.890       35.710       29.866     1512.396     1275.179      891.971        0.743        0.184      105.690       13.319        0.016      331.320       -0.742      873.844
11/24/2014  08:29:00       58.448       57.759       27.054       46.292       39.169       34.055     2142.931     1534.214     1159.767        0.616        0.242       82.172       20.142        0.060      331.501       -0.444      873.854
11/24/2014  08:30:00       52.169       42.496        5.367       43.825       36.529       25.857     1920.622     1334.351      668.609        0.424        0.196       67.287       25.342        0.142      331.422       -0.573      873.873
11/24/2014  08:31:00        9.322       39.359       42.471       21.201       24.913       16.634      449.471      620.646      276.675        0.239        0.067       40.447        7.364        0.033      331.805        0.057      873.877
11/24/2014  08:32:00       31.582       47.481       67.853       39.170       33.243       19.429     1534.314     1105.078      377.503        0.544        0.151       57.025       16.247        0.081      331.673       -0.160      873.887
11/24/2014  08:33:00       85.046       66.573       28.719       45.514       24.926       34.549     2071.481      621.298     1193.644        0.819        0.194      108.003       30.221        0.078      331.347       -0.695      873.897
11/24/2014  08:34:00       75.569       15.939       15.268       32.250       20.514       29.999     1040.093      420.841      899.937        0.428        0.118       77.232       10.939        0.020      331.419       -0.579      873.907
11/24/2014  08:35:00       17.067       60.225       58.291       27.509       36.129       29.325      756.733     1305.336      859.981        0.512        0.146       62.596       24.777        0.157      331.673       -0.160      873.908
11/24/2014  08:36:00       64.906       70.442       48.321       28.414       26.146       27.515      807.329      683.639      757.072        0.688        0.112       95.785       16.969        0.031      331.508       -0.434      873.914
11/24/2014  08:37:00       37.017       55.584       17.116       34.614       32.457       30.030     1198.157     1053.425      901.824        0.395        0.158       66.782       25.064        0.141      331.496       -0.452      873.923
11/24/2014  08:38:00       66.463       40.337       14.481       39.487       28.070       33.280     1559.256      787.914     1107.544        0.485        0.173       77.745       17.725        0.052      331.644       -0.206      873.922
11/24/2014  08:39:00       62.010       63.373       54.341       50.830       32.756       37.684     2583.721     1072.956     1420.067        0.794        0.254       88.664       27.792        0.098      331.726       -0.073      873.933
11/24/2014  08:40:00       14.756       37.520       37.454       25.635       25.609       19.054      657.149      655.811      363.059        0.235        0.084       40.317        6.333        0.025      332.005        0.386      873.950
11/24/2014  08:41:00      -18.418       -1.179       22.536       24.160       22.056       21.631      583.699      486.471      467.921        0.119        0.077       18.455       16.306        0.781      332.186        0.686      873.969
11/24/2014  08:42:00       29.815       30.494       20.251       30.659       27.006       21.282      939.981      729.297      452.913        0.218        0.106       42.648       12.981        0.093      332.121        0.579      873.980
11/24/2014  08:43:00       42.790       42.671       23.356       34.839       23.529       23.749     1213.778      553.633      564.016        0.326        0.117       60.430       11.767        0.038      332.066        0.488      873.984
11/24/2014  08:44:00       55.477       17.891      -10.004       24.829       26.647       18.556      616.503      710.074      344.341        0.258        0.084       58.291       16.403        0.079      331.885        0.188      873.980
11/24/2014  08:45:00        2.955        8.864       11.968       19.062       20.866       16.929      363.370      435.397      286.592        0.066        0.054        9.344       13.047        1.950      332.257        0.803      873.967
11/24/2014  08:46:00       -8.510       19.324        9.775       14.566       24.200       16.119      212.172      585.620      259.830        0.080        0.053       21.115        6.892        0.107      332.234        0.764      873.958
11/24/2014  08:47:00       -5.884       44.425        1.782        9.716       18.202       19.236       94.410      331.299      370.022        0.140        0.040       44.813       12.284        0.075      332.092        0.530      873.958
11/24/2014  08:48:00       -5.866       28.872        7.839       15.212       25.452       20.208      231.398      647.827      408.358        0.111        0.064       29.462       17.680        0.360      332.263        0.814      873.961
11/24/2014  08:49:00       -8.389        7.410       10.336       18.945       15.810       16.058      358.900      249.955      257.855        0.055        0.043       11.192        6.411        0.328      332.276        0.832      873.979
11/24/2014  08:50:00      -24.953       -2.964        9.044       16.191        9.111       13.073      262.142       83.013      170.901        0.061        0.026       25.128       11.746        0.218      332.237        0.768      874.001
11/24/2014  08:51:00      -31.116       -1.869        0.127       14.700       19.385       13.661      216.081      375.785      186.626        0.087        0.039       31.172        9.123        0.086      332.183        0.680      874.020
11/24/2014  08:52:00      -30.718      -36.867        3.853       14.297       14.749       10.600      204.414      217.524      112.364        0.143        0.027       47.988        3.412        0.005      331.947        0.292      874.031
11/24/2014  08:53:00      -36.869      -13.378       -2.791       10.958       15.865        9.378      120.068      251.690       87.954        0.100        0.023       39.221        7.780        0.039      331.972        0.332      874.041
11/24/2014  08:54:00      -29.522       -6.862       -1.384        9.836       13.400        5.708       96.744      179.559       32.579        0.061        0.015       30.309        2.845        0.009      332.044        0.451      874.050
11/24/2014  08:55:00      -13.717      -20.152       -1.791       14.643       20.092       11.567      214.432      403.692      133.785        0.067        0.038       24.378        7.272        0.089      332.196        0.702      874.052
11/24/2014  08:56:00       -3.534        7.028        9.090       16.722       12.431       13.564      279.612      154.537      183.975        0.038        0.031        7.867       11.265        2.051      332.578        1.333      874.053
11/24/2014  08:57:00       -5.759       19.844       57.226        8.763       19.496       14.854       76.783      380.098      220.631        0.219        0.034       20.663       13.373        0.419      332.811        1.718      874.040
11/24/2014  08:58:00       21.455       41.655       48.539       34.425       37.655       22.421     1185.081     1417.900      502.702        0.383        0.155       46.855       22.946        0.240      332.582        1.337      874.036
11/24/2014  08:59:00        0.997      -39.831       28.058       47.976       57.686       27.288     2301.651     3327.694      744.661        0.437        0.319       39.844       21.345        0.287      332.571        1.320      874.056
11/24/2014  09:00:00        8.500       -3.022       27.790       46.059       68.916       39.811     2121.449     4749.433     1584.877        0.465        0.423        9.021       43.838       23.613      332.661        1.470      874.060
11/24/2014  09:01:00       50.769       73.092       84.936       48.177       41.953       20.752     2320.995     1760.078      430.640        0.982        0.226       88.994       18.912        0.045      332.351        0.957      874.061
11/24/2014  09:02:00       53.963       67.555       66.390       34.376       24.549       20.232     1181.689      602.637      409.320        0.704        0.110       86.462        6.214        0.005      332.316        0.899      874.062
11/24/2014  09:03:00       20.587       54.875       68.147       34.555       39.329       27.073     1194.036     1546.746      732.930        0.578        0.174       58.609       21.553        0.135      332.602        1.372      874.055
11/24/2014  09:04:00       66.272       87.661       83.714       55.061       55.107       48.433     3031.765     3036.799     2345.775        1.375        0.421      109.893       48.732        0.197      332.321        0.908      874.040
11/24/2014  09:05:00       87.248       70.831       29.965       26.460       23.404       29.369      700.117      547.755      862.547        0.782        0.106      112.380       15.784        0.020      332.095        0.534      874.029
11/24/2014  09:06:00      109.254       78.787        9.122       36.643       45.639       31.071     1342.704     2082.957      965.388        1.131        0.220      134.699       23.092        0.029      332.213        0.730      874.028
11/24/2014  09:07:00      124.147       71.570        6.019       30.444       24.880       23.450      926.867      619.020      549.881        1.133        0.105      143.300       17.132        0.014      332.154        0.633      874.034
11/24/2014  09:08:00      104.803       62.876       -0.188       32.966       37.889       30.909     1086.776     1435.596      955.393        0.921        0.174      122.217       11.089        0.008      332.193        0.696      874.045
11/24/2014  09:09:00      129.559       86.600        7.945       42.651       31.324       34.667     1819.104      981.180     1201.819        1.417        0.200      155.837       26.226        0.028      332.147        0.621      874.044
11/24/2014  09:10:00       40.657       20.443       35.706       44.548       50.218       35.018     1984.481     2521.853     1226.275        0.454        0.287       45.507       23.609        0.269      332.631        1.421      874.047
11/24/2014  09:11:00       27.388       60.723       69.212       44.735       44.620       35.507     2001.203     1990.934     1260.733        0.724        0.263       66.614       20.805        0.098      332.817        1.726      874.041
11/24/2014  09:12:00       65.750       80.875       31.778       49.878       49.967       43.105     2487.783     2496.751     1858.044        0.936        0.342      104.230       32.733        0.099      332.556        1.296      874.037
11/24/2014  09:13:00       88.116       83.548       12.692       34.297       28.015       27.487     1176.317      784.819      755.544        0.881        0.136      121.428       17.668        0.021      332.311        0.891      874.029
11/24/2014  09:14:00       83.388       55.829       12.790       41.779       42.932       30.724     1745.507     1843.163      943.959        0.738        0.227      100.351       17.922        0.032      332.579        1.334      874.022
11/24/2014  09:15:00       -3.063       -9.625        5.414       19.988       21.390       20.878      399.506      457.537      435.874        0.071        0.065       10.100        9.464        0.878      332.890        1.848      874.010
11/24/2014  09:16:00        1.165      -60.579       13.884       23.176       38.427       24.457      537.146     1476.617      598.135        0.324        0.131       60.590       23.160        0.146      332.829        1.746      873.986
11/24/2014  09:17:00        8.391       -2.705       39.203       21.899       45.149       21.745      479.556     2038.414      472.851        0.230        0.150        8.816       25.646        8.463      333.324        2.565      873.956
11/24/2014  09:18:00       17.595       64.897       69.222       44.052       25.993       20.322     1940.545      675.624      412.992        0.617        0.151       67.240       20.008        0.089      332.974        1.984      873.927
11/24/2014  09:19:00       14.461       74.387       75.616       45.778       44.462       37.763     2095.589     1976.851     1426.067        0.848        0.275       75.779       25.015        0.109      333.075        2.153      873.919
11/24/2014  09:20:00       77.444       71.108       50.254       64.904       33.419       28.879     4212.508     1116.858      834.023        0.987        0.308      105.138       31.861        0.092      332.779        1.663      873.915
11/24/2014  09:21:00      -30.581       -1.587       40.295       30.725       41.937       29.859      943.998     1758.690      891.547        0.308        0.180       30.622       27.984        0.835      333.295        2.516      873.916
11/24/2014  09:22:00       10.556       64.756       30.752       45.434       43.134       39.446     2064.258     1860.500     1555.974        0.536        0.274       65.611       28.027        0.182      333.051        2.113      873.918
11/24/2014  09:23:00       90.286       75.491       36.228       45.990       40.258       25.936     2115.069     1620.708      672.652        0.978        0.220      117.688       18.100        0.024      332.725        1.575      873.916
11/24/2014  09:24:00       51.359        6.741       11.368       53.016       32.625       20.210     2810.703     1064.418      408.445        0.355        0.214       51.800       11.437        0.049      332.783        1.672      873.919
11/24/2014  09:25:00       -1.337        0.820       12.060       23.778       23.181       15.373      565.395      537.355      236.334        0.074        0.067        1.568        7.372       22.092      333.119        2.225      873.928
11/24/2014  09:26:00        3.214      -25.202      -15.865       26.667       25.151       21.740      711.141      632.559      472.647        0.136        0.091       25.406       15.713        0.383      333.113        2.215      873.921
11/24/2014  09:27:00      -24.676      -44.668       -4.268       20.232       14.335       14.303      409.334      205.479      204.583        0.172        0.041       51.031        5.457        0.011      332.918        1.893      873.898
11/24/2014  09:28:00      -29.818      -26.962        3.403       17.715       12.981       11.286      313.821      168.507      127.376        0.112        0.030       40.201        5.598        0.019      332.920        1.896      873.889
11/24/2014  09:29:00      -36.439      -31.798        2.481       15.868       11.726       12.153      251.801      137.509      147.696        0.144        0.027       48.363        7.495        0.024      332.920        1.897      873.879
11/24/2014  09:30:00      -17.248      -28.423       -1.837       13.820       16.162        9.543      190.984      261.226       91.065        0.083        0.027       33.247        7.034        0.045      332.921        1.900      873.881
11/24/2014  09:31:00      -34.622      -24.256       -6.771       11.036       23.004       10.236      121.784      529.192      104.776        0.129        0.038       42.273        8.808        0.043      332.904        1.871      873.879
11/24/2014  09:32:00      -16.817      -14.102       -0.263        9.802       11.565        6.982       96.083      133.758       48.747        0.038        0.014       21.947        6.615        0.091      332.989        2.011      873.887
11/24/2014  09:33:00      -13.670       19.435       13.450       16.120       21.958       14.669      259.863      482.136      215.185        0.085        0.048       23.761       12.668        0.284      333.587        3.003      873.893
11/24/2014  09:34:00      -15.985       -1.368        3.339       12.355       16.564       20.948      152.649      274.358      438.833        0.057        0.043       16.044       11.774        0.539      333.523        2.894      873.907
11/24/2014  09:35:00       -5.544        9.344       18.106       18.625       20.190       21.383      346.909      407.649      457.232        0.083        0.061       10.865       12.923        1.415      333.645        3.096      873.909
11/24/2014  09:36:00      -18.671       33.217      -10.588       20.774       33.191       16.085      431.548     1101.610      258.712        0.168        0.090       38.104       11.426        0.090      333.352        2.610      873.916
11/24/2014  09:37:00      -20.630       70.850      -16.107       21.801       17.130       18.747      475.279      293.439      351.462        0.341        0.056       73.793        7.789        0.011      333.288        2.505      873.928
11/24/2014  09:38:00      -28.349       10.087       -9.521       20.174       20.259       14.632      406.982      410.414      214.090        0.101        0.052       30.090       12.626        0.176      333.491        2.840      873.946
11/24/2014  09:39:00      -23.243       10.607       -4.602       13.884       30.913       19.268      192.759      955.584      371.254        0.110        0.076       25.549       11.501        0.203      333.467        2.801      873.967
11/24/2014  09:40:00      -30.444       -2.296      -12.081       25.207       36.295        9.571      635.370     1317.360       91.613        0.156        0.102       30.531        9.870        0.105      333.328        2.570      873.986
11/24/2014  09:41:00      -45.363       21.153      -16.289       22.757       40.920       18.888      517.883     1674.424      356.758        0.266        0.127       50.053       15.892        0.101      333.290        2.509      874.002
11/24/2014  09:42:00      -29.525       25.811       -6.135       16.138       36.166       18.150      260.422     1307.999      329.407        0.174        0.095       39.216       18.770        0.229      333.293        2.511      874.016
11/24/2014  09:43:00       19.219       30.415       14.286       19.869       26.471       27.635      394.763      700.711      763.685        0.168        0.093       35.978       21.370        0.353      333.834        3.409      874.018
11/24/2014  09:44:00       18.417       11.999        5.081       16.184       19.571       22.316      261.919      383.042      497.988        0.083        0.057       21.981       12.511        0.324      333.677        3.147      874.020
11/24/2014  09:45:00       33.735       21.171       11.942       21.745       12.695       27.214      472.834      161.151      740.613        0.155        0.069       39.828       14.901        0.140      333.516        2.881      874.022
11/24/2014  09:46:00       14.917       15.145        5.645       18.747       14.088       15.551      351.464      198.471      241.821        0.064        0.040       21.258        9.544        0.202      333.587        3.000      874.031
11/24/2014  09:47:00       40.436       54.952       -2.075       35.182       24.887       20.453     1237.753      619.357      418.334        0.347        0.114       68.226       12.388        0.033      333.762        3.290      874.021
11/24/2014  09:48:00      -13.445       35.821        1.989       28.901       42.180       27.162      835.293     1779.134      737.775        0.241        0.168       38.261       24.736        0.418      333.997        3.681      874.023
11/24/2014  09:49:00      -14.206       91.596       -4.457       32.322       44.950       22.508     1044.733     2020.486      506.598        0.609        0.179       92.691       21.443        0.054      333.876        3.478      874.028
11/24/2014  09:50:00      -43.279       65.975       -5.972       37.781       42.873       25.209     1427.416     1838.069      635.486        0.508        0.195       78.904       30.564        0.150      333.801        3.354      874.034
11/24/2014  09:51:00      -36.075       56.790        8.479       26.142       33.594       25.508      683.387     1128.540      650.633        0.353        0.123       67.279       23.602        0.123      334.046        3.760      874.033
11/24/2014  09:52:00      -22.918       43.082       -3.913       23.451       30.752       21.488      549.941      945.656      461.719        0.218        0.098       48.798       15.695        0.103      333.976        3.645      874.024
11/24/2014  09:53:00        0.596       44.454      -12.121       11.002       37.174       15.919      121.049     1381.922      253.406        0.194        0.088       44.458       16.359        0.135      333.728        3.233      874.005
11/24/2014  09:54:00       10.038       52.567      -11.651       18.699       33.531       21.857      349.640     1124.318      477.725        0.248        0.098       53.516       14.902        0.078      333.772        3.305      873.972
11/24/2014  09:55:00       47.312       27.873        6.055       27.671       12.570       18.941      765.678      158.012      358.762        0.217        0.064       54.912       13.465        0.060      333.752        3.273      873.948
11/24/2014  09:56:00       44.285        0.680       -1.110       27.746       19.215       20.587      769.845      369.213      423.824        0.176        0.078       44.291       13.512        0.093      333.714        3.210      873.924
11/24/2014  09:57:00        2.778       21.313        1.569       23.971       12.092       21.638      574.591      146.217      468.211        0.083        0.059       21.493       17.003        0.626      334.056        3.776      873.908
11/24/2014  09:58:00       71.259       53.327       -1.512       43.832       33.083       26.545     1921.250     1094.463      704.650        0.582        0.186       89.003       19.801        0.049      334.030        3.734      873.901
11/24/2014  09:59:00       16.301       74.501       73.942       30.921       36.714       41.792      956.089     1347.927     1746.594        0.767        0.203       76.264       32.805        0.185      334.225        4.058      873.895
11/24/2014  10:00:00       57.199       77.493       67.287       42.746       43.613       39.450     1827.219     1902.098     1556.329        0.954        0.264       96.317       34.436        0.128      334.207        4.027      873.904
11/24/2014  10:01:00       94.243       86.859       44.028       38.117       26.364       25.842     1452.913      695.077      667.829        1.059        0.141      128.166       16.557        0.017      333.910        3.535      873.909
11/24/2014  10:02:00       35.534       36.486       30.488       31.956       39.436       23.013     1021.175     1555.209      529.621        0.331        0.155       50.930       16.453        0.104      334.456        4.442      873.915
11/24/2014  10:03:00       46.776       27.343       21.761       34.377       35.771       26.303     1181.781     1279.566      691.826        0.328        0.158       54.182       14.670        0.073      334.433        4.402      873.919
11/24/2014  10:04:00       60.483       63.299       31.852       26.450       21.720       45.598      699.605      471.766     2079.173        0.596        0.163       87.550       21.142        0.058      334.094        3.841      873.922
11/24/2014  10:05:00       66.708       69.035       65.990       54.342       45.601       25.650     2953.102     2079.483      657.909        0.963        0.285       95.999       16.457        0.029      334.420        4.381      873.912
11/24/2014  10:06:00       18.943       15.204       53.116       43.380       62.178       36.713     1881.788     3866.157     1347.849        0.525        0.355       24.289       20.139        0.687      334.632        4.732      873.907
11/24/2014  10:07:00       97.703       87.070       84.842       40.816       46.320       46.965     1665.964     2145.502     2205.707        1.517        0.301      130.870       31.837        0.059      334.113        3.870      873.910
11/24/2014  10:08:00       74.976       60.512       54.890       70.459       81.509       45.608     4964.455     6643.642     2080.080        1.299        0.684       96.349       32.877        0.116      334.162        3.952      873.899
11/24/2014  10:09:00       69.748      -49.944       11.245       43.436       72.337       47.236     1886.693     5232.713     2231.285        0.842        0.468       85.786       50.847        0.351      334.178        3.979      873.891
11/24/2014  10:10:00       25.506      -44.294       14.647       43.638       70.102       49.787     1904.272     4914.306     2478.789        0.606        0.465       51.112       42.344        0.686      334.433        4.403      873.863
11/24/2014  10:11:00       43.298      -49.621       16.527       54.045       56.374       42.616     2920.812     3177.985     1816.090        0.626        0.396       65.856       39.700        0.363      334.299        4.181      873.828
11/24/2014  10:12:00       24.752       28.682       70.199       43.352       76.929       68.830     1879.379     5918.088     4737.603        0.945        0.627       37.886       64.795        2.925      334.381        4.317      873.778
11/24/2014  10:13:00       38.770       60.357       77.554       36.242       50.742       34.705     1313.477     2574.707     1204.415        0.813        0.255       71.737       32.885        0.210      334.272        4.135      873.747
11/24/2014  10:14:00       41.084        2.619       28.384       38.242       51.557       25.457     1462.421     2658.140      648.063        0.363        0.238       41.167       18.176        0.195      334.356        4.275      873.735
11/24/2014  10:15:00       31.827      -54.230       17.987       48.910       73.070       45.609     2392.229     5339.271     2080.167        0.704        0.491       62.880       42.966        0.467      334.613        4.701      873.716
11/24/2014  10:16:00       37.903      -32.983       36.181       35.751       72.051       36.832     1278.115     5191.416     1356.571        0.583        0.391       50.245       41.825        0.693      334.539        4.579      873.731
11/24/2014  10:17:00       41.069       24.720       14.070       51.772       78.757       51.083     2680.319     6202.632     2609.524        0.699        0.575       47.935       45.966        0.920      334.624        4.720      873.741
11/24/2014  10:18:00      103.903       61.123        9.839       47.590       34.386       35.281     2264.852     1182.425     1244.721        0.966        0.235      120.548       23.427        0.038      334.330        4.232      873.739
11/24/2014  10:19:00      104.725       84.096       20.843       56.570       43.752       43.009     3200.178     1914.256     1849.773        1.272        0.348      134.311       25.633        0.036      334.428        4.394      873.748
11/24/2014  10:20:00       23.334       29.931       15.772       50.057       26.171       31.181     2505.695      684.946      972.250        0.293        0.208       37.952       16.165        0.181      334.535        4.573      873.756
11/24/2014  10:21:00       13.717      -32.115       31.924       42.912       89.707       45.583     1841.464     8047.292     2077.816        0.710        0.598       34.922       54.909        2.472      334.726        4.889      873.773
11/24/2014  10:22:00       11.539      -14.651       40.836       35.077       63.841       34.678     1230.375     4075.707     1202.592        0.426        0.325       18.650       33.020        3.135      334.675        4.805      873.768
11/24/2014  10:23:00      -14.684       11.898       34.836       32.929       42.346       41.877     1084.295     1793.203     1753.719        0.310        0.232       18.900       34.078        3.251      334.702        4.850      873.765
11/24/2014  10:24:00       14.396        2.170       18.668       47.424       39.980       54.622     2249.035     1598.398     2983.609        0.369        0.342       14.559       41.413        8.091      334.397        4.343      873.756
11/24/2014  10:25:00       31.459       -3.662       31.293       48.765       45.775       39.628     2378.031     2095.387     1570.392        0.401        0.302       31.671       37.790        1.424      334.633        4.736      873.759
11/24/2014  10:26:00       27.468       26.239       56.289       26.324       26.546       17.533      692.967      704.668      307.408        0.316        0.085       37.986       12.075        0.101      334.706        4.856      873.753
11/24/2014  10:27:00       63.176      -51.025       -0.252       30.364       56.823       33.369      921.953     3228.893     1113.517        0.593        0.263       81.209       30.003        0.137      334.182        3.987      873.763
11/24/2014  10:28:00       23.935       29.427       -0.967       33.679       42.268       34.375     1134.302     1786.594     1181.629        0.277        0.205       37.932       18.605        0.241      334.544        4.587      873.744
11/24/2014  10:29:00      -10.765       33.218       61.336       24.425       44.030       30.307      596.584     1938.605      918.531        0.422        0.173       34.919       23.649        0.459      335.021        5.379      873.736
11/24/2014  10:30:00       18.685       96.856       81.925       38.228       39.498       36.670     1461.412     1560.107     1344.683        1.040        0.218       98.642       28.043        0.081      334.715        4.870      873.704
11/24/2014  10:31:00       31.771       50.541       46.091       42.603       35.142       40.007     1815.014     1234.973     1600.596        0.517        0.233       59.697       27.978        0.220      334.839        5.077      873.686
11/24/2014  10:32:00      112.590       67.163        9.890       54.097       40.408       35.350     2926.439     1632.810     1249.613        1.155        0.290      131.100       20.263        0.024      334.464        4.455      873.650
11/24/2014  10:33:00      119.429       92.123        6.827       40.007       39.448       39.736     1600.595     1556.133     1578.944        1.377        0.237      150.831       25.728        0.029      334.366        4.291      873.630
11/24/2014  10:34:00       94.845       82.410       34.287       51.418       43.146       51.281     2643.819     1861.616     2629.782        1.205        0.357      125.646       35.484        0.080      334.671        4.796      873.595
11/24/2014  10:35:00       50.149       74.231       90.243       61.623       48.218       52.828     3797.422     2324.964     2790.779        1.254        0.446       89.583       36.935        0.170      334.655        4.771      873.582
11/24/2014  10:36:00      118.027      100.244       58.224       62.367       43.674       46.695     3889.586     1907.438     2180.460        1.767        0.399      154.853       23.760        0.024      334.537        4.575      873.567
11/24/2014  10:37:00       75.820       88.713       73.629       56.318       38.094       49.061     3171.732     1451.177     2406.968        1.303        0.351      116.699       39.281        0.113      334.690        4.829      873.557
11/24/2014  10:38:00      104.438       89.103       47.426       38.437       34.482       42.278     1477.402     1188.991     1787.423        1.277        0.223      137.283       19.838        0.021      334.481        4.480      873.541
11/24/2014  10:39:00      160.697      122.798       23.443       45.915       31.695       33.694     2108.180     1004.561     1135.268        2.285        0.212      202.244       19.087        0.009      334.599        4.676      873.509
11/24/2014  10:40:00      111.516       64.881       21.578       40.482       29.301       32.276     1638.828      858.533     1041.753        1.032        0.177      129.017       10.630        0.007      334.462        4.451      873.505
11/24/2014  10:41:00        4.843        5.019       -0.171       25.185       24.778       14.241      634.295      613.930      202.818        0.075        0.073        6.975        8.631        1.531      334.562        4.615      873.488
11/24/2014  10:42:00        9.326       28.053        5.709       23.858       16.034       21.715      569.208      257.090      471.526        0.110        0.065       29.563       13.775        0.217      334.615        4.704      873.473
11/24/2014  10:43:00        5.836       16.085       38.623       21.779       32.610       24.364      474.326     1063.386      593.597        0.196        0.107       17.111       14.463        0.715      335.290        5.825      873.458
11/24/2014  10:44:00       11.544        4.557       43.450       28.996       63.906       34.695      840.790     4083.971     1203.762        0.408        0.306       12.411       40.199       10.491      335.147        5.588      873.459
11/24/2014  10:45:00       15.851       46.125       26.743       23.948       35.001       33.053      573.515     1225.095     1092.483        0.299        0.145       48.773       18.025        0.137      335.075        5.467      873.460
11/24/2014  10:46:00       31.355       31.700       33.037       33.716       33.765       38.036     1136.784     1140.107     1446.773        0.340        0.186       44.587       18.122        0.165      335.004        5.351      873.461
11/24/2014  10:47:00       41.846       35.892       56.457       54.616       54.577       32.834     2982.856     2978.624     1078.062        0.663        0.352       55.130       35.690        0.419      334.886        5.156      873.465
11/24/2014  10:48:00       21.660       54.616       67.198       38.243       46.815       35.594     1462.532     2191.628     1266.898        0.644        0.246       58.754       33.685        0.329      334.980        5.310      873.448
11/24/2014  10:49:00      105.592       52.036       81.016       57.368       47.253       38.751     3291.130     2232.867     1501.644        1.372        0.351      117.718       30.321        0.066      334.768        4.960      873.451
11/24/2014  10:50:00       41.952       12.160       25.382       29.114       22.392       31.246      847.650      501.422      976.323        0.244        0.116       43.679       13.637        0.097      334.979        5.309      873.450
11/24/2014  10:51:00       49.482       86.494       78.633       63.777       43.319       44.813     4067.466     1876.578     2008.208        1.203        0.398       99.648       46.235        0.215      335.009        5.359      873.438
11/24/2014  10:52:00       43.419      -38.327        6.206       39.062       47.995       30.824     1525.804     2303.517      950.139        0.409        0.239       57.916       20.553        0.126      334.835        5.070      873.443
11/24/2014  10:53:00       -1.013       15.317       44.079       47.034       51.071       29.910     2212.210     2608.228      894.581        0.395        0.286       15.350       27.360        3.177      335.287        5.821      873.426
11/24/2014  10:54:00       53.513       58.121       27.535       72.996       54.831       46.334     5328.447     3006.478     2146.831        0.874        0.524       79.004       34.886        0.195      335.361        5.945      873.429
11/24/2014  10:55:00      108.456      116.866       54.554       60.088       37.075       61.182     3610.520     1374.565     3743.201        1.856        0.436      159.437       45.625        0.082      334.866        5.121      873.403
11/24/2014  10:56:00       85.611      110.949       82.304       65.247       60.535       66.590     4257.182     3664.533     4434.204        1.938        0.618      140.139       52.729        0.142      334.994        5.333      873.374
11/24/2014  10:57:00       78.212       71.687       38.868       58.884       43.946       29.976     3467.303     1931.223      898.550        0.953        0.315      106.095       28.358        0.071      334.977        5.306      873.351
11/24/2014  10:58:00       66.405       50.165       38.844       32.886       33.079       33.934     1081.481     1094.216     1151.497        0.588        0.166       83.224       15.522        0.035      334.998        5.341      873.317
11/24/2014  10:59:00       66.659      -12.879        9.804       25.905       28.058       28.201      671.059      787.241      795.304        0.348        0.113       67.892       18.107        0.071      334.790        4.995      873.298
11/24/2014  11:00:00       38.294      -27.043      -12.845       21.644       28.693       27.731      468.460      823.279      769.023        0.221        0.103       46.881       21.485        0.210      334.946        5.253      873.263
11/24/2014  11:01:00       20.405       32.472       25.684       26.738       32.910       31.956      714.897     1083.079     1021.164        0.247        0.141       38.351       12.517        0.107      335.452        6.097      873.246
11/24/2014  11:02:00      -13.191       31.984       57.711       16.346       35.660       27.714      267.179     1271.613      768.083        0.342        0.115       34.597       26.718        0.596      335.708        6.523      873.237
11/24/2014  11:03:00       35.961      100.126       -7.603       32.228       45.879       33.584     1038.662     2104.882     1127.912        0.782        0.214      106.388       30.789        0.084      335.040        5.409      873.234
11/24/2014  11:04:00      -26.249       55.574       10.042       50.712       42.689       30.478     2571.710     1822.385      928.927        0.460        0.266       61.461       24.525        0.159      335.322        5.879      873.250
11/24/2014  11:05:00      -49.403       64.596       20.330       67.096       49.948       43.609     4501.906     2494.780     1901.773        0.796        0.445       81.322       25.289        0.097      335.508        6.189      873.249
11/24/2014  11:06:00       47.996       57.219      -13.850       38.170       20.928       30.472     1456.955      437.962      928.550        0.430        0.141       74.684       25.766        0.119      334.975        5.301      873.252
11/24/2014  11:07:00       13.137       -5.460      -22.878       18.248       43.455       11.363      333.006     1888.321      129.116        0.154        0.118       14.226       15.179        1.138      334.966        5.287      873.244
11/24/2014  11:08:00       -2.949      -60.061        1.537       27.330       34.809       14.688      746.915     1211.669      215.748        0.290        0.109       60.134        9.298        0.024      334.985        5.320      873.225
11/24/2014  11:09:00       21.221       67.053       -6.349       32.445       37.434       29.197     1052.691     1401.308      852.490        0.415        0.165       70.331       20.382        0.084      335.445        6.084      873.208
11/24/2014  11:10:00       26.760       21.456        7.886       41.291       32.933       30.596     1704.976     1084.552      936.127        0.248        0.186       34.299       27.706        0.652      335.626        6.386      873.171
11/24/2014  11:11:00       50.171      -62.392        2.975       54.219       77.003       28.007     2939.698     5929.444      784.402        0.803        0.483       80.061       21.798        0.074      335.443        6.082      873.161
11/24/2014  11:12:00       33.229      -65.266        8.622       35.494       38.618       32.156     1259.844     1491.348     1033.997        0.461        0.189       73.238       13.134        0.032      335.656        6.436      873.144
11/24/2014  11:13:00       53.512      -54.141       11.710       63.432       69.243       43.957     4023.607     4794.633     1932.223        0.834        0.538       76.123       51.406        0.456      335.564        6.281      873.130
11/24/2014  11:14:00       30.638      -57.523       12.990       58.848       83.581       43.964     3463.077     6985.729     1932.838        0.840        0.619       65.174       45.668        0.491      335.594        6.332      873.121
11/24/2014  11:15:00       23.869      -59.643       30.816       48.506       39.520       33.550     2352.807     1561.792     1125.586        0.506        0.252       64.242       18.945        0.087      335.797        6.671      873.115
11/24/2014  11:16:00       26.758       11.423       50.055       37.167       35.147       34.514     1381.352     1235.289     1191.225        0.358        0.190       29.094       26.662        0.840      335.797        6.668      873.103
11/24/2014  11:17:00       22.817       64.837       43.000       30.436       36.689       32.607      926.346     1346.087     1063.218        0.495        0.167       68.735       23.323        0.115      335.895        6.835      873.096
11/24/2014  11:18:00       -3.752       68.582        3.366       26.749       29.400       23.383      715.510      864.371      546.747        0.343        0.106       68.685       18.601        0.073      335.756        6.603      873.101
11/24/2014  11:19:00       -3.621       40.188       34.730       40.374       54.618       31.807     1630.068     2983.126     1011.706        0.423        0.281       40.351       29.552        0.536      336.124        7.217      873.093
11/24/2014  11:20:00       18.175       29.547       57.136       41.403       55.427       36.752     1714.174     3072.161     1350.732        0.530        0.307       34.690       33.575        0.937      336.055        7.100      873.085
11/24/2014  11:21:00       86.311      113.807       81.007       64.107       36.057       48.262     4109.766     1300.098     2329.245        1.735        0.387      142.834       50.159        0.123      335.624        6.383      873.076
11/24/2014  11:22:00       66.655       53.944       21.843       57.525       37.052       53.878     3309.103     1372.826     2902.850        0.771        0.379       85.748       43.007        0.252      335.419        6.039      873.047
11/24/2014  11:23:00       12.581        8.981       19.957       29.626       45.728       32.298      877.680     2091.088     1043.136        0.232        0.201       15.457       15.955        1.065      335.726        6.551      873.038
11/24/2014  11:24:00       34.786       44.822       71.506       51.032       95.518       55.510     2604.306     9123.649     3081.314        1.157        0.740       56.736       66.154        1.360      335.799        6.674      873.009
11/24/2014  11:25:00       16.472      -35.788       11.459       34.352       51.843       39.594     1180.041     2687.705     1567.715        0.356        0.272       39.396       38.620        0.961      335.633        6.396      872.995
11/24/2014  11:26:00       15.700       -9.013        1.070       37.961       23.380       30.427     1441.034      546.643      925.785        0.162        0.146       18.104       21.807        1.451      335.862        6.779      872.967
11/24/2014  11:27:00       44.618       47.639       51.099       61.610       58.654       44.266     3795.847     3440.296     1959.481        0.803        0.460       65.271       33.630        0.265      336.234        7.399      872.940
11/24/2014  11:28:00       41.383       25.345       46.757       37.495       85.739       32.917     1405.841     7351.192     1083.503        0.719        0.492       48.527       21.977        0.205      335.835        6.733      872.927
11/24/2014  11:29:00       19.662       18.413       40.532       27.633       39.946       22.636      763.584     1595.704      512.392        0.262        0.144       26.938       20.404        0.574      336.057        7.103      872.882
11/24/2014  11:30:00       41.875       12.941       35.901       43.014       58.022       45.191     1850.226     3366.497     2042.250        0.523        0.363       43.829       39.356        0.806      336.016        7.034      872.848
11/24/2014  11:31:00       48.929       78.864       96.664       76.157       59.353       42.295     5799.882     3522.726     1788.859        1.453        0.556       92.809       51.829        0.312      335.967        6.953      872.804
11/24/2014  11:32:00       69.996       12.848       47.084       78.578       46.776       51.497     6174.509     2188.037     2651.917        0.915        0.551       71.165       12.341        0.030      335.732        6.562      872.781
11/24/2014  11:33:00       49.940      -61.162       18.315       63.231       72.328       36.998     3998.128     5231.306     1368.855        0.858        0.530       78.960       41.777        0.280      336.037        7.072      872.773
11/24/2014  11:34:00       61.442      -92.873        7.235       47.915       66.896       42.420     2295.851     4475.010     1799.458        1.051        0.429      111.358       43.801        0.155      335.921        6.878      872.758
11/24/2014  11:35:00       46.736       36.099       73.385       56.293       53.165       37.314     3168.934     2826.537     1392.358        0.813        0.369       59.054       22.051        0.139      336.241        7.410      872.759
11/24/2014  11:36:00       36.400       62.890       34.033       56.930       35.952       40.815     3241.036     1292.515     1665.831        0.632        0.310       72.664       28.439        0.153      336.055        7.100      872.772
11/24/2014  11:37:00       20.977      -36.208       -3.644       29.112       50.281       29.311      847.501     2528.200      859.146        0.300        0.212       41.845       24.727        0.349      335.694        6.497      872.779
11/24/2014  11:38:00      -10.873      -49.141       -9.825       24.830       27.040       27.187      616.534      731.147      739.134        0.236        0.104       50.330       17.161        0.116      336.020        7.042      872.775
11/24/2014  11:39:00       39.477        1.324       43.280       57.701       55.605       44.571     3329.458     3091.885     1986.574        0.592        0.420       39.499       46.664        1.396      336.187        7.322      872.781
11/24/2014  11:40:00       35.922      -43.655       17.054       51.098       59.901       39.834     2611.029     3588.187     1586.720        0.563        0.389       56.535       38.130        0.455      336.088        7.154      872.771
11/24/2014  11:41:00       14.679       16.262       60.353       38.618       48.170       30.290     1491.373     2320.334      917.483        0.442        0.236       21.907       28.798        1.728      336.486        7.820      872.778
11/24/2014  11:42:00       36.817      101.300      116.884       45.214       51.932       24.829     2044.278     2696.972      616.490        1.532        0.268      107.783       26.752        0.062      336.006        7.019      872.754
11/24/2014  11:43:00       31.351       44.020       64.845       37.580       40.007       31.041     1412.219     1600.531      963.572        0.555        0.199       54.043       28.803        0.284      336.021        7.044      872.741
11/24/2014  11:44:00      109.950       52.919       55.379       49.788       39.401       48.597     2478.806     1552.415     2361.712        1.217        0.320      122.022       32.091        0.069      335.930        6.893      872.717
11/24/2014  11:45:00       85.269       -3.764       -4.094       28.214       51.674       22.853      796.003     2670.193      522.256        0.564        0.199       85.352       12.829        0.023      335.671        6.461      872.686
11/24/2014  11:46:00       12.085      -66.087       31.752       27.071       61.407       38.597      732.814     3770.863     1489.761        0.576        0.300       67.182       38.626        0.331      336.159        7.276      872.651
11/24/2014  11:47:00       20.939       50.713       64.397       54.110       47.754       39.787     2927.861     2280.401     1583.017        0.697        0.340       54.866       38.397        0.490      336.440        7.742      872.636
11/24/2014  11:48:00       95.074      108.194       42.181       62.762       54.941       65.169     3939.114     3018.491     4247.052        1.686        0.560      144.032       33.586        0.054      336.164        7.281      872.613
11/24/2014  11:49:00       57.968      106.999       59.100       56.148       39.743       52.076     3152.580     1579.537     2711.937        1.287        0.372      121.692       26.410        0.047      336.218        7.372      872.604
11/24/2014  11:50:00      108.820       75.811       26.920       38.425       32.162       39.166     1476.496     1034.399     1534.014        1.118        0.202      132.624       16.969        0.016      336.118        7.205      872.597
11/24/2014  11:51:00       84.500       70.934       59.865       62.902       40.675       42.834     3956.717     1654.466     1834.736        1.160        0.372      110.327       32.848        0.089      336.142        7.246      872.562
11/24/2014  11:52:00       93.917       63.852       34.433       32.790       35.911       33.170     1075.215     1289.599     1100.278        0.877        0.173      113.567       27.141        0.057      335.906        6.851      872.563
11/24/2014  11:53:00       76.768       55.343       34.518       37.798       26.737       24.573     1428.716      714.892      603.850        0.645        0.137       94.637       20.111        0.045      336.036        7.069      872.544
11/24/2014  11:54:00       46.501       82.648       -6.087       42.810       41.928       26.091     1832.705     1757.987      680.721        0.665        0.214       94.832       25.732        0.074      336.119        7.208      872.540
11/24/2014  11:55:00       12.779      -32.120       19.044       43.295       74.368       31.822     1874.477     5530.541     1012.650        0.499        0.421       34.569       21.576        0.390      336.669        8.127      872.516
11/24/2014  11:56:00       17.860       -8.334       57.733       40.818       46.405       29.981     1666.129     2153.394      898.837        0.422        0.236       19.708       22.077        1.255      336.817        8.374      872.475
11/24/2014  11:57:00        4.157       26.335       41.867       26.848       42.136       29.931      720.825     1775.418      895.884        0.293        0.170       26.661       17.758        0.444      336.852        8.431      872.464
11/24/2014  11:58:00       33.430       48.602       33.887       62.783       36.160       40.797     3941.763     1307.547     1664.396        0.577        0.346       58.989       33.717        0.327      336.668        8.124      872.444
11/24/2014  11:59:00      113.945       72.120       14.277       69.022       50.373       30.314     4763.972     2537.398      918.936        1.330        0.411      134.851       21.386        0.025      336.398        7.672      872.426
11/24/2014  12:00:00       82.652       95.021       -3.881       34.173       36.379       33.903     1167.815     1323.457     1149.407        0.976        0.182      125.938       20.794        0.027      335.966        6.952      872.422
11/24/2014  12:01:00       50.424       71.302      -10.381       30.167       22.349       23.794      910.032      499.495      566.153        0.485        0.099       87.330       16.022        0.034      335.980        6.975      872.423
11/24/2014  12:02:00      -44.331       58.629      -26.632       23.565       25.206       17.741      555.322      635.364      314.731        0.381        0.075       73.502        8.918        0.015      336.132        7.231      872.399
11/24/2014  12:03:00      -24.496       39.136       11.166       35.022       26.104       27.796     1226.567      681.427      772.593        0.247        0.134       46.170       26.295        0.324      336.526        7.887      872.392
11/24/2014  12:04:00       54.922       51.417        3.656       52.801       44.064       27.767     2787.914     1941.609      770.984        0.559        0.275       75.234       24.273        0.104      336.554        7.934      872.397
11/24/2014  12:05:00       77.703       74.099       -3.666       48.370       47.053       34.520     2339.667     2214.013     1191.623        0.864        0.287      107.370       21.752        0.041      336.115        7.199      872.391
11/24/2014  12:06:00      133.013       97.303       22.482       35.845       30.241       30.426     1284.893      914.501      925.756        1.539        0.156      164.804       14.912        0.008      336.053        7.096      872.398
11/24/2014  12:07:00       20.755       63.327      -11.394       40.871       35.962       27.519     1670.465     1293.236      757.318        0.415        0.186       66.642       22.362        0.113      336.113        7.197      872.400
11/24/2014  12:08:00       15.575       74.951       -3.259       39.150       48.539       22.870     1532.701     2356.052      523.054        0.514        0.221       76.552       21.316        0.078      336.290        7.493      872.392
11/24/2014  12:09:00       27.953       94.286       -2.802       51.055       64.439       41.478     2606.659     4152.330     1720.428        0.908        0.424       98.343       43.822        0.199      336.294        7.499      872.402
11/24/2014  12:10:00       61.832       88.828       -2.066       70.345       43.744       35.088     4948.430     1913.546     1231.161        0.990        0.405      108.230       31.970        0.087      336.592        7.997      872.387
11/24/2014  12:11:00       96.368       81.828       27.716       34.356       30.009       38.067     1180.308      900.534     1449.066        1.014        0.176      126.423       21.281        0.028      336.258        7.437      872.380
11/24/2014  12:12:00       72.448       65.318       18.824       27.238       24.482       29.883      741.892      599.361      893.010        0.605        0.112       97.545       18.891        0.038      336.275        7.467      872.367
11/24/2014  12:13:00       54.750       39.155        5.729       36.397       33.542       27.202     1324.766     1125.042      739.957        0.388        0.159       67.311       19.994        0.088      336.409        7.691      872.354
11/24/2014  12:14:00       30.984       74.438      -11.739       36.779       36.354       21.826     1352.713     1321.591      476.378        0.489        0.158       80.629       18.860        0.055      336.317        7.538      872.350
11/24/2014  12:15:00       49.750       63.646        3.519       48.712       34.972       31.375     2372.888     1223.039      984.407        0.556        0.229       80.783       29.910        0.137      336.446        7.753      872.351
11/24/2014  12:16:00       30.110       62.926       -2.331       34.482       61.101       25.591     1188.992     3733.321      654.924        0.522        0.279       69.759       23.132        0.110      336.742        8.248      872.345
11/24/2014  12:17:00       38.678      129.782       -6.639       43.657       84.109       40.197     1905.928     7074.295     1615.762        1.449        0.530      135.423       34.167        0.064      336.610        8.027      872.344
11/24/2014  12:18:00       12.860      156.221      -18.597       35.351       58.826       31.454     1249.665     3460.518      989.324        1.531        0.285      156.749       25.314        0.026      336.399        7.674      872.323
11/24/2014  12:19:00       -8.493      109.816      -28.734       26.117       34.551       14.711      682.106     1193.785      216.419        0.752        0.105      110.144       11.316        0.011      336.274        7.466      872.311
11/24/2014  12:20:00        0.172      126.738      -27.597       17.931       20.341       11.964      321.504      413.751      143.143        0.885        0.044      126.738        8.741        0.005      336.332        7.564      872.286
11/24/2014  12:21:00        3.758       25.511        1.139       25.527       41.390       28.525      651.616     1713.119      813.678        0.192        0.159       25.786       23.946        0.862      336.811        8.365      872.269
11/24/2014  12:22:00       47.361       85.909       71.950       60.167       49.797       51.299     3620.079     2479.716     2631.556        1.176        0.437       98.099       37.897        0.149      336.650        8.094      872.249
11/24/2014  12:23:00       56.226       73.353       56.708       47.104       39.490       35.928     2218.752     1559.496     1290.797        0.841        0.253       92.423       23.363        0.064      336.814        8.367      872.221
11/24/2014  12:24:00       78.660       88.352       63.603       47.440       34.958       40.356     2250.550     1222.029     1628.647        1.157        0.255      118.294       20.885        0.031      336.777        8.307      872.196
11/24/2014  12:25:00       72.876       74.031       42.410       56.747       47.779       63.590     3220.188     2282.799     4043.679        1.107        0.477      103.883       47.959        0.213      336.594        7.999      872.169
11/24/2014  12:26:00        2.386      -54.272       -0.106       14.809       28.807       19.298      219.297      829.871      372.402        0.219        0.071       54.325        6.308        0.013      336.484        7.819      872.148
11/24/2014  12:27:00       76.229       29.397        8.591       62.025       44.030       28.947     3847.145     1938.600      837.918        0.668        0.331       81.701       27.436        0.113      336.731        8.230      872.148
11/24/2014  12:28:00       36.630       77.501       -5.602       34.322       38.955       26.291     1178.005     1517.468      691.200        0.538        0.169       85.722       27.536        0.103      336.659        8.111      872.147
11/24/2014  12:29:00       11.391       97.492      -19.935       53.573       52.620       27.083     2870.015     2768.837      733.484        0.820        0.319       98.155       18.852        0.037      336.571        7.963      872.152
11/24/2014  12:30:00       17.001      118.082      -22.621       25.250       26.585       17.529      637.564      706.766      307.265        0.820        0.083      119.300        8.205        0.005      336.619        8.043      872.148
11/24/2014  12:31:00       51.332       65.381       17.143       48.051       39.214       35.524     2308.855     1537.748     1261.938        0.616        0.255       83.124        6.494        0.006      336.928        8.559      872.144
11/24/2014  12:32:00       53.460       81.085       72.397       55.463       34.510       40.442     3076.127     1190.962     1635.577        1.029        0.295       97.122       34.265        0.124      336.943        8.584      872.149
11/24/2014  12:33:00       50.143       32.126       82.505       48.145       47.003       35.527     2317.928     2209.303     1262.159        0.807        0.289       59.552       28.421        0.228      337.137        8.908      872.141
11/24/2014  12:34:00       29.300      113.854      117.444       39.007       49.070       34.208     1521.535     2407.850     1170.164        1.636        0.255      117.564       33.140        0.079      336.823        8.382      872.152
11/24/2014  12:35:00       57.301      105.280      105.867       50.225       49.530       37.478     2522.560     2453.193     1404.582        1.598        0.319      119.863       35.018        0.085      336.726        8.221      872.172
11/24/2014  12:36:00       45.523       69.864       53.389       44.016       39.808       53.520     1937.412     1584.698     2864.383        0.809        0.319       83.387       34.055        0.167      336.772        8.298      872.170
11/24/2014  12:37:00       37.662       53.584       58.156       47.068       40.991       34.162     2215.431     1680.247     1167.062        0.637        0.253       65.495       34.886        0.284      336.996        8.672      872.165
11/24/2014  12:38:00       95.458       67.259       31.187       77.362       40.612       39.094     5984.952     1649.315     1528.354        1.188        0.458      116.773       41.066        0.124      337.029        8.727      872.150
11/24/2014  12:39:00       62.210       70.119       15.865       60.173       52.668       38.338     3620.730     2773.906     1469.816        0.845        0.393       93.737       31.429        0.112      337.169        8.962      872.135
11/24/2014  12:40:00      -32.535      115.247      -25.324       34.737       49.679       18.857     1206.646     2467.961      355.570        0.951        0.202      119.752       15.427        0.017      337.202        9.016      872.130
11/24/2014  12:41:00       80.522      124.424        4.665       76.788       47.424       42.933     5896.417     2248.989     1843.260        1.599        0.499      148.207       20.111        0.018      337.105        8.853      872.107
11/24/2014  12:42:00      111.252       98.849       50.168       45.610       33.830       43.556     2080.253     1144.451     1897.133        1.489        0.256      148.823       22.434        0.023      337.112        8.865      872.083
11/24/2014  12:43:00       85.143       76.400        9.807       30.622       21.454       29.374      937.730      460.276      862.835        0.772        0.113      114.395       11.768        0.011      336.773        8.300      872.091
11/24/2014  12:44:00       19.928       28.745      -14.161       39.186       32.464       21.826     1535.528     1053.939      476.374        0.224        0.153       34.977       18.871        0.291      336.910        8.530      872.107
11/24/2014  12:45:00      -54.206       36.949      -18.800       29.133       39.554       19.276      848.737     1564.488      371.575        0.372        0.139       65.602       23.087        0.124      337.106        8.857      872.111
11/24/2014  12:46:00      -22.239       17.862        1.588       19.533       44.266       21.119      381.522     1959.461      446.015        0.180        0.139       28.524       18.276        0.411      337.508        9.529      872.107
11/24/2014  12:47:00      -97.218       88.358      -20.178       35.417       39.912       30.340     1254.372     1592.935      920.512        1.072        0.188      131.372       27.436        0.044      337.204        9.020      872.113
11/24/2014  12:48:00      -69.722       66.580      -11.163       32.224       35.040       26.946     1038.366     1227.808      726.064        0.620        0.150       96.405       25.379        0.069      337.219        9.046      872.108
11/24/2014  12:49:00      -23.956       54.168        1.953       42.288       56.717       26.461     1788.307     3216.817      700.169        0.461        0.285       59.229       31.404        0.281      337.354        9.273      872.090
11/24/2014  12:50:00       75.947       55.865       19.530       59.560       29.709       28.678     3547.434      882.610      822.414        0.726        0.263       94.281       25.673        0.074      337.150        8.930      872.074
11/24/2014  12:51:00       18.599       54.992        4.809       40.243       24.208       21.969     1619.492      586.027      482.643        0.304        0.134       58.052       16.576        0.082      337.280        9.147      872.075
11/24/2014  12:52:00       26.426       13.641        4.977       33.857       29.837       22.058     1146.273      890.245      486.572        0.172        0.126       29.739       19.243        0.419      337.350        9.264      872.063
11/24/2014  12:53:00       63.985       30.861        2.030       43.219       31.041       25.614     1867.855      963.559      656.064        0.427        0.174       71.039       20.139        0.080      337.258        9.110      872.047
11/24/2014  12:54:00       16.601       43.050       56.637       33.283       46.284       32.981     1107.731     2142.219     1087.749        0.484        0.217       46.140       24.204        0.275      337.686        9.829      872.030
11/24/2014  12:55:00       14.244       43.121       64.494       52.867       50.489       34.547     2794.890     2549.151     1193.465        0.638        0.327       45.413       34.368        0.573      337.762        9.956      871.997
11/24/2014  12:56:00       59.328       53.159       11.179       55.624       44.413       51.412     3094.050     1972.539     2643.192        0.709        0.385       79.659       43.012        0.292      337.273        9.135      871.973
11/24/2014  12:57:00       11.885       29.548        2.821       22.816       40.137       19.552      520.562     1610.962      382.274        0.177        0.126       31.849       12.495        0.154      337.314        9.204      871.952
11/24/2014  12:58:00       -4.992       21.199       10.566       25.368       22.100       17.145      643.537      488.412      293.951        0.101        0.071       21.779       14.530        0.445      337.560        9.616      871.935
11/24/2014  12:59:00       85.689       63.092       23.845       67.170       36.882       31.874     4511.766     1360.257     1015.968        0.939        0.344      106.410       33.603        0.100      337.397        9.343      871.907
11/24/2014  13:00:00      106.001       65.283       50.581       61.333       52.967       48.194     3761.755     2805.502     2322.635        1.347        0.444      124.491       41.830        0.113      337.311        9.199      871.879
11/24/2014  13:01:00       47.980       71.888       49.321       62.718       38.869       41.237     3933.546     1510.788     1700.450        0.852        0.357       86.429       41.187        0.227      337.559        9.614      871.857
11/24/2014  13:02:00      153.564      121.929       16.864       63.524       46.385       42.883     4035.350     2151.592     1838.934        2.338        0.401      196.083       15.873        0.007      337.262        9.116      871.847
11/24/2014  13:03:00      200.187      121.317       48.631       45.668       30.120       41.029     2085.561      907.224     1683.371        3.092        0.234      234.079       18.630        0.006      337.059        8.774      871.837
11/24/2014  13:04:00      135.889       74.782       16.400       46.390       43.688       37.378     2152.055     1908.683     1397.129        1.489        0.273      155.107       23.326        0.023      337.254        9.104      871.845
11/24/2014  13:05:00      119.274       56.902       27.242       38.715       36.589       31.081     1498.884     1338.755      966.051        1.100        0.190      132.152       21.361        0.026      337.400        9.348      871.841
11/24/2014  13:06:00      114.774       77.987       18.719       44.088       44.343       43.629     1943.712     1966.339     1903.510        1.271        0.291      138.763       29.199        0.044      337.423        9.386      871.831
11/24/2014  13:07:00       65.159       40.692       11.986       44.145       38.564       30.040     1948.818     1487.159      902.376        0.519        0.217       76.821       20.219        0.069      337.452        9.436      871.849
11/24/2014  13:08:00       74.096       65.680       16.061       45.401       38.313       28.781     2061.296     1467.852      828.318        0.721        0.218       99.016       14.504        0.021      337.470        9.467      871.855
11/24/2014  13:09:00       68.582       51.910       10.889       57.863       38.955       28.915     3348.149     1517.485      836.092        0.661        0.285       86.012       16.514        0.037      337.516        9.543      871.849
11/24/2014  13:10:00       38.950       41.758       20.077       52.639       34.222       34.124     2770.886     1171.138     1164.439        0.438        0.255       57.104       32.383        0.322      337.747        9.930      871.844
11/24/2014  13:11:00      -12.561       49.166       55.329       20.622       28.766       28.988      425.270      827.509      840.299        0.386        0.105       50.745       19.153        0.142      337.885       10.161      871.843
11/24/2014  13:12:00      -14.423        1.705       24.239       16.188       29.156       19.385      262.037      850.083      375.770        0.114        0.074       14.524        8.098        0.311      338.058       10.452      871.847
11/24/2014  13:13:00       -2.079        4.266       -1.001       43.270       30.252       22.369     1872.292      915.188      500.359        0.166        0.164        4.746       12.685        7.143      337.918       10.217      871.833
11/24/2014  13:14:00       78.216       86.430       80.657       85.441       44.530       44.542     7300.191     1982.912     1984.007        1.568        0.563      116.567       37.209        0.102      337.762        9.954      871.814
11/24/2014  13:15:00       90.261       59.655       48.673       51.827       53.784       44.168     2686.063     2892.732     1950.786        1.080        0.376      108.193       35.369        0.107      337.477        9.476      871.806
11/24/2014  13:16:00       83.249       69.217       20.355       43.327       33.931       38.438     1877.223     1151.330     1477.476        0.832        0.225      108.266       18.990        0.031      337.413        9.370      871.794
11/24/2014  13:17:00       43.788       45.250       35.638       52.280       42.363       41.820     2733.152     1794.595     1748.918        0.575        0.314       62.968       26.980        0.184      337.712        9.871      871.772
11/24/2014  13:18:00       20.642       10.888       16.648       35.502       41.284       25.242     1260.411     1704.402      637.170        0.221        0.180       23.338       11.388        0.238      337.684        9.825      871.774
11/24/2014  13:19:00       92.646      -34.113       24.285       58.761       91.062       59.844     3452.866     8292.314     3581.298        1.283        0.766       98.727       64.906        0.432      337.524        9.557      871.759
11/24/2014  13:20:00       12.961       10.494        2.856       37.006       33.895       34.605     1369.422     1148.894     1197.472        0.200        0.186       16.677       29.741        3.180      337.517        9.543      871.754
11/24/2014  13:21:00       -8.848       27.983      -15.446       21.523       29.254       12.152      463.257      855.782      147.675        0.128        0.073       29.348        8.586        0.086      337.459        9.447      871.733
11/24/2014  13:22:00       18.978       19.416       -3.248       16.891       23.505       26.641      285.313      552.481      709.742        0.115        0.077       27.151       14.608        0.289      337.691        9.836      871.724
11/24/2014  13:23:00       23.820       39.216        6.292       36.247       40.605       21.388     1313.880     1648.735      457.425        0.278        0.171       45.883       17.735        0.149      337.750        9.935      871.719
11/24/2014  13:24:00       24.315       67.614      -12.424       52.670       31.677       23.948     2774.154     1003.448      573.517        0.483        0.218       71.853       12.603        0.031      337.613        9.706      871.695
11/24/2014  13:25:00       61.670       25.054      -14.980       36.368       43.054       28.008     1322.610     1853.617      784.434        0.431        0.198       66.565       12.455        0.035      337.817       10.047      871.679
11/24/2014  13:26:00       -9.793       26.068        3.990       41.325       26.916       25.758     1707.776      724.456      663.488        0.194        0.155       27.847       19.802        0.506      337.973       10.310      871.667
11/24/2014  13:27:00       35.901      -89.526      -10.194       44.641       50.570       25.258     1992.816     2557.345      637.979        0.730        0.259       96.456       28.804        0.089      337.768        9.966      871.669
11/24/2014  13:28:00       68.448       41.833       12.695       68.380       84.423       32.243     4675.856     7127.265     1039.637        0.972        0.642       80.219       21.236        0.070      337.759        9.950      871.672
11/24/2014  13:29:00       76.462       76.969       11.135       39.858       37.037       31.576     1588.672     1371.726      997.056        0.793        0.198      108.493       23.090        0.045      337.606        9.693      871.674
11/24/2014  13:30:00       33.143       63.862        2.609       46.062       36.136       29.124     2121.716     1305.792      848.198        0.473        0.214       71.950       13.406        0.035      337.689        9.833      871.677
11/24/2014  13:31:00       15.921       73.392      -16.503       26.617       39.973       15.616      708.446     1597.863      243.857        0.423        0.128       75.099       17.394        0.054      337.605        9.693      871.669
11/24/2014  13:32:00       92.765       49.595       33.429       86.988       58.535       41.235     7566.874     3426.333     1700.302        1.244        0.635      105.190       44.856        0.182      337.797       10.013      871.679
11/24/2014  13:33:00      149.920       76.055       41.310       82.242       59.958       60.602     6763.692     3594.909     3672.600        2.200        0.702      168.108       51.307        0.093      337.660        9.782      871.705
11/24/2014  13:34:00       60.195       56.642       51.327       43.626       55.577       33.345     1903.225     3088.841     1111.869        0.778        0.305       82.655       30.560        0.137      337.770        9.969      871.732
11/24/2014  13:35:00       97.940       14.642       35.131       54.433       37.652       38.393     2962.934     1417.647     1473.987        0.845        0.293       99.029       26.899        0.074      337.762        9.954      871.733
11/24/2014  13:36:00       90.518       79.452       55.044       51.108       34.871       37.295     2612.049     1215.965     1390.890        1.138        0.261      120.441       29.515        0.060      337.644        9.757      871.728
11/24/2014  13:37:00       35.727       84.917       87.526       52.954       54.783       48.551     2804.169     3001.154     2357.215        1.215        0.408       92.127       31.919        0.120      337.743        9.922      871.740
11/24/2014  13:38:00       92.745      119.238      101.803       50.173       50.611       43.769     2517.354     2561.456     1915.743        2.009        0.350      151.061       34.530        0.052      337.659        9.782      871.755
11/24/2014  13:39:00       49.804       45.465       65.367       57.655       56.044       40.367     3324.150     3140.904     1629.469        0.846        0.405       67.435       38.115        0.319      337.860       10.119      871.768
11/24/2014  13:40:00      117.253       80.996       48.127       76.061       51.083       30.718     5785.292     2609.432      943.609        1.598        0.467      142.508       14.910        0.011      337.745        9.925      871.769
11/24/2014  13:41:00       32.752       61.878       63.176       43.258       41.559       29.729     1871.256     1727.189      883.818        0.669        0.224       70.011       22.975        0.108      338.009       10.371      871.756
11/24/2014  13:42:00       47.536       26.860        3.761       49.764       45.809       28.983     2476.410     2098.475      840.017        0.420        0.271       54.600       34.113        0.390      337.744        9.926      871.753
11/24/2014  13:43:00       19.289        3.823       13.594       34.305       37.154       20.124     1176.816     1380.431      404.984        0.177        0.148       19.664       20.256        1.061      337.735        9.909      871.729
11/24/2014  13:44:00       12.596       63.535       -4.432       19.394       21.276       24.175      376.141      452.664      584.439        0.281        0.071       64.771       17.204        0.071      337.710        9.869      871.702
11/24/2014  13:45:00        6.904       35.099        2.616       15.644       13.645       11.524      244.735      186.197      132.802        0.092        0.028       35.772        8.346        0.054      337.746        9.927      871.690
11/24/2014  13:46:00       99.807       48.907       35.217       48.638       44.420       51.113     2365.610     1973.163     2612.572        1.027        0.348      111.146       35.159        0.100      337.847       10.098      871.679
11/24/2014  13:47:00       71.045       41.201       32.087       38.928       44.607       31.307     1515.418     1989.821      980.129        0.613        0.224       82.128       22.161        0.073      337.757        9.947      871.673
11/24/2014  13:48:00       57.743       24.128       42.002       51.206       61.143       40.887     2622.078     3738.514     1671.759        0.685        0.402       62.581       39.026        0.389      337.964       10.293      871.665
11/24/2014  13:49:00       61.948       64.723       38.832       44.151       45.414       34.445     1949.314     2062.390     1186.491        0.737        0.260       89.592       23.481        0.069      338.075       10.480      871.649
11/24/2014  13:50:00       11.878       30.774       16.599       34.120       46.165       52.534     1164.144     2131.200     2759.846        0.371        0.303       32.986       40.085        1.477      338.053       10.443      871.654
11/24/2014  13:51:00       34.642      116.958      108.970       57.984       60.065       54.296     3362.100     3607.812     2948.079        1.833        0.496      121.981       47.565        0.152      338.026       10.397      871.649
11/24/2014  13:52:00      132.146      112.498       83.335       86.981       48.782       55.690     7565.761     2379.723     3101.425        2.505        0.652      173.546       47.269        0.074      337.894       10.174      871.648
11/24/2014  13:53:00       59.454      107.982       81.942       67.424       70.387       57.504     4546.009     4954.327     3306.723        1.736        0.640      123.267       47.955        0.151      338.069       10.469      871.651
11/24/2014  13:54:00       45.112       90.528       92.248       50.387       50.339       39.067     2538.864     2534.041     1526.248        1.267        0.330      101.145       39.530        0.153      337.947       10.265      871.650
11/24/2014  13:55:00       16.205       41.727       56.852       24.091       62.303       47.553      580.376     3881.669     2261.299        0.598        0.336       44.763       48.512        1.175      337.854       10.111      871.641
11/24/2014  13:56:00       26.408       -6.244       18.451       26.709       41.676       20.044      713.348     1736.892      401.766        0.196        0.143       27.137       13.341        0.242      337.940       10.252      871.635
11/24/2014  13:57:00       54.704       16.100       -2.578       25.927       37.600       18.339      672.234     1413.740      336.303        0.284        0.121       57.024        9.448        0.027      337.877       10.149      871.638
11/24/2014  13:58:00       42.656       -0.475       13.952       32.984       40.965       22.672     1087.927     1678.155      514.009        0.265        0.164       42.659       19.671        0.213      338.000       10.354      871.647
11/24/2014  13:59:00       96.630       39.825       40.090       57.421       39.512       45.690     3297.148     1561.233     2087.585        0.974        0.347      104.515       32.693        0.098      338.056       10.447      871.654
11/24/2014  14:00:00       58.679      -52.079        2.113       37.890       26.826       28.872     1435.649      719.652      833.591        0.457        0.149       78.457       19.315        0.061      337.996       10.347      871.640
11/24/2014  14:01:00      -17.032      -31.967        9.283       33.259       40.141       34.287     1106.186     1611.294     1175.612        0.264        0.195       36.221       27.788        0.589      338.106       10.534      871.642
11/24/2014  14:02:00       66.618       47.234       32.240       68.531       31.718       37.203     4696.452     1006.059     1384.095        0.740        0.354       81.664       33.326        0.167      338.093       10.512      871.630
11/24/2014  14:03:00       55.936       47.245       34.361       25.456       18.394       22.852      648.011      338.329      522.194        0.402        0.075       73.218       11.777        0.026      337.955       10.279      871.616
11/24/2014  14:04:00       -2.854       -6.604        0.941       26.168       29.454       16.478      684.773      867.543      271.541        0.094        0.091        7.194       16.177        5.056      338.455       11.117      871.603
11/24/2014  14:05:00        2.505        1.605       25.156       13.291       29.224       22.377      176.645      854.026      500.709        0.109        0.077        2.975       22.182       55.587      338.598       11.359      871.594
11/24/2014  14:06:00       -5.843       18.778       59.446       19.278       25.018       18.974      371.636      625.920      360.021        0.264        0.068       19.666       13.343        0.460      338.664       11.469      871.594
11/24/2014  14:07:00       38.132       81.814       93.014       38.290       56.475       40.849     1466.117     3189.465     1668.667        1.156        0.316       90.264       39.634        0.193      338.292       10.845      871.574
11/24/2014  14:08:00      100.803       86.296       55.900       45.440       54.344       38.013     2064.801     2953.318     1444.961        1.360        0.323      132.696       18.068        0.019      337.983       10.327      871.562
11/24/2014  14:09:00      104.041       45.433       28.182       56.051       45.651       44.252     3141.688     2083.970     1958.274        1.043        0.359      113.528       34.766        0.094      338.103       10.527      871.552
11/24/2014  14:10:00       42.166       90.999       92.968       48.013       37.598       23.833     2305.223     1413.612      567.992        1.149        0.214      100.294       19.857        0.039      338.110       10.538      871.556
11/24/2014  14:11:00       42.988       77.233       84.252       46.309       49.529       33.156     2144.495     2453.073     1099.310        1.030        0.285       88.391       32.545        0.136      338.177       10.651      871.566
11/24/2014  14:12:00       66.815       38.390       28.874       38.572       39.125       41.083     1487.797     1530.734     1687.819        0.574        0.235       77.059       25.250        0.107      338.189       10.672      871.576
11/24/2014  14:13:00       25.383       49.019       36.019       30.464       45.937       55.779      928.030     2110.182     3111.301        0.525        0.307       55.202       45.713        0.686      338.216       10.718      871.558
11/24/2014  14:14:00       62.599       61.035       32.666       47.438       34.774       34.703     2250.360     1209.219     1204.264        0.669        0.233       87.430       31.251        0.128      338.293       10.846      871.549
11/24/2014  14:15:00       16.449       33.687       42.235       46.061       38.605       36.621     2121.603     1490.316     1341.081        0.407        0.248       37.488       27.589        0.542      338.442       11.096      871.537
11/24/2014  14:16:00       72.556       63.676       48.685       47.775       41.536       48.444     2282.404     1725.280     2346.831        0.902        0.318       96.535       39.294        0.166      338.060       10.457      871.541
11/24/2014  14:17:00       34.630       50.153        1.046       27.445       24.019       19.720      753.242      576.893      388.882        0.272        0.086       60.947       10.437        0.029      338.094       10.512      871.533
11/24/2014  14:18:00       18.404       40.877        0.219       24.266       24.179       22.534      588.824      584.633      507.802        0.185        0.084       44.829        7.993        0.032      338.217       10.718      871.523
11/24/2014  14:19:00       -0.641       24.474       -2.338       12.845       17.535       14.613      164.991      307.483      213.548        0.065        0.034       24.482       11.458        0.219      338.279       10.823      871.505
11/24/2014  14:20:00      -25.877       42.323       -7.995       17.504       34.381       12.844      306.406     1182.046      164.971        0.209        0.083       49.607       13.366        0.073      338.141       10.592      871.493
11/24/2014  14:21:00       26.277        0.804       -9.785       16.764       22.627        8.773      281.045      512.000       76.966        0.083        0.044       26.289        6.396        0.059      338.232       10.744      871.465
11/24/2014  14:22:00       27.363       19.506        8.727       20.370       24.245       23.724      414.955      587.797      562.832        0.139        0.078       33.604       17.800        0.281      338.336       10.919      871.465
11/24/2014  14:23:00       20.929       58.869        3.018       32.349       44.822       31.358     1046.471     2009.040      983.310        0.397        0.202       62.478       24.412        0.153      338.349       10.940      871.458
11/24/2014  14:24:00       23.055       99.208      -15.380       39.577       58.794       26.285     1566.352     3456.769      690.910        0.816        0.286      101.851       24.072        0.056      338.302       10.860      871.454
11/24/2014  14:25:00       57.567       46.722        1.990       54.299       44.388       39.108     2948.349     1970.258     1529.431        0.597        0.322       74.142       22.443        0.092      338.264       10.799      871.455
11/24/2014  14:26:00       56.758       97.815       -9.014       44.852       43.443       31.846     2011.690     1887.293     1014.162        0.889        0.246      113.089       24.004        0.045      338.132       10.574      871.451
11/24/2014  14:27:00       38.567       41.906       -2.057       33.213       24.502       28.221     1103.084      600.368      796.402        0.287        0.125       56.952       19.280        0.115      338.169       10.637      871.458
11/24/2014  14:28:00      -13.694       42.979      -15.091       21.018       26.111       13.843      441.743      681.782      191.618        0.179        0.066       45.108       14.998        0.111      338.213       10.712      871.465
11/24/2014  14:29:00       17.802       24.827      -14.736       20.615       33.050       22.864      424.965     1092.300      522.779        0.159        0.102       30.550       15.185        0.247      338.319       10.890      871.463
11/24/2014  14:30:00       75.329       53.997        2.457       39.996       42.145       31.322     1599.645     1776.214      981.086        0.648        0.218       92.683       11.532        0.015      338.258       10.787      871.464
11/24/2014  14:31:00       76.573       49.738        1.407       18.974       26.262       25.580      360.017      689.696      654.311        0.502        0.085       91.309       12.822        0.020      338.257       10.786      871.481
11/24/2014  14:32:00       57.365       36.090        7.589       30.327       17.971       17.290      919.754      322.972      298.933        0.310        0.077       67.773        6.164        0.008      338.402       11.028      871.495
11/24/2014  14:33:00       26.278       22.080        4.922       20.598       16.998       22.600      424.260      288.922      510.775        0.121        0.061       34.323       12.761        0.138      338.470       11.143      871.510
11/24/2014  14:34:00       16.931       26.482        3.666       28.993       20.060       15.821      840.582      402.386      250.304        0.125        0.075       31.431       10.262        0.107      338.409       11.041      871.517
11/24/2014  14:35:00       23.052       42.759       -5.133       24.375       26.230       22.613      594.141      688.012      511.337        0.209        0.090       48.577       17.071        0.123      338.342       10.929      871.513
11/24/2014  14:36:00       11.374       67.572      -12.067       28.976       44.301       20.452      839.608     1962.597      418.296        0.403        0.161       68.523       18.267        0.071      338.319       10.890      871.511
11/24/2014  14:37:00        9.371        4.774       -1.436       16.504       13.624       15.621      272.391      185.622      244.005        0.041        0.035       10.517       12.299        1.368      338.530       11.244      871.515
11/24/2014  14:38:00      100.767       61.516        7.087       54.557       51.526       33.367     2976.482     2654.915     1113.367        1.037        0.337      118.060       19.719        0.028      338.296       10.851      871.503
11/24/2014  14:39:00      123.990       82.434       15.552       48.524       41.491       44.637     2354.607     1721.465     1992.482        1.424        0.303      148.892       29.193        0.038      338.264       10.795      871.508
11/24/2014  14:40:00       75.861       46.990        6.351       30.022       25.633       21.312      901.349      657.065      454.182        0.501        0.101       89.235       14.589        0.027      338.272       10.811      871.513
11/24/2014  14:41:00       25.205       17.082        3.504       21.497       22.115       12.450      462.104      489.094      154.998        0.102        0.055       30.448        5.756        0.036      338.411       11.044      871.511
11/24/2014  14:42:00       74.685       64.980       19.401       39.393       25.186       22.334     1551.827      634.349      498.827        0.643        0.134       98.996       16.186        0.027      338.355       10.950      871.525
11/24/2014  14:43:00       81.831       40.138       11.025       38.708       30.199       38.941     1498.281      911.985     1516.417        0.618        0.196       91.145       20.504        0.051      338.380       10.993      871.541
11/24/2014  14:44:00       -0.626       24.079       -9.760       22.329       23.294       14.379      498.571      542.591      206.754        0.096        0.062       24.087       10.505        0.190      338.509       11.210      871.543
11/24/2014  14:45:00        7.978       14.050        4.216       17.628       18.552       10.392      310.753      344.179      107.997        0.052        0.038       16.157        4.748        0.086      338.613       11.384      871.558
11/24/2014  14:46:00       55.514       41.764        0.078       52.909       40.845       27.106     2799.362     1668.284      734.733        0.501        0.260       69.470       17.523        0.064      338.519       11.226      871.570
11/24/2014  14:47:00      119.201       71.829       25.270       54.501       43.492       46.854     2970.325     1891.572     2195.343        1.353        0.353      139.170       27.665        0.040      338.581       11.329      871.563
11/24/2014  14:48:00       71.874       84.903       67.689       71.132       47.946       39.592     5059.732     2298.833     1567.519        1.294        0.446      111.241       38.058        0.117      338.616       11.389      871.577
11/24/2014  14:49:00       22.744       70.698       98.397       59.098       47.044       37.994     3492.554     2213.157     1443.548        1.117        0.357       74.267       38.565        0.270      338.577       11.323      871.592
11/24/2014  14:50:00      132.229       61.191       41.984       59.325       35.795       49.552     3519.397     1281.259     2455.384        1.512        0.363      145.701       36.999        0.064      338.550       11.277      871.608
11/24/2014  14:51:00      125.598      111.687       19.495       39.300       44.008       37.660     1544.454     1936.673     1418.275        1.676        0.245      168.074       12.697        0.006      338.328       10.904      871.616
11/24/2014  14:52:00       60.414       65.494      -10.213       27.775       24.677       15.380      771.452      608.973      236.548        0.483        0.081       89.103        6.058        0.005      338.353       10.948      871.630
11/24/2014  14:53:00      -26.613       24.006       -8.631       18.872       32.161       21.118      356.154     1034.337      445.961        0.160        0.092       35.841        9.974        0.077      338.498       11.191      871.635
11/24/2014  14:54:00      -65.703      -17.427        6.077       35.109       35.698       19.873     1232.674     1274.328      394.932        0.378        0.145       67.975       16.270        0.057      338.883       11.838      871.623
11/24/2014  14:55:00      -19.353       96.150      -15.560       25.146       38.480       14.293      632.330     1480.711      204.282        0.609        0.116       98.078       10.135        0.011      338.623       11.399      871.624
11/24/2014  14:56:00       22.497       48.521       -5.854       14.334       25.637       11.617      205.462      657.280      134.961        0.195        0.050       53.483       15.229        0.081      338.444       11.099      871.625
11/24/2014  14:57:00       33.176       25.295        2.576       21.272       17.847       15.720      452.495      318.531      247.115        0.138        0.051       41.719        9.229        0.049      338.500       11.194      871.629
11/24/2014  14:58:00        2.103       -9.678      -11.166       14.490       12.472        8.619      209.966      155.551       74.294        0.033        0.022        9.904        9.356        0.892      338.664       11.469      871.634
11/24/2014  14:59:00      -13.776      -20.638      -12.568       10.868       12.567        6.373      118.124      157.926       40.613        0.055        0.016       24.813        5.417        0.048      338.587       11.339      871.642
11/24/2014  15:00:00      -14.510       -5.369      -18.195       14.319       13.939        8.779      205.034      194.297       77.063        0.052        0.024       15.471        6.022        0.152      338.730       11.580      871.652
11/24/2014  15:01:00       10.665      -13.246       -0.816       16.718       17.727       12.383      279.476      314.252      153.331        0.052        0.037       17.006        9.268        0.297      338.631       11.414      871.654
11/24/2014  15:02:00       83.066       42.748       18.238       36.431       25.187       19.221     1327.185      634.406      369.449        0.570        0.117       93.420        8.275        0.008      338.483       11.164      871.660
11/24/2014  15:03:00       65.568       55.224        3.032       31.877       23.126       21.562     1016.120      534.796      464.928        0.469        0.101       85.725       17.454        0.041      338.480       11.160      871.662
11/24/2014  15:04:00       83.528       44.965       17.401       35.370       23.521       30.272     1251.005      553.224      916.423        0.601        0.136       94.862       22.709        0.057      338.478       11.155      871.655
11/24/2014  15:05:00        0.651       43.930      -11.235       18.945       12.983       10.232      358.924      168.569      104.686        0.134        0.032       43.935        4.440        0.010      338.515       11.218      871.649
11/24/2014  15:06:00       52.459       53.390       20.793       42.703       23.249       23.498     1823.535      540.536      552.160        0.447        0.146       74.849       25.730        0.118      338.587       11.341      871.655
11/24/2014  15:07:00       89.893       54.735       15.124       30.723       25.216       23.141      943.895      635.832      535.508        0.671        0.106      105.246       19.116        0.033      338.476       11.153      871.670
11/24/2014  15:08:00       10.683       24.551       -1.439       21.055       18.776       12.286      443.298      352.530      150.954        0.083        0.047       26.775       12.032        0.202      338.584       11.335      871.677
11/24/2014  15:09:00      -32.474       63.484      -36.648       36.993       29.186       17.187     1368.447      851.801      295.402        0.447        0.126       71.308       12.513        0.031      338.626       11.405      871.682
11/24/2014  15:10:00      -17.192       35.654        4.296       18.641       32.287       20.578      347.478     1042.460      423.454        0.170        0.091       39.582       15.394        0.151      338.738       11.593      871.679
11/24/2014  15:11:00        8.506       24.638       19.156       31.736       39.541       26.448     1007.143     1563.530      699.477        0.216        0.164       26.065       17.100        0.430      338.644       11.437      871.659
11/24/2014  15:12:00       51.188       24.013       59.179       43.811       48.171       33.027     1919.441     2320.432     1090.776        0.601        0.267       56.541       37.616        0.443      338.600       11.361      871.643
11/24/2014  15:13:00       35.502       61.470       65.536       33.974       39.289       34.977     1154.234     1543.654     1223.406        0.663        0.196       70.985       29.708        0.175      338.592       11.348      871.638
11/24/2014  15:14:00       73.360       52.175       51.985       58.680       42.997       36.719     3443.380     1848.715     1348.315        0.872        0.332       90.022       39.454        0.192      338.630       11.413      871.644
11/24/2014  15:15:00       85.632       65.621       10.633       25.158       24.685       35.857      632.933      609.355     1285.748        0.714        0.126      107.884       16.854        0.024      338.567       11.305      871.661
11/24/2014  15:16:00       70.495       63.758       -1.969       53.881       38.785       29.084     2903.130     1504.257      845.866        0.714        0.263       95.050       27.276        0.082      338.583       11.334      871.667
11/24/2014  15:17:00       25.288       47.355       -4.122       24.260       40.120       23.938      588.552     1609.581      573.034        0.283        0.139       53.684       22.955        0.183      338.609       11.376      871.675
11/24/2014  15:18:00       25.469       91.430      -14.366       34.163       36.432       16.712     1167.085     1327.281      279.289        0.599        0.139       94.911       11.237        0.014      338.612       11.382      871.670
11/24/2014  15:19:00       32.367       -7.769        5.555       27.323       24.623       18.512      746.564      606.272      342.699        0.142        0.085       33.286       16.610        0.249      338.652       11.448      871.676
11/24/2014  15:20:00       53.797        4.993        2.330       17.242       32.294       18.277      297.273     1042.910      334.038        0.230        0.084       54.028       14.206        0.069      338.665       11.471      871.680
11/24/2014  15:21:00       17.462       28.674        6.770       15.110       16.453       13.214      228.324      270.714      174.608        0.092        0.034       33.572        4.608        0.019      338.722       11.567      871.682
11/24/2014  15:22:00       54.631       30.059       16.160       47.967       39.286       22.944     2300.810     1543.410      526.431        0.426        0.219       62.354       13.672        0.048      338.730       11.581      871.685
11/24/2014  15:23:00       66.272       37.775        6.524       29.615       29.489       19.637      877.052      869.616      385.602        0.400        0.107       76.282        9.991        0.017      338.612       11.380      871.692
11/24/2014  15:24:00       36.662       17.646        5.569       20.229       16.799       15.599      409.224      282.201      243.326        0.131        0.047       40.687       14.236        0.122      338.620       11.393      871.698
11/24/2014  15:25:00       67.902       41.598      -11.304       30.019       18.189       14.513      901.156      330.834      210.637        0.396        0.072       79.631        5.342        0.005      338.601       11.362      871.696
11/24/2014  15:26:00       -2.451      -10.341       -7.365       11.114       16.338       10.791      123.524      266.946      116.456        0.034        0.025       10.628       10.266        0.933      338.731       11.582      871.690
11/24/2014  15:27:00       13.622       42.217       -9.347       14.504       25.569       17.304      210.367      653.794      299.443        0.161        0.058       44.361       19.708        0.197      338.720       11.562      871.672
11/24/2014  15:28:00       38.186       35.848        7.576       20.321       19.535       19.573      412.926      381.602      383.088        0.199        0.059       52.376       11.100        0.045      338.638       11.424      871.660
11/24/2014  15:29:00       49.272       36.970        6.632       22.970       12.917       14.778      527.612      166.839      218.389        0.238        0.046       61.600        8.078        0.017      338.590       11.344      871.652
11/24/2014  15:30:00       44.568       38.381        2.938       23.901       22.388       15.723      571.249      501.213      247.222        0.239        0.066       58.817       11.919        0.041      338.646       11.440      871.644
11/24/2014  15:31:00       65.710       40.965        9.224       43.434       31.774       20.042     1886.526     1009.580      401.679        0.469        0.165       77.433        8.471        0.012      338.670       11.479      871.630
11/24/2014  15:32:00       77.664       56.440        0.261       29.075       30.095       26.651      845.350      905.725      710.274        0.584        0.123       96.006       16.354        0.029      338.654       11.452      871.613
11/24/2014  15:33:00       50.201       38.391        6.482       26.657       25.636       21.071      710.619      657.227      443.972        0.292        0.091       63.198       12.464        0.039      338.705       11.539      871.596
11/24/2014  15:34:00       21.012       23.801        8.151       19.917       22.357       14.995      396.691      499.817      224.850        0.110        0.056       31.749        8.055        0.064      338.739       11.594      871.591
11/24/2014  15:35:00       17.039        9.350        6.995       19.054       11.418       13.399      363.061      130.360      179.546        0.055        0.034       19.436        8.691        0.200      338.773       11.652      871.583
11/24/2014  15:36:00       22.625       36.196      -12.265       19.124       14.704       10.778      365.719      216.215      116.159        0.134        0.035       42.685        4.956        0.013      338.698       11.528      871.579
11/24/2014  15:37:00       35.177       30.555       -0.430       14.649       12.133       14.324      214.607      147.214      205.191        0.137        0.028       46.594        5.812        0.016      338.670       11.481      871.588
11/24/2014  15:38:00        5.005       30.806       -1.524       14.018       12.868       14.590      196.511      165.578      212.880        0.078        0.029       31.210       10.619        0.116      338.726       11.574      871.599
11/24/2014  15:39:00       15.182        7.994        1.916       17.546        9.390        7.778      307.872       88.170       60.498        0.038        0.023       17.158        9.388        0.299      338.844       11.771      871.607
11/24/2014  15:40:00        5.582        6.376        0.312        9.747        5.984        7.650       94.998       35.805       58.521        0.013        0.009        8.474        6.705        0.626      338.892       11.851      871.616
11/24/2014  15:41:00        9.543        0.773        1.615        9.496        5.758       10.516       90.166       33.157      110.577        0.016        0.012        9.574        6.167        0.415      339.007       12.046      871.622
11/24/2014  15:42:00        5.067        5.521        1.801        7.783        7.159        5.858       60.579       51.254       34.315        0.010        0.007        7.494        1.945        0.067      338.904       11.872      871.627
11/24/2014  15:43:00       35.964       27.460        5.482       12.193       13.621       12.863      148.670      185.536      165.468        0.129        0.025       45.248        9.985        0.049      338.829       11.746      871.618
11/24/2014  15:44:00       23.047        0.561       -3.372       10.889        8.549       10.814      118.568       73.084      116.951        0.043        0.015       23.054        8.209        0.127      338.815       11.723      871.608
11/24/2014  15:45:00       10.591       30.147       13.113       15.332       16.382       29.990      235.079      268.385      899.408        0.130        0.070       31.953       20.926        0.429      338.797       11.694      871.575
11/24/2014  15:46:00        9.281       36.455       42.900       25.337       19.227       26.436      641.978      369.687      698.851        0.248        0.086       37.617       22.792        0.367      338.764       11.636      871.557
11/24/2014  15:47:00       37.286       32.527      -10.998       22.376       12.002       12.129      500.698      144.049      147.116        0.168        0.040       49.480        8.520        0.030      338.723       11.568      871.545
11/24/2014  15:48:00       19.863       38.936       -9.528       31.881       17.130       17.110     1016.375      293.439      292.764        0.180        0.080       43.710       11.341        0.067      338.751       11.616      871.555
11/24/2014  15:49:00      -32.823      -42.989       -8.896       30.242       18.207       23.489      914.577      331.502      551.729        0.240        0.090       54.087       18.249        0.114      338.773       11.652      871.578
11/24/2014  15:50:00       29.892       14.642        9.840       27.362       20.458       12.107      748.670      418.519      146.577        0.126        0.066       33.286       15.194        0.208      338.715       11.554      871.599
11/24/2014  15:51:00       21.299       43.062      -15.678       34.494       19.365       18.202     1189.863      375.002      331.322        0.222        0.095       48.041       16.981        0.125      338.733       11.585      871.617
11/24/2014  15:52:00       18.982       34.506      -10.631       23.512       18.734       17.344      552.795      350.959      300.801        0.143        0.060       39.382       11.425        0.084      338.716       11.557      871.621
11/24/2014  15:53:00       12.381       48.244      -11.789       24.407       42.338       13.036      595.682     1792.498      169.925        0.259        0.128       49.807       16.693        0.112      338.676       11.489      871.626
11/24/2014  15:54:00       23.348       45.130      -12.298       26.993       24.445       16.146      728.638      597.544      260.682        0.216        0.079       50.812       14.866        0.086      338.696       11.524      871.620
11/24/2014  15:55:00       19.591       75.780      -18.626       16.277       19.340        9.444      264.935      374.052       89.191        0.360        0.036       78.271        7.199        0.008      338.735       11.587      871.603
11/24/2014  15:56:00       14.742       37.930      -10.683       14.480       18.868       11.083      209.666      355.993      122.836        0.123        0.034       40.694        9.922        0.059      338.708       11.542      871.593
11/24/2014  15:57:00       20.858       17.315       -2.709       19.044       17.879       16.366      362.664      319.663      267.848        0.085        0.048       27.108       11.773        0.189      338.675       11.488      871.584
11/24/2014  15:58:00       79.843       30.545        6.660       12.143       13.161       13.212      147.463      173.209      174.567        0.392        0.025       85.486        5.744        0.005      338.689       11.511      871.573
11/24/2014  15:59:00       66.179       38.418        2.158       14.268       10.894       10.350      203.572      118.679      107.119        0.314        0.021       76.522        2.502        0.001      338.632       11.418      871.555
11/24/2014  16:00:00       63.336       42.043       10.071       23.871       22.307       16.727      569.814      497.604      279.783        0.361        0.067       76.020        9.935        0.017      338.579       11.326      871.546
11/24/2014  16:01:00       74.253       55.638       -0.704       42.567       24.199       22.151     1811.972      585.580      490.655        0.575        0.144       92.785       20.767        0.050      338.593       11.350      871.544
11/24/2014  16:02:00       58.654       31.721        8.277       15.945       12.766       12.106      254.235      162.967      146.544        0.254        0.028       66.683        6.932        0.011      338.529       11.243      871.539
11/24/2014  16:03:00       32.910       18.329        0.477       16.991       12.234       10.100      288.701      149.662      102.019        0.098        0.027       37.670        6.049        0.026      338.624       11.402      871.528
11/24/2014  16:04:00       39.565       18.072        0.802       20.627       12.604       13.798      425.457      158.863      190.390        0.133        0.039       43.497        6.487        0.022      338.598       11.359      871.514
11/24/2014  16:05:00       44.112       22.768       -0.252       13.805       17.618       10.429      190.570      310.394      108.761        0.154        0.030       49.641        9.153        0.034      338.623       11.401      871.494
11/24/2014  16:06:00       38.030       23.570       -2.056       11.348       11.890        8.716      128.766      141.379       75.973        0.118        0.017       44.742        5.022        0.013      338.626       11.406      871.476
11/24/2014  16:07:00       27.912       17.552        0.470        8.868        7.006        9.162       78.642       49.082       83.943        0.065        0.011       32.972        4.966        0.023      338.641       11.434      871.457
11/24/2014  16:08:00       21.670       21.227       -6.302       10.577        9.983        9.565      111.878       99.665       91.486        0.063        0.015       30.335        8.225        0.074      338.663       11.470      871.445
11/24/2014  16:09:00       11.181       16.461        0.018       11.762        6.537        5.469      138.338       42.729       29.905        0.030        0.011       19.899        4.965        0.062      338.665       11.471      871.439
11/24/2014  16:10:00        8.468       19.114       -0.657        6.871        8.934        7.013       47.204       79.813       49.183        0.031        0.009       20.906        4.506        0.046      338.703       11.534      871.438
11/24/2014  16:11:00       10.989       13.297       -6.072        9.732       13.607        9.573       94.706      185.145       91.639        0.035        0.019       17.250        8.706        0.255      338.671       11.481      871.441
11/24/2014  16:12:00       25.224       12.504        0.766        7.595        5.439        5.447       57.682       29.584       29.669        0.046        0.006       28.154        2.588        0.008      338.598       11.359      871.442
11/24/2014  16:13:00       27.417       18.572       11.026       13.292       12.271       10.698      176.674      150.568      114.454        0.083        0.022       33.116        8.584        0.067      338.541       11.264      871.442
11/24/2014  16:14:00       48.008       28.517       15.319       17.098       13.552       18.944      292.336      183.660      358.882        0.209        0.042       55.839       10.979        0.039      338.669       11.478      871.433
11/24/2014  16:15:00       30.343       23.139       14.021       15.144       10.763        9.745      229.327      115.845       94.959        0.105        0.022       38.159        5.782        0.023      338.710       11.545      871.425
11/24/2014  16:16:00       56.367       -7.957        5.519       18.032       14.836       14.555      325.160      220.093      211.838        0.201        0.038       56.926        5.235        0.008      338.613       11.381      871.421
11/24/2014  16:17:00       42.652       -3.080        2.875       17.384       18.207       10.959      302.212      331.484      120.094        0.130        0.038       42.763        5.721        0.018      338.629       11.409      871.428
11/24/2014  16:18:00        8.750        9.019        6.337       18.336       13.620       15.094      336.218      185.496      227.826        0.047        0.037       12.566       12.373        0.970      338.620       11.396      871.437
11/24/2014  16:19:00        6.260       20.112       23.546       16.331       22.746       18.219      266.686      517.394      331.915        0.106        0.056       21.063       17.905        0.723      338.418       11.055      871.445
11/24/2014  16:20:00       23.060       23.114        3.415       13.794       11.266       12.565      190.273      126.913      157.874        0.078        0.024       32.650        6.950        0.045      338.393       11.015      871.448
11/24/2014  16:21:00       12.879        9.517        9.799       10.755        9.086       10.936      115.667       82.563      119.597        0.034        0.016       16.014        6.892        0.185      338.350       10.941      871.442
11/24/2014  16:22:00       20.635        8.452        0.013        9.454        9.585        9.552       89.373       91.867       91.234        0.038        0.014       22.299        6.074        0.074      338.551       11.278      871.434
11/24/2014  16:23:00        6.225        9.908        3.848       13.887       10.569        5.176      192.857      111.702       26.795        0.024        0.017       11.702        2.742        0.055      338.515       11.218      871.423
11/24/2014  16:24:00      -10.545       -1.648       -1.252        5.213        4.602        5.135       27.178       21.178       26.365        0.010        0.004       10.673        1.691        0.025      338.454       11.115      871.414
11/24/2014  16:25:00      -18.720       -5.504       -6.016       12.234        5.798        4.149      149.681       33.620       17.213        0.031        0.010       19.512        2.224        0.013      338.523       11.233      871.416
11/24/2014  16:26:00      -26.235       -9.323       -7.994        6.338        7.752        5.587       40.172       60.092       31.213        0.049        0.007       27.842        3.339        0.014      338.593       11.349      871.416
11/24/2014  16:27:00      -30.102       -9.638       -9.688        5.379        7.757        3.927       28.928       60.171       15.421        0.060        0.005       31.608        3.458        0.012      338.528       11.240      871.417
11/24/2014  16:28:00      -19.877      -21.572       -4.736       12.794        9.232        7.582      163.680       85.229       57.481        0.059        0.015       29.333        6.888        0.055      338.415       11.053      871.412
11/24/2014  16:29:00      -13.305      -19.284        2.132       12.482       10.306        8.844      155.799      106.222       78.212        0.045        0.017       23.428        6.510        0.077      338.366       10.968      871.399
11/24/2014  16:30:00       -3.607      -26.909        3.154       21.759       11.376       10.494      473.433      129.409      110.123        0.073        0.036       27.150        5.790        0.045      338.389       11.007      871.400
11/24/2014  16:31:00       17.515      -10.870       -6.542        8.543       15.154        9.930       72.987      229.636       98.603        0.043        0.020       20.614        6.542        0.101      338.497       11.188      871.407
11/24/2014  16:32:00        6.871        7.234        2.366        9.334        6.902        6.326       87.130       47.643       40.018        0.014        0.009        9.977        3.805        0.145      338.435       11.085      871.395
11/24/2014  16:33:00      -19.607      -10.435       -1.438       23.319       12.494       12.279      543.781      156.112      150.775        0.067        0.043       22.210       15.084        0.461      338.486       11.171      871.393
11/24/2014  16:34:00      -30.161      -17.113       -2.949       22.439       13.303        6.794      503.509      176.979       46.155        0.097        0.036       34.677        6.263        0.033      338.195       10.682      871.394
11/24/2014  16:35:00      -69.976      -39.283        1.115       14.040       14.374        9.959      197.130      206.618       99.179        0.347        0.025       80.249        3.048        0.001      338.220       10.724      871.391
11/24/2014  16:36:00      -74.139      -57.426       -0.890       17.098       24.674       10.899      292.354      608.817      118.792        0.491        0.051       93.778        8.874        0.009      338.168       10.635      871.385
11/24/2014  16:37:00      -80.788      -74.663       -2.561       22.143       27.174       16.053      490.295      738.407      257.711        0.680        0.074      110.006       15.283        0.019      338.301       10.861      871.370
11/24/2014  16:38:00      -87.679      -75.305       -4.129       23.130       18.936       15.260      534.992      358.569      232.869        0.725        0.056      115.579       12.638        0.012      338.326       10.901      871.354
11/24/2014  16:39:00      -71.235      -57.303       -4.435       25.937       26.333       16.845      672.702      693.447      283.769        0.501        0.082       91.422       17.342        0.036      338.282       10.828      871.357
11/24/2014  16:40:00      -64.569      -55.563        0.552       31.424       21.417       14.805      987.475      458.686      219.175        0.446        0.083       85.185       15.304        0.032      338.179       10.655      871.351
11/24/2014  16:41:00      -72.104      -68.357       -0.737       28.371       33.166       17.033      804.920     1099.984      290.130        0.603        0.110       99.357       14.368        0.021      338.141       10.590      871.351
11/24/2014  16:42:00     -100.927     -115.238       -7.653       40.326       36.353       29.366     1626.191     1321.561      862.365        1.367        0.191      153.186       23.291        0.023      338.112       10.542      871.364
11/24/2014  16:43:00     -111.365     -141.458       -6.399       40.802       23.309       23.089     1664.774      543.293      533.087        1.760        0.137      180.035       21.379        0.014      338.144       10.594      871.367
11/24/2014  16:44:00      -95.102     -122.146       -7.755       28.833       32.357       21.382      831.365     1046.999      457.210        1.318        0.117      154.803       16.793        0.012      338.091       10.507      871.366
11/24/2014  16:45:00      -87.245      -88.632       -3.692       48.958       40.106       23.191     2396.848     1608.508      537.816        1.001        0.227      124.367       23.247        0.035      338.075       10.481      871.366
11/24/2014  16:46:00      -89.277      -74.071        1.100       38.468       44.413       20.175     1479.782     1972.488      407.023        0.866        0.193      116.004       21.461        0.034      337.986       10.331      871.365
11/24/2014  16:47:00      -78.257      -89.435        0.567       41.223       26.487       22.264     1699.364      701.563      495.678        0.851        0.145      118.840       26.231        0.049      337.999       10.353      871.367
11/24/2014  16:48:00      -67.011      -67.935       -2.070       44.965       40.731       25.084     2021.813     1658.996      629.183        0.671        0.215       95.423       26.886        0.079      337.919       10.219      871.368
11/24/2014  16:49:00      -95.532     -102.761       -6.048       29.276       27.680       18.498      857.090      766.167      342.182        1.084        0.098      140.308       15.233        0.012      337.940       10.254      871.386
11/24/2014  16:50:00      -70.026      -62.239       -3.713       27.673       26.762       17.436      765.784      716.227      304.010        0.529        0.089       93.687       15.837        0.029      337.911       10.205      871.413
11/24/2014  16:51:00      -85.142      -47.711        3.087       43.185       27.868       22.426     1864.912      776.625      502.905        0.634        0.157       97.599       22.023        0.051      337.858       10.118      871.435
11/24/2014  16:52:00      -94.891      -56.958      -13.196       28.325       25.549       14.542      802.284      652.728      211.474        0.704        0.083      110.673       14.566        0.017      337.858       10.116      871.451
11/24/2014  16:53:00     -118.887      -40.014      -18.866       25.082       25.320       17.943      629.121      641.124      321.943        0.884        0.080      125.440        7.064        0.003      337.901       10.187      871.451
11/24/2014  16:54:00      -90.764      -45.238       -3.522       40.305       43.347       19.978     1624.486     1878.934      399.127        0.710        0.195      101.413       17.052        0.028      337.782        9.989      871.453
11/24/2014  16:55:00      -93.765       -0.082       -8.992       32.992       29.425       20.376     1088.483      865.839      415.182        0.562        0.118       93.765       19.648        0.044      337.728        9.899      871.439
11/24/2014  16:56:00      -47.187       -5.724        6.255       35.677       37.069       25.731     1272.837     1374.078      662.090        0.280        0.165       47.533       22.309        0.220      337.419        9.380      871.431
11/24/2014  16:57:00      -42.637      -14.524        9.646       43.889       49.033       26.010     1926.281     2404.284      676.541        0.356        0.250       45.043       24.614        0.299      337.377        9.310      871.434
11/24/2014  16:58:00      -29.448      -38.688        6.042       40.771       23.228       16.746     1662.286      539.535      280.420        0.244        0.124       48.620       16.300        0.112      337.145        8.919      871.433
11/24/2014  16:59:00       13.119      -16.935       16.173       27.301       24.535       14.858      745.340      601.962      220.750        0.114        0.078       21.422        8.810        0.169      337.004        8.684      871.434
11/24/2014  17:00:00      -32.589      -41.146        5.628       42.783       24.981       16.868     1830.409      624.034      284.536        0.276        0.137       52.488       16.809        0.103      337.301        9.182      871.430
11/24/2014  17:01:00      -46.189      -26.519       -3.039       32.083       17.534       16.500     1029.331      307.445      272.247        0.223        0.080       53.260       18.605        0.122      336.955        8.604      871.425
11/24/2014  17:02:00      -47.699       -8.661       -5.069       18.683       34.476       14.195      349.069     1188.605      201.507        0.206        0.087       48.479        8.641        0.032      337.405        9.357      871.429
11/24/2014  17:03:00      -66.501       35.406       -6.818       29.924       41.881       14.470      895.450     1753.990      209.378        0.429        0.143       75.339       11.862        0.025      337.932       10.240      871.428
11/24/2014  17:04:00      -32.439       -9.958       -4.088       31.305       13.213       13.850      980.001      174.590      191.817        0.126        0.067       33.933       14.827        0.191      337.825       10.060      871.440
11/24/2014  17:05:00       -5.950       -9.125       -0.514       11.053        9.910       11.292      122.161       98.218      127.506        0.023        0.017       10.894        7.771        0.509      337.170        8.963      871.464
11/24/2014  17:06:00       -2.862       -9.239       -6.208        7.587        7.876        3.826       57.563       62.033       14.637        0.013        0.007        9.672        1.706        0.031      337.304        9.189      871.486
11/24/2014  17:07:00       15.791        4.304       -5.813        7.167       10.622        6.323       51.364      112.832       39.974        0.025        0.010       16.367        4.744        0.084      337.432        9.400      871.502
11/24/2014  17:08:00       14.029       -9.320       -0.240        5.583        4.904        4.386       31.165       24.046       19.237        0.018        0.004       16.843        1.858        0.012      337.433        9.401      871.517
11/24/2014  17:09:00       19.314      -10.501        1.313        8.993       12.244        8.538       80.866      149.924       72.899        0.039        0.015       21.984        5.045        0.053      337.458        9.445      871.523
11/24/2014  17:10:00        6.729       -9.924        2.858       24.402       16.676       13.728      595.443      278.103      188.463        0.061        0.053       11.990       13.316        1.233      337.632        9.738      871.523
11/24/2014  17:11:00      -14.591      -25.113        3.068       10.968       10.485        9.003      120.300      109.926       81.048        0.058        0.016       29.044        5.866        0.041      337.614        9.707      871.516
11/24/2014  17:12:00      -31.777      -21.203       -6.791       17.909        8.445        7.388      320.733       71.322       54.588        0.098        0.022       38.202        5.948        0.024      337.510        9.532      871.499
11/24/2014  17:13:00      -90.742      -50.604       -9.129       14.557       16.138        6.639      211.896      260.435       44.076        0.570        0.026      103.898        5.118        0.002      337.448        9.428      871.498
11/24/2014  17:14:00      -68.814      -54.314       -5.301       17.291       16.304       12.370      298.985      265.817      153.020        0.422        0.036       87.666        9.399        0.011      337.116        8.873      871.498
11/24/2014  17:15:00      -68.429      -38.639       -8.527       12.390       11.997        8.240      153.503      143.931       67.897        0.331        0.018       78.584        4.693        0.004      336.954        8.603      871.497
11/24/2014  17:16:00      -95.648      -29.236       -6.398        9.369       11.737        7.598       87.784      137.756       57.723        0.516        0.014      100.016        5.277        0.003      336.758        8.275      871.504
11/24/2014  17:17:00      -98.888      -30.469       -9.481       13.331        9.657       10.054      177.708       93.256      101.082        0.558        0.019      103.476        4.911        0.002      336.810        8.361      871.503
11/24/2014  17:18:00      -86.571      -38.333      -10.887       10.184       18.421        7.914      103.716      339.322       62.629        0.479        0.025       94.678        6.256        0.004      336.853        8.434      871.490
11/24/2014  17:19:00      -78.710      -20.118       -5.767       13.750       22.776       10.997      189.049      518.763      120.934        0.373        0.041       81.241       12.094        0.022      336.884        8.486      871.485
11/24/2014  17:20:00      -64.847       -5.429       -0.198       14.760        7.870        9.029      217.870       61.929       81.531        0.230        0.018       65.074        5.790        0.008      336.603        8.017      871.482
11/24/2014  17:21:00      -21.305       -7.506       -9.599        9.616        7.975        9.077       92.462       63.608       82.393        0.042        0.012       22.589        4.407        0.038      336.670        8.129      871.481
11/24/2014  17:22:00      -14.490        1.215       -3.959        8.840        3.979        5.286       78.143       15.829       27.946        0.017        0.006       14.541        3.479        0.057      336.990        8.660      871.478
11/24/2014  17:23:00      -29.294       -1.012       -2.732       10.484        5.715        4.259      109.906       32.657       18.135        0.051        0.008       29.311        4.861        0.028      337.029        8.727      871.484
11/24/2014  17:24:00      -49.932      -18.877       -7.204        7.168        7.166        6.053       51.384       51.351       36.644        0.152        0.007       53.381        3.862        0.005      337.040        8.746      871.501
11/24/2014  17:25:00      -23.693      -16.666       -9.531       10.460        7.771       10.405      109.409       60.381      108.273        0.060        0.014       28.967        5.071        0.031      337.272        9.134      871.524
11/24/2014  17:26:00      -47.625       -7.625        2.318       18.076       19.403       13.398      326.737      376.460      179.500        0.161        0.044       48.232        7.667        0.025      337.131        8.898      871.538
11/24/2014  17:27:00     -105.879      -10.289      -15.391       26.643       21.467       19.070      709.855      460.836      363.683        0.654        0.077      106.378       17.354        0.027      336.954        8.603      871.562
11/24/2014  17:28:00     -101.698      -25.032      -15.976       37.789       21.416       20.139     1427.984      458.647      405.589        0.676        0.115      104.733       22.445        0.046      336.508        7.857      871.585
11/24/2014  17:29:00     -108.628      -32.855       -8.465       33.379       28.343       22.123     1114.149      803.342      489.430        0.768        0.120      113.488       16.708        0.022      336.174        7.297      871.595
11/24/2014  17:30:00     -124.065      -35.972      -16.901       28.156       26.243       15.683      792.738      688.683      245.964        0.935        0.086      129.175       14.454        0.013      336.038        7.072      871.605
11/24/2014  17:31:00     -114.113      -55.191      -15.893       27.497       18.937       15.346      756.086      358.617      235.506        0.884        0.068      126.759       13.317        0.011      336.000        7.007      871.598
11/24/2014  17:32:00      -62.373      -49.333       -5.404       25.089       23.875       16.613      629.463      570.029      275.984        0.391        0.074       79.524        9.117        0.013      336.093        7.161      871.582
11/24/2014  17:33:00      -73.917      -34.375      -10.463       27.068       25.048       16.758      732.692      627.424      280.844        0.420        0.082       81.520       11.518        0.020      336.014        7.031      871.569
11/24/2014  17:34:00      -41.865      -37.691      -11.661       40.203       23.828       19.859     1616.311      567.755      394.384        0.294        0.129       56.332       22.862        0.165      336.041        7.076      871.559
11/24/2014  17:35:00      -46.887      -30.636       -2.695       16.823       20.649       13.604      283.027      426.374      185.060        0.202        0.045       56.009       11.451        0.042      336.020        7.041      871.552
11/24/2014  17:36:00      -84.683      -18.732      -13.316       24.218       12.068       13.259      586.500      145.634      175.798        0.430        0.045       86.730       11.953        0.019      336.087        7.153      871.541
11/24/2014  17:37:00      -97.253      -16.060      -15.378       15.458       16.943       11.491      238.947      287.080      132.052        0.531        0.033       98.570        9.916        0.010      336.139        7.240      871.549
11/24/2014  17:38:00      -95.518      -41.142       -8.562       16.011       12.251       14.834      256.337      150.077      220.057        0.576        0.031      104.002        6.437        0.004      336.097        7.170      871.559
11/24/2014  17:39:00      -88.333      -43.251      -12.409       19.758       18.485       13.273      390.381      341.697      176.177        0.537        0.045       98.353        5.263        0.003      335.958        6.937      871.570
11/24/2014  17:40:00     -106.506      -39.874      -14.012       19.368       20.056       14.227      375.107      402.226      202.396        0.705        0.049      113.725       11.104        0.010      335.923        6.879      871.590
11/24/2014  17:41:00      -86.133      -27.297       -8.146       17.690       23.869       16.271      312.944      569.744      264.729        0.469        0.057       90.355       11.956        0.018      335.802        6.679      871.603
11/24/2014  17:42:00      -94.396      -18.354      -16.089       13.347       15.420       10.821      178.137      237.765      117.088        0.502        0.027       96.164        7.867        0.007      335.750        6.593      871.612
11/24/2014  17:43:00      -82.794      -32.261      -17.829       11.890       16.139       13.103      141.362      260.467      171.687        0.439        0.029       88.857       10.584        0.014      335.824        6.715      871.612
11/24/2014  17:44:00     -103.431      -21.015      -19.870       20.148       14.051       13.906      405.946      197.423      193.379        0.617        0.040      105.544        4.293        0.002      335.987        6.986      871.623
11/24/2014  17:45:00      -79.087      -28.236      -17.447       20.336       16.689       12.246      413.563      278.510      149.956        0.410        0.042       83.977       10.321        0.015      335.900        6.842      871.634
11/24/2014  17:46:00      -73.872      -28.424      -10.698       16.840       21.225       16.306      283.587      450.517      265.876        0.369        0.050       79.152       10.971        0.019      335.791        6.660      871.666
11/24/2014  17:47:00      -79.665      -24.104      -14.019       14.396       18.696       10.445      207.248      349.556      109.099        0.389        0.033       83.231        4.287        0.003      335.888        6.823      871.687
11/24/2014  17:48:00      -79.440      -24.918      -12.975       16.968       11.776       11.151      287.898      138.664      124.347        0.383        0.028       83.257        7.978        0.009      335.811        6.694      871.699
11/24/2014  17:49:00      -88.650      -23.274      -18.647       16.781       16.099       12.230      281.596      259.181      149.582        0.472        0.035       91.654        8.180        0.008      335.753        6.598      871.707
11/24/2014  17:50:00      -94.035      -22.612      -14.670       25.070       21.711       15.736      628.480      471.358      247.611        0.546        0.067       96.715       15.175        0.025      335.765        6.618      871.717
11/24/2014  17:51:00      -98.554      -27.312      -19.639       16.879       13.103       13.142      284.884      171.693      172.712        0.574        0.031      102.268        4.999        0.002      335.778        6.640      871.724
11/24/2014  17:52:00      -81.695      -27.643      -15.723       18.643       19.264       20.071      347.552      371.106      402.837        0.440        0.056       86.245       18.245        0.045      335.718        6.539      871.741
11/24/2014  17:53:00      -86.159      -19.297      -13.068       17.777       12.884       10.048      316.031      165.986      100.957        0.427        0.029       88.294        8.295        0.009      335.693        6.498      871.762
11/24/2014  17:54:00      -86.679      -33.910      -16.800       15.855       15.518       13.397      251.392      240.806      179.467        0.481        0.034       93.076        5.043        0.003      335.615        6.368      871.764
11/24/2014  17:55:00      -86.593      -38.662      -28.846       18.181       22.112       16.563      330.557      488.937      274.337        0.546        0.055       94.832        8.569        0.008      335.603        6.346      871.769
11/24/2014  17:56:00      -95.371      -23.161      -21.964       14.157       14.347       11.180      200.411      205.826      124.985        0.532        0.027       98.143        3.884        0.002      335.588        6.321      871.775
11/24/2014  17:57:00      -91.762      -19.307      -22.713       12.818       13.648        8.748      164.288      186.254       76.520        0.487        0.021       93.771        6.622        0.005      335.537        6.237      871.788
11/24/2014  17:58:00      -73.090      -23.506      -15.183       20.453       15.351       13.206      418.343      235.658      174.398        0.348        0.041       76.776        9.630        0.016      335.500        6.175      871.787
11/24/2014  17:59:00      -82.254      -14.359      -21.734        9.654       12.504        9.544       93.200      156.351       91.089        0.389        0.017       83.498        6.144        0.005      335.694        6.500      871.795
11/24/2014  18:00:00      -68.585      -11.682      -22.946       19.847       11.974        8.726      393.902      143.375       76.148        0.299        0.031       69.573        7.534        0.012      335.810        6.693      871.808
11/24/2014  18:01:00      -52.231       -3.945      -13.981       19.064        9.475        7.391      363.420       89.772       54.627        0.172        0.025       52.380        5.164        0.010      335.742        6.578      871.823
11/24/2014  18:02:00      -26.882       18.450       -7.775       21.244       22.326       11.918      451.318      498.458      142.046        0.111        0.055       32.604       10.801        0.110      336.236        7.403      871.839
11/24/2014  18:03:00      -11.998       78.980       -8.436       17.364       18.631       10.749      301.502      347.099      115.549        0.361        0.038       79.887        9.730        0.015      336.615        8.037      871.846
11/24/2014  18:04:00      -14.695       84.823      -14.756       19.690       20.529       11.273      387.714      421.439      127.081        0.428        0.047       86.086        6.918        0.006      336.687        8.156      871.863
11/24/2014  18:05:00       -3.388       30.920       -4.845       26.564       30.774       13.752      705.646      947.027      189.106        0.142        0.092       31.105       15.314        0.242      336.284        7.483      871.877
11/24/2014  18:06:00       -4.884       91.463      -11.105       17.996       36.465       11.112      323.842     1329.671      123.471        0.514        0.089       91.593       16.800        0.034      336.627        8.057      871.898
11/24/2014  18:07:00      -15.831      111.702      -22.343       23.052       16.234        9.910      531.411      263.536       98.209        0.706        0.045      112.818        8.049        0.005      336.706        8.189      871.900
11/24/2014  18:08:00      -28.381      112.715      -19.441       30.827       26.898       15.621      950.287      723.514      244.014        0.790        0.096      116.233        9.814        0.007      336.634        8.068      871.900
11/24/2014  18:09:00      -21.456       75.469      -13.786       29.620       23.062       14.841      877.369      531.854      220.263        0.399        0.081       78.460        8.686        0.012      336.426        7.722      871.914
11/24/2014  18:10:00      -30.986       55.765      -13.147       35.317       36.213       17.761     1247.321     1311.352      315.468        0.356        0.144       63.795       14.378        0.051      336.446        7.755      871.915
11/24/2014  18:11:00      -17.760       57.178      -10.985       31.278       25.383       15.811      978.330      644.274      249.995        0.279        0.094       59.872       14.760        0.061      336.368        7.624      871.927
11/24/2014  18:12:00      -17.542       62.927      -17.321       36.095       35.577       16.463     1302.825     1265.717      271.035        0.370        0.142       65.326       13.580        0.043      336.554        7.936      871.940
11/24/2014  18:13:00      -43.578      -12.593       -4.992       14.883       16.950       11.248      221.500      287.318      126.525        0.136        0.032       45.361        7.286        0.026      335.756        6.603      871.950
11/24/2014  18:14:00      -48.867      -15.414      -15.977       16.749        9.474        8.245      280.535       89.750       67.977        0.166        0.022       51.240        7.408        0.021      335.627        6.386      871.979
11/24/2014  18:15:00      -59.073      -26.941      -12.176       11.618       10.540        9.570      134.983      111.096       91.585        0.235        0.017       64.927        5.903        0.008      335.435        6.067      872.000
11/24/2014  18:16:00      -58.345      -42.715      -18.840       11.682       16.570       10.247      136.468      274.554      104.999        0.305        0.026       72.310        6.474        0.008      335.371        5.960      872.035
11/24/2014  18:17:00      -67.309      -41.954      -11.657       18.084       19.801       12.742      327.047      392.073      162.356        0.365        0.044       79.314        4.340        0.003      335.337        5.901      872.061
11/24/2014  18:18:00      -73.443      -55.877       -7.966       18.534       22.565       15.990      343.506      509.158      255.676        0.484        0.055       92.282        9.289        0.010      335.282        5.810      872.091
11/24/2014  18:19:00      -44.402      -39.007       -2.155       23.889       24.343       21.809      570.678      592.580      475.633        0.257        0.082       59.102       14.214        0.058      335.252        5.763      872.113
11/24/2014  18:20:00      -61.059      -59.074      -10.998       24.024       20.913       14.313      577.131      437.333      204.859        0.428        0.061       84.958        2.696        0.001      335.289        5.822      872.130
11/24/2014  18:21:00      -61.388      -53.790      -15.038       35.009       26.844       22.266     1225.613      720.607      495.797        0.466        0.122       81.620       20.261        0.062      335.312        5.861      872.144
11/24/2014  18:22:00      -84.159      -59.042      -10.801       32.540       24.058       23.382     1058.842      578.774      546.733        0.643        0.109      102.804       20.993        0.042      335.242        5.744      872.156
11/24/2014  18:23:00      -91.801      -72.611      -15.599       23.340       24.511       13.451      544.733      600.793      180.931        0.763        0.066      117.046       13.217        0.013      335.209        5.690      872.179
11/24/2014  18:24:00     -116.794      -33.567      -21.079       21.680       16.217       16.897      470.041      263.007      285.512        0.811        0.051      121.522       14.200        0.014      335.119        5.541      872.195
11/24/2014  18:25:00     -107.594      -36.845       -5.287       28.024       22.721       16.790      785.341      516.239      281.908        0.727        0.079      113.728       18.418        0.026      335.164        5.617      872.216
11/24/2014  18:26:00     -145.518      -12.833      -22.383       28.383       21.086       18.425      805.617      444.636      339.477        1.172        0.079      146.083       18.552        0.016      335.348        5.921      872.225
11/24/2014  18:27:00     -130.774      -36.838      -12.545       33.180       17.494       15.647     1100.909      306.042      244.826        1.013        0.083      135.864       16.363        0.015      335.252        5.762      872.217
11/24/2014  18:28:00      -83.963      -20.199      -11.023       30.245       21.988       15.130      914.742      483.492      228.921        0.460        0.081       86.359       10.310        0.014      335.239        5.739      872.212
11/24/2014  18:29:00      -69.041      -51.531      -10.777       20.204       15.889       15.076      408.205      252.464      227.293        0.421        0.044       86.152        7.193        0.007      335.304        5.848      872.189
11/24/2014  18:30:00      -60.640      -46.770      -13.376       14.229       15.706       11.195      202.453      246.681      125.330        0.331        0.029       76.581        8.576        0.013      335.332        5.894      872.183
11/24/2014  18:31:00      -73.808      -38.741      -22.589       12.019       10.788       12.813      144.453      116.387      164.163        0.394        0.021       83.358        9.544        0.013      335.341        5.909      872.174
11/24/2014  18:32:00      -90.875      -44.076      -13.649       12.312       16.705       11.290      151.579      279.066      127.468        0.547        0.028      100.999        4.826        0.002      335.349        5.921      872.180
11/24/2014  18:33:00      -71.152      -40.855      -19.473       14.211       11.368       10.278      201.944      129.240      105.627        0.377        0.022       82.047        5.855        0.005      335.290        5.824      872.180
11/24/2014  18:34:00      -82.437      -38.167      -15.337       25.852       24.244       11.007      668.308      587.791      121.145        0.493        0.069       90.844        4.307        0.002      335.261        5.777      872.177
11/24/2014  18:35:00      -59.954      -27.522      -13.640       17.778       18.497       15.243      316.072      342.156      232.337        0.271        0.045       65.969       12.931        0.038      335.241        5.744      872.177
11/24/2014  18:36:00      -73.888      -37.767      -21.454       22.059       25.469       19.947      486.598      648.690      397.882        0.444        0.077       82.981       15.428        0.035      335.273        5.795      872.184
11/24/2014  18:37:00      -60.097      -39.872      -11.244       20.816       25.196       20.719      433.317      634.851      429.267        0.341        0.075       72.121       17.741        0.061      335.250        5.758      872.196
11/24/2014  18:38:00      -68.990      -28.904      -17.062       16.552       15.832       11.797      273.956      250.666      139.171        0.327        0.033       74.800       10.102        0.018      335.255        5.766      872.204
11/24/2014  18:39:00      -73.997      -11.841       -8.134       24.890       16.887       17.255      619.517      285.167      297.727        0.344        0.060       74.939        4.923        0.004      335.439        6.074      872.212
11/24/2014  18:40:00      -60.892      -33.874      -14.637       27.887       21.908       15.498      777.700      479.953      240.193        0.328        0.075       69.680       13.531        0.038      335.303        5.845      872.214
11/24/2014  18:41:00      -88.549      -19.166      -18.713       16.692       24.747       12.801      278.636      612.436      163.878        0.481        0.053       90.599       14.221        0.025      335.236        5.734      872.225
11/24/2014  18:42:00      -80.480      -31.447      -12.325       15.430       16.473        9.999      238.078      271.367       99.982        0.411        0.030       86.406        8.557        0.010      335.182        5.645      872.216
11/24/2014  18:43:00      -71.304      -30.863      -15.616       13.795       15.804       14.118      190.313      249.780      199.326        0.346        0.032       77.697        9.805        0.016      335.200        5.674      872.222
11/24/2014  18:44:00      -82.335       -9.092      -17.469       13.114       11.420        8.520      171.988      130.427       72.596        0.377        0.019       82.835        3.722        0.002      335.309        5.856      872.235
11/24/2014  18:45:00      -94.163        4.173      -19.051       16.957       15.960       11.329      287.540      254.733      128.339        0.496        0.034       94.255        6.746        0.005      335.517        6.204      872.243
11/24/2014  18:46:00      -82.360      -17.943      -17.141       20.962       21.098       13.058      439.424      445.122      170.522        0.423        0.053       84.292        9.270        0.012      335.310        5.859      872.270
11/24/2014  18:47:00      -82.970      -33.295      -16.460       20.954       23.493       13.050      439.066      551.934      170.297        0.471        0.058       89.401       15.276        0.029      335.195        5.666      872.286
11/24/2014  18:48:00      -67.890      -40.887      -16.430       17.147       20.340       16.082      294.022      413.723      258.641        0.376        0.048       79.251       12.552        0.025      335.200        5.675      872.307
11/24/2014  18:49:00      -82.538      -41.144      -16.352       19.380       23.073       11.067      375.582      532.361      122.483        0.490        0.052       92.225       11.758        0.016      335.199        5.673      872.317
11/24/2014  18:50:00      -78.234      -42.616      -10.301       25.386       23.914       19.887      644.449      571.876      395.500        0.483        0.081       89.088       18.479        0.043      335.187        5.653      872.343
11/24/2014  18:51:00      -87.459      -52.642      -18.242       26.869       24.263       16.379      721.935      588.699      268.264        0.617        0.079      102.080        8.107        0.006      335.150        5.593      872.355
11/24/2014  18:52:00     -111.318      -38.012      -18.933       24.377       24.926       12.596      594.257      621.311      158.671        0.778        0.069      117.629        7.598        0.004      335.140        5.578      872.372
11/24/2014  18:53:00      -98.228      -41.683      -17.310       14.661       14.543        9.993      214.953      211.510       99.859        0.611        0.026      106.706        7.212        0.005      335.109        5.525      872.382
11/24/2014  18:54:00     -128.764      -37.512      -18.327       18.525       16.114        9.311      343.176      259.657       86.695        0.951        0.034      134.117        5.262        0.002      335.115        5.536      872.372
11/24/2014  18:55:00     -118.200      -31.392       -3.563       27.269       23.651       14.363      743.603      559.366      206.305        0.824        0.075      122.298       11.172        0.008      335.115        5.534      872.377
11/24/2014  18:56:00     -149.716      -42.803      -12.150       26.756       16.845       13.771      715.864      283.738      189.633        1.279        0.059      155.714       11.750        0.006      335.019        5.375      872.371
11/24/2014  18:57:00     -135.838      -50.467      -15.392       25.220       17.478       16.930      636.056      305.464      286.613        1.123        0.061      144.910       10.834        0.006      335.005        5.354      872.366
11/24/2014  18:58:00     -129.830      -43.052      -17.502       20.717       15.097       13.879      429.187      227.908      192.617        0.993        0.042      136.782        9.049        0.004      334.981        5.312      872.376
11/24/2014  18:59:00     -129.083      -33.734      -13.606       20.065       14.345       10.932      402.586      205.777      119.518        0.936        0.036      133.419       10.674        0.006      335.013        5.366      872.369
11/24/2014  19:00:00     -111.687      -40.637      -15.204       19.767       18.131        9.040      390.731      328.716       81.714        0.758        0.040      118.850        6.169        0.003      334.997        5.339      872.376
11/24/2014  19:01:00     -102.219      -40.343      -10.469       20.620       23.486       12.246      425.182      551.605      149.957        0.666        0.056      109.893        7.050        0.004      334.973        5.298      872.371
11/24/2014  19:02:00     -113.619      -32.958      -14.394       19.774       22.385       15.862      391.012      501.091      251.588        0.767        0.057      118.302        3.934        0.001      334.959        5.277      872.371
11/24/2014  19:03:00      -99.430      -51.583      -20.004       27.689       19.869       15.383      766.677      394.786      236.631        0.717        0.070      112.014        9.822        0.008      334.959        5.277      872.376
11/24/2014  19:04:00     -118.546      -76.324      -12.608       25.382       23.615       18.480      644.239      557.647      341.524        1.079        0.077      140.991       15.142        0.012      334.885        5.154      872.370
11/24/2014  19:05:00     -158.453      -49.768      -13.582       24.536       23.596       16.483      602.007      556.793      271.677        1.460        0.072      166.085        4.562        0.001      334.902        5.180      872.366
11/24/2014  19:06:00     -159.429      -35.923      -10.716       15.615       20.538       13.324      243.814      421.815      177.523        1.383        0.042      163.427        7.936        0.002      334.964        5.283      872.369
11/24/2014  19:07:00     -128.772      -39.729       -7.770       37.083       22.328       17.580     1375.141      498.558      309.062        1.020        0.109      134.761       17.874        0.018      334.919        5.210      872.365
11/24/2014  19:08:00     -113.258      -55.972      -13.361       31.575       26.894       16.483      996.979      723.278      271.674        0.906        0.100      126.334       10.757        0.007      334.936        5.237      872.375
11/24/2014  19:09:00     -101.750      -73.281       -5.377       33.672       25.932       17.647     1133.794      672.494      311.429        0.893        0.106      125.392       11.026        0.008      334.857        5.107      872.392
11/24/2014  19:10:00     -110.088      -66.970       -4.384       31.711       23.487       19.948     1005.570      551.617      397.915        0.929        0.098      128.858       11.187        0.008      334.833        5.068      872.411
11/24/2014  19:11:00     -141.803      -61.839      -11.090       20.742       23.408       14.426      430.243      547.937      208.123        1.262        0.059      154.700       10.049        0.004      334.838        5.074      872.438
11/24/2014  19:12:00     -146.895      -69.541        0.097       37.585       31.525       20.850     1412.606      993.831      434.713        1.463        0.142      162.524       19.574        0.015      334.779        4.976      872.443
11/24/2014  19:13:00     -173.941      -78.659       -6.013       37.299       26.634       23.401     1391.243      709.367      547.605        1.956        0.132      190.900       19.946        0.011      334.715        4.869      872.442
11/24/2014  19:14:00     -149.887      -72.559       -6.823       40.295       30.450       20.414     1623.653      927.185      416.725        1.537        0.148      166.526       18.003        0.012      334.679        4.811      872.450
11/24/2014  19:15:00     -124.023      -60.537       -2.755       37.861       25.872       17.476     1433.440      669.369      305.407        1.073        0.120      138.009       17.680        0.016      334.711        4.863      872.463
11/24/2014  19:16:00     -134.821      -48.399       -9.345       25.047       23.055       17.068      627.331      531.531      291.312        1.103        0.073      143.245        9.557        0.004      334.644        4.751      872.469
11/24/2014  19:17:00     -141.482      -33.126      -15.246       42.102       33.529       20.934     1772.598     1124.191      438.228        1.234        0.167      145.308       20.313        0.020      334.707        4.857      872.476
11/24/2014  19:18:00     -124.817      -21.715       -6.597       41.838       40.773       24.962     1750.436     1662.441      623.092        1.006        0.202      126.692       22.622        0.032      334.809        5.026      872.492
11/24/2014  19:19:00     -149.051      -13.531       -4.203       40.256       35.031       24.327     1620.580     1227.148      591.788        1.293        0.172      149.664       20.345        0.018      334.641        4.748      872.502
11/24/2014  19:20:00     -115.141      -46.912       -5.249       29.589       36.332       20.783      875.495     1320.021      431.936        0.906        0.131      124.331       11.243        0.008      334.646        4.755      872.513
11/24/2014  19:21:00     -115.010      -25.005      -13.133       34.025       27.953       21.378     1157.718      781.382      457.030        0.821        0.120      117.697       15.939        0.018      334.652        4.765      872.522
11/24/2014  19:22:00      -96.514       -6.764      -11.614       29.388       28.413       18.668      863.673      807.297      348.487        0.576        0.101       96.751       15.083        0.024      334.627        4.723      872.521
11/24/2014  19:23:00     -125.263       -6.156      -12.912       47.541       33.287       18.987     2260.134     1108.044      360.496        0.981        0.186      125.414       22.051        0.031      334.533        4.567      872.539
11/24/2014  19:24:00     -102.426       -2.586      -10.319       49.239       37.674       28.496     2424.485     1419.363      812.036        0.763        0.233      102.458       25.424        0.062      334.482        4.484      872.567
11/24/2014  19:25:00     -119.097      -15.428      -17.847       42.238       34.461       21.089     1784.024     1187.583      444.756        0.908        0.171      120.092       21.651        0.033      334.586        4.655      872.584
11/24/2014  19:26:00      -88.967      -20.805      -18.160       23.231       21.994       14.276      539.689      483.732      203.803        0.495        0.061       91.367       10.560        0.013      334.571        4.630      872.595
11/24/2014  19:27:00     -100.862       -5.390      -12.519       37.371       25.355       23.806     1396.570      642.878      566.737        0.648        0.130      101.006       20.316        0.040      334.723        4.883      872.609
11/24/2014  19:28:00      -82.234      -28.417      -17.326       38.549       29.548       15.670     1486.039      873.076      245.535        0.524        0.130       87.005       18.271        0.044      334.662        4.782      872.612
11/24/2014  19:29:00     -101.031      -46.657      -15.719       26.227       26.301       18.196      687.848      691.717      331.101        0.717        0.086      111.284        9.544        0.007      334.520        4.545      872.596
11/24/2014  19:30:00      -93.648      -39.872      -17.051       31.315       27.694       18.289      980.612      766.938      334.488        0.637        0.104      101.783       13.727        0.018      334.535        4.571      872.594
11/24/2014  19:31:00     -114.059      -34.108      -11.786       32.375       30.402       18.125     1048.115      924.273      328.506        0.831        0.115      119.050       15.610        0.017      334.595        4.672      872.602
11/24/2014  19:32:00     -124.569      -10.807      -20.014       35.565       30.123       21.364     1264.884      907.410      456.434        0.933        0.131      125.037       18.132        0.021      334.700        4.845      872.610
11/24/2014  19:33:00      -83.636      -20.056      -16.865       41.723       26.910       20.820     1740.800      724.131      433.485        0.529        0.145       86.008       19.642        0.052      334.734        4.901      872.616
11/24/2014  19:34:00      -90.502      -18.902       -7.626       40.759       39.442       22.575     1661.256     1555.672      509.639        0.617        0.186       92.455       19.404        0.044      334.643        4.751      872.627
11/24/2014  19:35:00      -13.254        2.043        1.468       22.441       35.568       24.332      503.600     1265.059      592.066        0.127        0.118       13.410       14.586        1.183      334.526        4.557      872.638
11/24/2014  19:36:00      -61.988      -12.862       -3.015       49.254       39.956       25.673     2425.960     1596.470      659.098        0.435        0.234       63.308       24.759        0.153      334.547        4.592      872.633
11/24/2014  19:37:00      -97.107      -10.607       -4.534       56.136       40.406       29.611     3151.254     1632.640      876.810        0.761        0.283       97.685       28.002        0.082      334.461        4.450      872.627
11/24/2014  19:38:00      -85.773      -23.803       -4.436       58.531       38.703       24.997     3425.836     1497.949      624.839        0.674        0.277       89.014       20.730        0.054      334.446        4.426      872.618
11/24/2014  19:39:00      -94.820      -37.026      -15.736       28.683       34.454       21.905      822.687     1187.092      479.818        0.655        0.124      101.793       13.630        0.018      334.469        4.462      872.614
11/24/2014  19:40:00      -51.886      -11.527       -2.267       36.585       24.147       19.614     1338.468      583.082      384.701        0.257        0.115       53.151        9.538        0.032      334.576        4.640      872.597
11/24/2014  19:41:00      -95.442      -75.194      -17.302       34.363       27.841       19.809     1180.806      775.138      392.400        0.870        0.117      121.504        9.762        0.006      334.505        4.522      872.586
11/24/2014  19:42:00     -140.123      -55.056      -11.081       29.506       30.471       22.480      870.627      928.461      505.350        1.255        0.115      150.551       16.512        0.012      334.385        4.323      872.573
11/24/2014  19:43:00     -133.402      -53.186       -5.569       29.268       28.048       21.958      856.606      786.717      482.133        1.139        0.106      143.613       17.898        0.016      334.406        4.357      872.566
11/24/2014  19:44:00     -114.920      -37.429       -3.642       26.970       30.366       15.391      727.399      922.071      236.883        0.825        0.094      120.862       14.391        0.014      334.459        4.444      872.557
11/24/2014  19:45:00     -125.072      -14.410       -8.772       32.722       29.582       19.786     1070.745      875.113      391.474        0.913        0.117      125.899       17.984        0.020      334.439        4.413      872.549
11/24/2014  19:46:00     -124.229      -42.171       -5.282       34.600       20.574       22.338     1197.168      423.282      498.983        0.968        0.106      131.191       22.506        0.029      334.401        4.350      872.548
11/24/2014  19:47:00     -125.857      -23.371       -7.775       32.717       27.092       20.163     1070.373      733.965      406.536        0.933        0.111      128.008       20.031        0.024      334.388        4.329      872.544
11/24/2014  19:48:00     -136.383      -48.709       -8.155       17.392       20.807       11.847      302.488      432.951      140.361        1.096        0.044      144.821        7.738        0.003      334.388        4.329      872.541
11/24/2014  19:49:00     -150.335      -27.788      -10.772       31.677       21.897       16.347     1003.433      479.459      267.223        1.262        0.088      152.882       15.837        0.011      334.391        4.332      872.542
11/24/2014  19:50:00     -117.572      -44.020      -16.323       21.869       28.944       14.391      478.273      837.782      207.093        0.877        0.076      125.543        7.761        0.004      334.398        4.344      872.551
11/24/2014  19:51:00      -94.292      -54.191       -3.570       24.331       28.995       16.921      591.983      840.737      286.307        0.678        0.086      108.755       14.215        0.017      334.420        4.381      872.550
11/24/2014  19:52:00     -109.116      -55.445       -4.895       34.496       21.850       17.879     1189.991      477.412      319.643        0.850        0.099      122.395       13.627        0.012      334.397        4.342      872.530
11/24/2014  19:53:00     -101.362      -73.776       -6.814       26.509       27.296       17.033      702.726      745.095      290.123        0.875        0.087      125.368       11.698        0.009      334.450        4.431      872.528
11/24/2014  19:54:00      -80.658      -60.374       -4.171       38.631       23.653       18.814     1492.380      559.450      353.969        0.629        0.120      100.750        9.959        0.010      334.416        4.375      872.525
11/24/2014  19:55:00      -75.905      -62.045       -2.163       32.863       29.630       21.807     1080.009      877.912      475.545        0.602        0.122       98.036       11.252        0.013      334.409        4.362      872.519
11/24/2014  19:56:00      -91.763      -75.738        2.906       32.423       26.280       22.046     1051.261      690.654      486.035        0.820        0.111      118.982       19.301        0.026      334.362        4.286      872.514
11/24/2014  19:57:00      -89.395      -54.320       -2.556       47.424       29.525       24.576     2248.990      871.752      604.003        0.734        0.186      104.604       25.020        0.057      334.314        4.206      872.516
11/24/2014  19:58:00      -93.708      -57.082       -1.398       46.722       28.149       23.217     2182.967      792.389      539.030        0.778        0.176      109.725       24.975        0.052      334.299        4.180      872.491
11/24/2014  19:59:00      -66.873      -59.148       -0.133       44.755       26.543       23.679     2003.024      704.553      560.675        0.562        0.163       89.278       20.652        0.054      334.293        4.171      872.468
11/24/2014  20:00:00      -83.864      -69.418        5.223       29.204       31.903       20.530      852.875     1017.820      421.480        0.709        0.115      108.867        8.790        0.007      334.292        4.168      872.451
11/24/2014  20:01:00     -105.345      -66.109       -9.650       42.477       27.618       25.357     1804.260      762.756      642.982        0.938        0.160      124.370       18.412        0.022      334.318        4.212      872.458
11/24/2014  20:02:00     -127.677      -59.622       -6.204       28.863       27.490       16.644      833.100      755.693      277.010        1.088        0.093      140.912       17.872        0.016      334.311        4.199      872.459
11/24/2014  20:03:00      -75.351      -46.968       -0.283       30.947       22.233       21.075      957.705      494.300      444.145        0.489        0.095       88.791       14.393        0.026      334.283        4.155      872.458
11/24/2014  20:04:00     -108.220      -57.534      -11.210       17.838       29.478       13.522      318.180      868.982      182.833        0.826        0.068      122.563       10.578        0.007      334.316        4.210      872.475
11/24/2014  20:05:00     -114.481      -38.786       -1.176       27.765       21.570       19.428      770.884      465.248      377.467        0.811        0.081      120.873       16.333        0.018      334.297        4.177      872.488
11/24/2014  20:06:00     -119.953      -53.897       -4.992       25.795       18.689       12.596      665.396      349.261      158.651        0.925        0.059      131.505       11.826        0.008      334.329        4.231      872.493
11/24/2014  20:07:00     -117.964      -50.329       -9.578       30.831       19.008       17.852      950.566      361.291      318.687        0.909        0.082      128.252       17.368        0.018      334.342        4.252      872.488
11/24/2014  20:08:00     -115.633      -51.877       -8.373       16.402       25.020        9.992      269.029      626.019       99.833        0.856        0.050      126.736        6.197        0.002      334.329        4.230      872.477
11/24/2014  20:09:00     -107.399      -26.980       -6.095       17.735       19.863       11.940      314.532      394.520      142.562        0.658        0.043      110.736        5.876        0.003      334.285        4.158      872.473
11/24/2014  20:10:00     -114.695      -25.493       -6.797       25.945       21.194       16.792      673.122      449.194      281.986        0.763        0.070      117.494       10.616        0.008      334.285        4.157      872.462
11/24/2014  20:11:00     -105.683      -39.561       -1.136       30.863       23.500       16.827      952.554      552.267      283.157        0.726        0.089      112.845       12.799        0.013      334.272        4.134      872.445
11/24/2014  20:12:00      -89.352      -31.974       -5.114       28.178       25.282       14.164      794.021      639.183      200.613        0.533        0.082       94.900       13.228        0.019      334.198        4.013      872.445
11/24/2014  20:13:00      -92.392      -49.829      -15.330       18.527       18.103       11.963      343.241      327.723      143.107        0.603        0.041      104.973        9.923        0.009      334.195        4.007      872.451
11/24/2014  20:14:00      -99.182      -21.386      -14.362       10.133       12.661       10.553      102.674      160.312      111.376        0.544        0.019      101.462        4.464        0.002      334.143        3.921      872.453
11/24/2014  20:15:00      -86.758      -25.218      -16.484       10.698       11.153        8.734      114.458      124.391       76.289        0.437        0.016       90.349        3.765        0.002      334.172        3.971      872.446
11/24/2014  20:16:00      -77.343      -22.050      -12.016       19.548       17.918       11.993      382.142      321.061      143.821        0.373        0.042       80.425        7.433        0.009      334.183        3.987      872.451
11/24/2014  20:17:00      -84.175      -17.650      -17.880       23.488       19.325       11.753      551.702      373.455      138.126        0.439        0.053       86.006       12.709        0.022      334.138        3.915      872.482
11/24/2014  20:18:00      -99.200      -23.285      -13.507       21.296       19.722       11.317      453.531      388.961      128.082        0.577        0.049      101.897       12.057        0.014      334.078        3.814      872.503
11/24/2014  20:19:00     -106.028      -19.818      -15.286       20.300       16.683       12.588      412.102      278.307      158.468        0.636        0.042      107.864        4.550        0.002      333.961        3.620      872.504
11/24/2014  20:20:00     -107.006      -11.408      -13.779       22.646       15.949       14.952      512.856      254.384      223.561        0.638        0.050      107.612        8.728        0.007      333.948        3.599      872.492
11/24/2014  20:21:00      -83.336      -26.277      -13.578       14.803       14.892       11.359      219.130      221.778      129.036        0.419        0.028       87.380        5.230        0.004      333.951        3.603      872.496
11/24/2014  20:22:00      -74.092      -14.943      -14.383       13.267       14.748       11.293      176.025      217.518      127.534        0.322        0.026       75.584        8.168        0.012      333.964        3.624      872.489
11/24/2014  20:23:00      -82.233       -8.646      -14.316       17.563       12.222        7.860      308.460      149.376       61.783        0.378        0.026       82.686        3.018        0.001      334.071        3.803      872.484
11/24/2014  20:24:00      -65.795      -19.553      -18.067       14.423       10.071        6.995      208.034      101.415       48.928        0.270        0.018       68.639        4.345        0.004      334.072        3.805      872.488
11/24/2014  20:25:00      -80.668      -22.288      -19.045       14.067       12.383       10.013      197.882      153.331      100.255        0.391        0.023       83.690        7.860        0.009      334.076        3.810      872.488
11/24/2014  20:26:00      -64.181      -30.632      -12.544       10.427       12.656       10.462      108.731      160.182      109.446        0.280        0.019       71.116        5.986        0.007      333.983        3.658      872.491
11/24/2014  20:27:00      -79.394      -27.137      -13.615       17.869       15.930       10.592      319.304      253.769      112.188        0.396        0.034       83.904        8.669        0.011      333.936        3.580      872.502
11/24/2014  20:28:00      -98.918      -14.425      -14.135       20.852       15.757       13.832      434.820      248.277      191.337        0.553        0.044       99.964        7.460        0.006      333.941        3.587      872.495
11/24/2014  20:29:00     -105.579      -32.647      -18.286       21.375       16.462       11.999      456.877      271.011      143.972        0.671        0.044      110.512       10.080        0.008      333.931        3.570      872.475
11/24/2014  20:30:00      -88.035      -37.392      -15.132       15.496       15.099        8.694      240.113      227.987       75.581        0.496        0.027       95.647        6.214        0.004      333.959        3.617      872.460
11/24/2014  20:31:00      -70.444      -16.292      -11.961       11.416       11.811       11.398      130.328      139.491      129.921        0.289        0.020       72.304        5.310        0.005      334.054        3.775      872.455
11/24/2014  20:32:00      -58.343      -20.468      -13.121       10.745       11.506        5.716      115.465      132.387       32.676        0.214        0.014       61.829        4.385        0.005      334.091        3.833      872.462
11/24/2014  20:33:00      -44.219      -27.867      -11.847        9.156        5.634        5.394       83.840       31.746       29.097        0.151        0.007       52.267        1.994        0.001      334.139        3.916      872.474
11/24/2014  20:34:00      -56.324      -21.534      -11.238        6.277        8.363        7.375       39.399       69.936       54.395        0.196        0.008       60.300        3.466        0.003      334.168        3.965      872.488
11/24/2014  20:35:00      -62.451       -2.687      -10.574        6.856        7.084        7.942       47.001       50.185       63.075        0.209        0.008       62.509        4.922        0.006      334.224        4.056      872.505
11/24/2014  20:36:00      -45.446      -16.303       -4.317        6.322        9.782        5.559       39.964       95.688       30.908        0.126        0.008       48.282        4.653        0.009      334.229        4.063      872.517
11/24/2014  20:37:00      -53.266      -18.468      -12.412        9.183        8.630        6.524       84.319       74.485       42.559        0.177        0.010       56.377        6.524        0.013      334.203        4.022      872.526
11/24/2014  20:38:00      -82.977      -16.950      -21.141       17.979       11.909        7.469      323.243      141.826       55.783        0.407        0.026       84.691        3.690        0.002      334.020        3.719      872.533
11/24/2014  20:39:00     -111.923      -17.093      -16.360       13.931       11.162       12.200      194.065      124.595      148.831        0.678        0.023      113.220        8.576        0.006      333.892        3.506      872.529
11/24/2014  20:40:00      -52.127      -10.162      -11.468       17.393        8.131        7.419      302.528       66.118       55.048        0.169        0.021       53.109        7.903        0.022      333.972        3.639      872.538
11/24/2014  20:41:00       -4.831       23.795      -10.204       28.056       14.664       10.397      787.133      215.030      108.094        0.090        0.056       24.280       12.626        0.270      334.685        4.819      872.545
11/24/2014  20:42:00        4.803       20.906       -3.339       11.350       26.422       15.128      128.832      698.125      228.860        0.076        0.053       21.451       10.206        0.226      334.816        5.038      872.552
11/24/2014  20:43:00       18.633       21.977       -1.640       10.897       27.750       10.234      118.739      770.064      104.732        0.091        0.050       28.813        7.674        0.071      334.797        5.006      872.567
11/24/2014  20:44:00       17.614       20.120        1.753       12.695       13.132        7.168      161.162      172.455       51.376        0.055        0.019       26.741        6.573        0.060      334.795        5.002      872.597
11/24/2014  20:45:00       19.581       11.420        6.753        5.194        7.641        6.503       26.977       58.386       42.290        0.034        0.006       22.668        4.475        0.039      334.680        4.812      872.622
11/24/2014  20:46:00       26.511       19.133        3.992        9.281        7.911        5.765       86.142       62.585       33.237        0.063        0.009       32.694        4.416        0.018      334.607        4.692      872.646
11/24/2014  20:47:00       26.891       16.525       -0.408        9.068        9.837        9.019       82.234       96.762       81.337        0.063        0.013       31.563        5.606        0.032      334.644        4.752      872.659
11/24/2014  20:48:00        5.536       18.977       -5.648        8.834       12.318        5.513       78.031      151.739       30.392        0.034        0.013       19.768        4.666        0.056      334.610        4.695      872.679
11/24/2014  20:49:00        6.450       23.027       -3.764       12.257       19.033        7.912      150.235      362.255       62.597        0.058        0.029       23.913        5.723        0.057      334.627        4.725      872.689
11/24/2014  20:50:00       -2.809       41.875       -4.813       13.764        8.528        5.689      189.456       72.727       32.369        0.104        0.015       41.969        3.940        0.009      334.687        4.824      872.695
11/24/2014  20:51:00       -7.055       43.796       -9.990       10.992       12.683        8.243      120.819      160.870       67.951        0.121        0.017       44.361        5.913        0.018      334.697        4.844      872.701
11/24/2014  20:52:00      -43.004      -20.776       -0.503       23.360       14.293       14.712      545.687      204.288      216.431        0.162        0.048       47.759       14.576        0.093      334.061        3.784      872.710
11/24/2014  20:53:00      -79.348      -10.599      -14.611       19.213       16.421       12.362      369.143      269.647      152.817        0.371        0.040       80.053        6.143        0.006      333.751        3.271      872.711
11/24/2014  20:54:00      -82.004      -17.444      -12.094       19.691       21.527       11.432      387.744      463.414      130.698        0.408        0.049       83.839       10.500        0.016      333.804        3.359      872.718
11/24/2014  20:55:00      -84.996      -19.461      -10.912       17.368       30.880       11.920      301.642      953.578      142.081        0.456        0.070       87.196       16.257        0.035      333.794        3.344      872.730
11/24/2014  20:56:00      -73.963       -9.925      -18.109       11.911       15.599       13.164      141.864      243.319      173.295        0.323        0.028       74.626        7.574        0.010      333.820        3.386      872.733
11/24/2014  20:57:00      -50.750      -26.325      -11.168       15.921       18.908        9.594      253.467      357.523       92.037        0.205        0.035       57.171        8.356        0.021      333.973        3.639      872.731
11/24/2014  20:58:00      -40.160      -17.567       -8.226       14.716       16.809       11.119      216.575      282.529      123.638        0.131        0.031       43.834        9.239        0.044      334.019        3.716      872.725
11/24/2014  20:59:00      -50.050      -16.418       -6.033       12.748       12.811        9.467      162.500      164.109       89.631        0.161        0.021       52.674        4.370        0.007      333.845        3.428      872.730
11/24/2014  21:00:00      -95.214       -7.362      -19.950       12.344        9.576        9.299      152.375       91.708       86.474        0.492        0.017       95.498        5.813        0.004      333.708        3.199      872.731
11/24/2014  21:01:00      -97.539       -9.282      -16.664       16.414       16.466       12.041      269.414      271.114      144.980        0.528        0.034       97.980        9.734        0.010      333.611        3.040      872.726
11/24/2014  21:02:00      -70.186       -5.708      -14.856       12.247       13.031        8.257      149.993      169.814       68.177        0.278        0.019       70.417        4.375        0.004      333.690        3.170      872.714
11/24/2014  21:03:00      -59.424       -8.781      -14.439       13.168       18.761       10.811      173.389      351.982      116.868        0.223        0.032       60.069        6.882        0.013      334.046        3.759      872.703
11/24/2014  21:04:00      -65.031      -13.501      -11.719       13.539       11.026       10.401      183.309      121.578      108.174        0.248        0.021       66.418        9.006        0.018      334.009        3.700      872.695
11/24/2014  21:05:00      -95.348      -18.946      -15.533       21.314       17.591       11.703      454.283      309.448      136.951        0.530        0.045       97.212       12.443        0.016      333.703        3.193      872.711
11/24/2014  21:06:00     -108.868      -22.444      -12.405       24.443       22.238       17.457      597.479      494.532      304.758        0.695        0.070      111.158       11.813        0.011      333.572        2.975      872.735
11/24/2014  21:07:00      -69.937      -15.374       -0.617       37.154       32.741       21.879     1380.428     1071.951      478.675        0.403        0.147       71.607       19.437        0.074      333.597        3.015      872.755
11/24/2014  21:08:00      -59.044      -13.076       -3.811       35.011       39.245       25.117     1225.751     1540.178      630.863        0.353        0.170       60.475       19.302        0.102      333.648        3.102      872.783
11/24/2014  21:09:00      -98.303      -15.756       -6.871       35.493       38.391       20.423     1259.748     1473.835      417.089        0.655        0.158       99.558       17.573        0.031      333.742        3.255      872.789
11/24/2014  21:10:00      -30.974      -28.742        5.782       33.827       26.394       20.136     1144.256      696.661      405.458        0.203        0.112       42.255       20.678        0.239      333.683        3.157      872.782
11/24/2014  21:11:00      -45.158      -21.345       -1.052       30.958       22.278       20.429      958.402      496.288      417.339        0.218        0.094       49.948       21.425        0.184      333.707        3.197      872.777
11/24/2014  21:12:00      -68.691      -25.374       -1.335       30.561       26.342       14.598      933.975      693.880      213.105        0.360        0.092       73.227       12.624        0.030      333.734        3.243      872.763
11/24/2014  21:13:00      -99.643       -7.726       -7.115       33.110       30.298       19.114     1096.273      917.939      365.326        0.621        0.119       99.942       19.095        0.037      333.828        3.400      872.766
11/24/2014  21:14:00     -116.111      -11.038       -6.449       31.010       23.724       19.088      961.618      562.845      364.357        0.777        0.094      116.635       16.164        0.019      333.724        3.226      872.789
11/24/2014  21:15:00     -121.238      -18.333       -7.929       31.022       32.824       17.683      962.358     1077.407      312.675        0.872        0.118      122.617       15.116        0.015      333.606        3.031      872.815
11/24/2014  21:16:00     -110.637      -35.975      -18.232       25.794       34.072       20.156      665.313     1160.920      406.268        0.805        0.112      116.339       18.772        0.026      333.612        3.042      872.831
11/24/2014  21:17:00     -128.584      -27.364      -23.917       29.842       26.838       18.090      890.528      720.293      327.231        0.990        0.097      131.464       15.542        0.014      333.608        3.033      872.837
11/24/2014  21:18:00     -121.231      -37.953      -11.132       30.566       38.297       18.067      934.260     1466.658      326.431        0.949        0.136      127.033       13.455        0.011      333.586        2.998      872.833
11/24/2014  21:19:00     -112.418      -42.879      -11.214       20.883       18.268       11.376      436.082      333.710      129.414        0.775        0.045      120.318        9.318        0.006      333.548        2.933      872.821
11/24/2014  21:20:00     -128.949      -34.643       -7.326       27.858       23.174       16.820      776.065      537.053      282.916        0.974        0.080      133.521       14.037        0.011      333.619        3.053      872.811
11/24/2014  21:21:00     -107.295      -56.506      -11.467       27.440       22.341       17.657      752.936      499.108      311.785        0.820        0.078      121.265       15.735        0.017      333.606        3.032      872.805
11/24/2014  21:22:00      -96.292      -30.472       -7.186       28.476       17.732       18.257      810.902      314.434      333.303        0.586        0.073      100.998       17.724        0.031      333.609        3.036      872.793
11/24/2014  21:23:00     -113.633      -50.303       -5.454       21.510       21.520       13.895      462.680      463.091      193.069        0.830        0.056      124.269        8.238        0.004      333.660        3.121      872.784
11/24/2014  21:24:00     -102.182      -34.075       -2.075       28.578       23.939       15.921      816.722      573.088      253.493        0.662        0.082      107.714       13.576        0.016      333.646        3.096      872.774
11/24/2014  21:25:00      -68.436      -28.230        0.342       32.976       25.552       14.581     1087.419      652.929      212.608        0.372        0.098       74.030       15.054        0.041      333.676        3.147      872.766
11/24/2014  21:26:00      -78.919      -37.011       -0.022       27.978       20.871       18.342      782.778      435.618      336.411        0.458        0.078       87.166       15.141        0.030      333.710        3.203      872.760
11/24/2014  21:27:00      -40.808      -36.445        4.250       32.454       17.131       16.491     1053.295      293.466      271.968        0.231        0.081       54.713       18.059        0.109      333.755        3.278      872.751
11/24/2014  21:28:00      -48.639      -43.597        2.604       23.379       15.940       10.108      546.600      254.075      102.163        0.259        0.045       65.319       11.007        0.028      333.779        3.318      872.748
11/24/2014  21:29:00      -50.844      -44.529       -0.790       16.458       10.911       10.682      270.880      119.050      114.096        0.254        0.025       67.587        9.113        0.018      333.849        3.433      872.744
11/24/2014  21:30:00      -54.400      -49.538       -6.302       10.860        9.215        7.769      117.932       84.907       60.351        0.286        0.013       73.576        3.320        0.002      333.804        3.360      872.738
11/24/2014  21:31:00      -60.461      -47.980       -7.846       12.322       10.484        8.927      151.823      109.921       79.696        0.318        0.017       77.186        3.195        0.002      333.792        3.339      872.744
11/24/2014  21:32:00      -69.717      -34.106        1.624       21.330       16.995       12.157      454.962      288.845      147.784        0.346        0.045       77.612       11.747        0.023      333.759        3.285      872.749
11/24/2014  21:33:00      -89.381      -49.780       -3.292       16.740       13.935       10.255      280.221      194.197      105.166        0.553        0.029      102.308        6.242        0.004      333.766        3.297      872.749
11/24/2014  21:34:00      -89.170      -47.440       -4.525       10.722       10.751        8.265      114.954      115.579       68.306        0.526        0.015      101.004        4.518        0.002      333.704        3.194      872.745
11/24/2014  21:35:00      -96.652      -36.533      -10.878       12.231       15.642        8.316      149.588      244.683       69.148        0.563        0.023      103.327        5.709        0.003      333.671        3.138      872.739
11/24/2014  21:36:00     -102.983      -41.900      -10.059       10.463       13.651        9.028      109.466      186.358       81.497        0.642        0.019      111.181        4.549        0.002      333.618        3.050      872.745
11/24/2014  21:37:00      -80.174      -21.985       -1.497       21.191       17.281       13.454      449.041      298.649      180.997        0.392        0.046       83.134        9.493        0.013      333.593        3.008      872.756
11/24/2014  21:38:00      -70.892      -38.235        2.392       23.348       20.053       13.425      545.121      402.126      180.225        0.381        0.056       80.545       12.283        0.023      333.627        3.066      872.762
11/24/2014  21:39:00      -86.545      -34.960       -0.494       28.680       18.907       14.349      822.519      357.465      205.883        0.505        0.069       93.339       14.040        0.023      333.603        3.026      872.762
11/24/2014  21:40:00     -101.339      -34.564       -7.122       33.063       18.432       12.804     1093.177      339.724      163.930        0.656        0.080      107.072       13.623        0.016      333.537        2.917      872.766
11/24/2014  21:41:00      -98.797      -50.831       -3.451       19.926       11.959       12.526      397.048      143.017      156.897        0.653        0.035      111.107        8.768        0.006      333.449        2.772      872.789
11/24/2014  21:42:00     -106.875      -43.934      -10.638       22.967       15.684       12.171      527.480      245.984      148.140        0.719        0.046      115.553       12.479        0.012      333.450        2.771      872.798
11/24/2014  21:43:00     -100.742      -33.865       -5.389       27.435       21.956       15.217      752.698      482.045      231.560        0.640        0.073      106.282       10.865        0.010      333.385        2.665      872.798
11/24/2014  21:44:00      -91.302      -33.580        2.748       31.061       23.055       15.971      964.783      531.536      255.082        0.561        0.088       97.281       14.009        0.021      333.429        2.739      872.789
11/24/2014  21:45:00      -94.040      -22.959       -6.867       27.782       21.904       14.471      771.827      479.771      209.399        0.544        0.073       96.802       11.787        0.015      333.476        2.815      872.790
11/24/2014  21:46:00      -62.002      -19.935        1.097       52.297       29.914       20.030     2734.995      894.834      401.186        0.414        0.202       65.127       26.521        0.166      333.412        2.710      872.806
11/24/2014  21:47:00      -27.673      -28.833        3.665       48.069       24.719       19.846     2310.587      611.038      393.873        0.246        0.166       39.964       22.823        0.326      333.445        2.764      872.823
11/24/2014  21:48:00      -50.041      -35.151        2.059       34.198       29.449       19.759     1169.511      867.248      390.420        0.309        0.121       61.153       18.847        0.095      333.417        2.718      872.838
11/24/2014  21:49:00     -101.876      -45.720      -14.220       23.912       19.310       14.792      571.789      372.870      218.807        0.692        0.058      111.665       12.275        0.012      333.444        2.761      872.862
11/24/2014  21:50:00      -70.887      -44.684       -0.072       38.403       34.314       17.763     1474.782     1177.448      315.526        0.499        0.148       83.795       17.880        0.046      333.437        2.751      872.876
11/24/2014  21:51:00      -59.132      -23.024       -1.844       25.905       19.221       14.577      671.053      369.439      212.492        0.264        0.063       63.456       14.832        0.055      333.358        2.618      872.874
11/24/2014  21:52:00      -90.083        1.259       -6.732       57.442       32.292       24.499     3299.625     1042.771      600.215        0.655        0.247       90.091       26.169        0.084      333.325        2.565      872.885
11/24/2014  21:53:00     -102.801      -17.589      -12.381       26.077       25.227       14.288      680.020      636.426      204.138        0.628        0.076      104.295       11.368        0.012      333.297        2.519      872.896
11/24/2014  21:54:00     -104.470      -24.024       -9.998       22.490       20.634       11.462      505.780      425.781      131.373        0.633        0.053      107.197        8.977        0.007      333.336        2.583      872.904
11/24/2014  21:55:00      -88.779      -33.632      -14.665       18.052       13.852       10.422      325.881      191.875      108.627        0.493        0.031       94.936        4.893        0.003      333.336        2.584      872.915
11/24/2014  21:56:00      -12.860      -36.454        4.509       33.959       27.763       15.580     1153.196      770.777      242.731        0.184        0.108       38.656       15.122        0.153      333.383        2.662      872.922
11/24/2014  21:57:00        2.471      -20.646       -2.433        8.546       15.171        9.054       73.032      230.151       81.984        0.041        0.019       20.793        5.844        0.079      333.458        2.786      872.921
11/24/2014  21:58:00      -17.854      -15.120       -6.863       20.422       15.906        6.590      417.056      253.008       43.429        0.065        0.036       23.396        6.418        0.075      333.455        2.780      872.941
11/24/2014  21:59:00      -68.587      -17.597       -8.615       15.785        9.401        9.230      249.151       88.385       85.201        0.276        0.021       70.808        7.033        0.010      333.367        2.637      872.959
11/24/2014  22:00:00      -42.302      -21.340       -9.958       11.529       10.385        7.564      132.927      107.848       57.214        0.132        0.015       47.380        5.499        0.013      333.332        2.576      872.967
11/24/2014  22:01:00      -13.537      -14.495        0.228       15.060        8.176        9.517      226.814       66.852       90.579        0.039        0.019       19.833        9.443        0.227      333.361        2.626      872.970
11/24/2014  22:02:00      -31.731      -18.229       -6.083        6.439       11.542        6.883       41.464      133.211       47.377        0.080        0.011       36.594        4.841        0.018      333.404        2.696      872.984
11/24/2014  22:03:00      -37.478       -9.313       -4.425        7.670        7.289        5.208       58.836       53.134       27.118        0.082        0.007       38.617        4.846        0.016      333.440        2.757      873.013
11/24/2014  22:04:00      -33.731       -9.740      -14.376        9.864        6.923        8.082       97.299       47.932       65.325        0.082        0.011       35.109        5.085        0.021      333.483        2.828      873.041
11/24/2014  22:05:00      -43.087      -10.735       -4.032        8.220        7.066        4.741       67.572       49.922       22.475        0.106        0.007       44.404        3.483        0.006      333.512        2.876      873.063
11/24/2014  22:06:00      -32.513        3.717       -5.932        9.602        9.200        3.529       92.205       84.633       12.453        0.065        0.009       32.725        2.809        0.007      333.460        2.788      873.096
11/24/2014  22:07:00      -28.554       11.361       -5.925       14.213        5.916        9.763      202.022       35.001       95.321        0.066        0.017       30.731        5.266        0.029      333.482        2.824      873.116
11/24/2014  22:08:00       -0.609       61.179       -8.568       12.139       29.314        7.164      147.349      859.284       51.318        0.244        0.053       61.182       10.340        0.029      333.849        3.435      873.127
11/24/2014  22:09:00        8.567       70.185      -13.427        7.240       19.775        8.442       52.423      391.034       71.265        0.285        0.026       70.706        7.444        0.011      333.905        3.528      873.137
11/24/2014  22:10:00        1.565       63.331       -7.189        5.992        7.870        7.086       35.907       61.931       50.204        0.211        0.007       63.351        3.815        0.004      333.817        3.380      873.136
11/24/2014  22:11:00        7.323       50.781       -6.674       12.199       14.936        7.378      148.825      223.075       54.439        0.155        0.021       51.306        5.897        0.013      333.774        3.310      873.134
11/24/2014  22:12:00       17.305       28.461       -6.329       12.516       17.973       10.072      156.654      323.025      101.435        0.087        0.029       33.308        8.971        0.073      333.620        3.054      873.156
11/24/2014  22:13:00       29.657       32.142       -6.836       13.163       19.820       12.624      173.276      392.844      159.359        0.134        0.036       43.734       13.410        0.094      333.515        2.880      873.182
11/24/2014  22:14:00       15.892       33.181       -0.805       12.545       18.868        9.945      157.372      356.019       98.897        0.098        0.031       36.791       10.224        0.077      333.501        2.858      873.191
11/24/2014  22:15:00       37.984       21.147        5.441       22.109       10.926       10.267      488.830      119.382      105.417        0.132        0.036       43.474        4.981        0.013      333.557        2.950      873.188
11/24/2014  22:16:00       50.345       20.521        8.717       19.718       11.981        7.997      388.807      143.536       63.958        0.181        0.030       54.366        6.358        0.014      333.585        2.996      873.180
11/24/2014  22:17:00       45.983       16.189        6.548       17.860       14.061        9.390      318.983      197.718       88.163        0.151        0.030       48.749        1.703        0.001      333.635        3.078      873.178
11/24/2014  22:18:00       37.424        8.479        4.589       21.972       12.322        9.099      482.758      151.829       82.797        0.111        0.036       38.372        6.707        0.031      333.605        3.028      873.177
11/24/2014  22:19:00       68.052       26.058        5.999       18.392       12.161       10.059      338.265      147.880      101.183        0.297        0.029       72.870        3.994        0.003      333.608        3.034      873.171
11/24/2014  22:20:00       37.653       13.252        6.972       15.260       12.506       13.072      232.858      156.395      170.883        0.110        0.028       39.916        8.521        0.046      333.574        2.977      873.178
11/24/2014  22:21:00       17.071        4.084        6.201       15.890        8.518        8.404      252.493       72.549       70.634        0.037        0.020       17.553        5.143        0.086      333.564        2.961      873.190
11/24/2014  22:22:00       -5.087        6.718        2.309       11.702       11.806        7.207      136.929      139.389       51.940        0.020        0.016        8.427        7.370        0.765      333.648        3.101      873.201
11/24/2014  22:23:00      -31.980        4.458       -5.757       21.059       10.979        9.686      443.486      120.528       93.826        0.087        0.033       32.289       12.497        0.150      333.425        2.731      873.203
11/24/2014  22:24:00      -53.427      -11.451      -13.754        6.417        7.105        6.127       41.182       50.481       37.541        0.165        0.006       54.640        1.675        0.001      333.220        2.391      873.191
11/24/2014  22:25:00      -53.013      -13.004       -7.675       13.544       13.219        9.032      183.436      174.732       81.575        0.174        0.022       54.585        5.001        0.008      333.352        2.610      873.178
11/24/2014  22:26:00      -32.796      -18.729       -5.881       16.491        8.928        8.234      271.958       79.717       67.803        0.094        0.021       37.767        7.921        0.044      333.385        2.665      873.176
11/24/2014  22:27:00      -52.912       -8.073       -5.169       12.869        9.413        7.252      165.608       88.613       52.599        0.160        0.015       53.524        7.154        0.018      333.429        2.738      873.175
11/24/2014  22:28:00      -58.877      -14.954      -11.541       12.827       11.768        6.917      164.531      138.478       47.843        0.209        0.018       60.746        5.945        0.010      333.351        2.609      873.191
11/24/2014  22:29:00      -86.920      -19.761      -10.232       15.312       10.498        7.461      234.445      110.199       55.662        0.423        0.020       89.138        6.506        0.005      333.278        2.487      873.206
11/24/2014  22:30:00      -94.673      -27.808      -13.195        5.773        8.300        6.647       33.326       68.896       44.180        0.503        0.007       98.672        4.943        0.003      333.352        2.610      873.220
11/24/2014  22:31:00      -76.928       -9.577      -10.765       18.421       10.953        8.630      339.344      119.961       74.486        0.333        0.027       77.522        8.122        0.011      333.217        2.386      873.240
11/24/2014  22:32:00      -75.791      -10.665       -5.817       14.684       11.893        9.885      215.626      141.453       97.714        0.317        0.023       76.538        7.211        0.009      333.282        2.495      873.258
11/24/2014  22:33:00      -87.188       -2.701       -9.829        8.730        8.985        8.728       76.212       80.729       76.173        0.397        0.012       87.230        4.368        0.003      333.341        2.592      873.272
11/24/2014  22:34:00      -81.152      -11.472      -14.848       12.108       10.713        9.040      146.607      114.759       81.719        0.364        0.017       81.959        7.412        0.008      333.380        2.658      873.296
11/24/2014  22:35:00      -84.084      -13.781      -14.491       17.148       12.162        8.613      294.061      147.912       74.178        0.399        0.026       85.206        7.831        0.008      333.404        2.695      873.323
11/24/2014  22:36:00      -63.036      -22.811      -14.351       22.914       18.318       12.212      525.070      335.532      149.141        0.285        0.050       67.036        8.854        0.017      333.325        2.565      873.342
11/24/2014  22:37:00      -72.908      -52.228      -10.206       19.774       27.331       13.900      390.996      746.980      193.197        0.474        0.067       89.684        9.683        0.012      333.229        2.406      873.352
11/24/2014  22:38:00      -97.351      -51.391       -8.125       44.218       22.262       16.130     1955.243      495.605      260.163        0.745        0.136      110.083       18.493        0.028      333.049        2.109      873.381
11/24/2014  22:39:00     -133.309      -56.674      -19.422       18.818       16.242       13.550      354.136      263.786      183.608        1.108        0.040      144.856        8.866        0.004      332.979        1.995      873.413
11/24/2014  22:40:00     -113.556      -49.713       -7.504       32.583       33.556       20.634     1061.647     1126.038      425.766        0.902        0.131      123.961       22.577        0.033      332.894        1.853      873.430
11/24/2014  22:41:00     -119.970      -17.068      -14.067       30.144       19.819       18.639      908.665      392.796      347.397        0.827        0.082      121.178       17.322        0.020      332.925        1.906      873.436
11/24/2014  22:42:00      -83.648       -9.071       -8.937       32.536       29.279       19.491     1058.618      857.259      379.904        0.473        0.115       84.139       18.087        0.046      333.049        2.109      873.436
11/24/2014  22:43:00      -81.703      -25.530      -10.798       40.727       24.826       16.320     1658.725      616.354      266.358        0.499        0.127       85.599        7.766        0.008      333.054        2.118      873.436
11/24/2014  22:44:00     -108.212      -26.725       -0.248       35.825       32.887       24.440     1283.437     1081.532      597.337        0.769        0.148      111.463       19.735        0.031      333.001        2.030      873.424
11/24/2014  22:45:00     -110.429      -32.897       -9.376       31.523       35.981       19.540      993.683     1294.634      381.829        0.802        0.134      115.225       17.558        0.023      332.995        2.019      873.416
11/24/2014  22:46:00     -113.214      -36.020       -3.544       25.488       33.047       20.510      649.634     1092.124      420.677        0.814        0.108      118.806       19.233        0.026      332.860        1.798      873.421
11/24/2014  22:47:00      -82.502      -25.780       -5.943       44.816       24.404       18.814     2008.478      595.557      353.979        0.523        0.148       86.436       20.004        0.054      332.811        1.716      873.421
11/24/2014  22:48:00     -120.370       -5.595        0.053       50.197       25.883       26.760     2519.777      669.920      716.077        0.921        0.195      120.500       29.797        0.061      332.859        1.797      873.414
11/24/2014  22:49:00     -110.142      -17.257       -4.943       55.876       47.649       24.431     3122.153     2270.427      596.865        0.922        0.299      111.485       25.800        0.054      332.857        1.793      873.409
11/24/2014  22:50:00     -107.984       17.970       -8.101       68.401       44.261       31.940     4678.685     1959.051     1020.156        0.985        0.383      109.469       34.849        0.101      332.870        1.814      873.412
11/24/2014  22:51:00     -164.004       46.103      -21.483       58.014       45.034       30.528     3365.626     2028.085      931.960        1.790        0.316      170.361       20.514        0.015      332.848        1.777      873.421
11/24/2014  22:52:00     -155.548       43.298      -14.153       65.161       34.927       25.517     4245.947     1219.887      651.126        1.619        0.306      161.462       22.841        0.020      332.779        1.663      873.436
11/24/2014  22:53:00     -147.959       32.871      -15.005       54.458       37.178       29.335     2965.665     1382.167      860.565        1.420        0.260      151.566       24.994        0.027      332.905        1.871      873.439
11/24/2014  22:54:00     -103.291        9.289       -7.623       44.093       34.554       29.304     1944.192     1194.002      858.723        0.740        0.200      103.708       21.194        0.042      332.926        1.906      873.445
11/24/2014  22:55:00      -73.075       18.411      -11.222       54.638       36.714       25.268     2985.314     1347.893      638.490        0.539        0.249       75.358       10.341        0.019      333.026        2.072      873.457
11/24/2014  22:56:00      -79.042      -25.037       -5.806       40.900       37.426       25.632     1672.820     1400.696      656.995        0.532        0.187       82.913       19.449        0.055      332.955        1.955      873.474
11/24/2014  22:57:00      -83.339       -2.633      -10.223       52.794       46.012       20.115     2787.225     2117.085      404.594        0.618        0.265       83.381       15.503        0.035      333.006        2.039      873.500
11/24/2014  22:58:00      -63.291        1.973       -9.446       36.176       32.184       20.240     1308.721     1035.806      409.648        0.343        0.138       63.322       16.824        0.071      332.942        1.934      873.506
11/24/2014  22:59:00      -54.858       -7.477       -4.008       31.701       27.236       21.110     1004.963      741.814      445.643        0.264        0.110       55.365       16.254        0.086      332.956        1.958      873.500
11/24/2014  23:00:00      -58.561      -31.275      -13.475       33.727       21.913       17.932     1137.522      480.177      321.550        0.326        0.097       66.390        7.105        0.011      332.928        1.910      873.502
11/24/2014  23:01:00      -85.406      -38.710       -5.042       42.027       22.762       18.687     1766.273      518.111      349.187        0.573        0.132       93.769       16.261        0.030      332.830        1.750      873.500
11/24/2014  23:02:00       -4.030      -16.586        3.550       19.848       12.885       13.142      393.946      166.029      172.720        0.052        0.037       17.068        8.121        0.226      332.821        1.736      873.493
11/24/2014  23:03:00        3.406      -23.517        2.234       23.317       14.214       14.694      543.683      202.051      215.920        0.077        0.048       23.762       11.595        0.238      332.902        1.868      873.480
11/24/2014  23:04:00      -57.837       -0.759       -9.689       42.256       26.800       18.070     1785.541      718.227      326.537        0.313        0.142       57.842       22.425        0.150      333.031        2.079      873.471
11/24/2014  23:05:00      -74.206        1.338      -11.646       32.172       28.833       18.887     1035.054      831.334      356.704        0.393        0.111       74.218       18.352        0.061      333.197        2.353      873.492
11/24/2014  23:06:00      -77.175      -26.674       -5.232       24.260       24.305       19.400      588.563      590.727      376.365        0.412        0.078       81.654       18.228        0.050      333.056        2.121      873.509
11/24/2014  23:07:00      -58.083      -45.763      -15.870       24.382       21.289       15.590      594.477      453.230      243.053        0.350        0.065       73.945        8.258        0.012      332.904        1.870      873.510
11/24/2014  23:08:00      -98.999       -9.286       -9.670       27.499       27.558       18.984      756.188      759.460      360.381        0.593        0.094       99.433        9.505        0.009      332.835        1.757      873.502
11/24/2014  23:09:00      -79.534      -47.541      -14.645       33.145       24.386       18.161     1098.595      594.675      329.808        0.541        0.101       92.660       13.514        0.021      332.844        1.772      873.500
11/24/2014  23:10:00      -91.009      -38.228       -8.643       47.198       34.948       25.563     2227.657     1221.377      653.483        0.696        0.205       98.712       21.657        0.048      332.840        1.763      873.520
11/24/2014  23:11:00      -67.909      -47.329       -8.481       38.769       41.274       30.824     1503.059     1703.516      950.133        0.554        0.208       82.775       29.100        0.124      332.879        1.831      873.519
11/24/2014  23:12:00      -89.074      -12.531       -4.813       30.698       21.882       21.509      942.342      478.807      462.629        0.500        0.094       89.952       17.859        0.039      332.867        1.810      873.509
11/24/2014  23:13:00      -52.664      -42.951      -12.920       45.434       27.578       20.458     2064.254      760.568      418.538        0.401        0.162       67.958       18.573        0.075      332.901        1.866      873.508
11/24/2014  23:14:00      -57.284      -35.732      -21.830       32.647       24.217       14.447     1065.854      586.459      208.714        0.345        0.093       67.515        6.217        0.008      332.878        1.829      873.518
11/24/2014  23:15:00     -109.701      -32.281      -16.402       50.050       26.359       22.883     2504.971      694.792      523.645        0.853        0.186      114.352       17.848        0.024      332.886        1.840      873.526
11/24/2014  23:16:00     -103.081       -0.778       -3.542       41.882       36.448       24.045     1754.121     1328.486      578.167        0.715        0.183      103.084       22.590        0.048      332.825        1.740      873.531
11/24/2014  23:17:00      -90.223      -19.804       -6.463       32.430       27.464       16.843     1051.732      754.264      283.686        0.533        0.104       92.371       14.037        0.023      332.808        1.712      873.532
11/24/2014  23:18:00     -104.297      -18.002      -14.447       17.770       15.462       12.963      315.762      239.070      168.032        0.607        0.036      105.839        6.969        0.004      332.852        1.786      873.528
11/24/2014  23:19:00     -106.491      -37.877      -14.400       23.484       15.923       15.659      551.484      253.547      245.212        0.702        0.053      113.026       13.941        0.015      332.901        1.866      873.527
11/24/2014  23:20:00      -82.679      -43.969      -10.925       29.720       22.062       17.564      883.264      486.711      308.494        0.528        0.084       93.643       13.859        0.022      332.926        1.907      873.544
11/24/2014  23:21:00     -102.762      -29.189      -10.010       17.389       22.763       14.294      302.395      518.138      204.322        0.627        0.051      106.827        8.127        0.006      332.926        1.908      873.577
11/24/2014  23:22:00     -109.600      -33.230      -10.740       17.833       15.752       11.065      318.005      248.111      122.435        0.696        0.034      114.527        8.813        0.006      332.855        1.793      873.603
11/24/2014  23:23:00     -114.060      -30.579       -6.634       15.496       14.948       12.539      240.136      223.456      157.229        0.730        0.031      118.088        5.531        0.002      332.872        1.822      873.628
11/24/2014  23:24:00      -94.988      -31.978      -10.876       20.294       12.394        8.238      411.851      153.623       67.869        0.540        0.032      100.226        4.847        0.002      332.889        1.848      873.641
11/24/2014  23:25:00      -83.136      -34.165      -12.962       16.733       18.037       10.048      279.990      325.326      100.961        0.448        0.035       89.882        9.919        0.012      332.930        1.912      873.652
11/24/2014  23:26:00      -55.806      -38.198       -4.686       16.517       16.712       12.250      272.818      279.289      150.061        0.265        0.035       67.627        8.268        0.015      332.991        2.014      873.667
11/24/2014  23:27:00      -94.209      -36.737       -9.895       14.032       12.390       11.059      196.895      153.520      122.294        0.540        0.024      101.119        7.459        0.005      332.966        1.972      873.684
11/24/2014  23:28:00      -74.273      -49.910       -2.533       22.490       22.168       14.199      505.813      491.428      201.605        0.461        0.060       89.484       13.203        0.022      332.957        1.956      873.702
11/24/2014  23:29:00      -78.235      -34.277       -3.990       18.059       13.242       11.308      326.133      175.339      127.879        0.397        0.031       85.414        8.135        0.009      333.044        2.102      873.709
11/24/2014  23:30:00      -86.473      -32.923       -2.874       14.433       16.376        9.487      208.318      268.182       90.010        0.457        0.028       92.528        6.899        0.006      333.090        2.177      873.694
11/24/2014  23:31:00      -77.857      -30.664       -3.633       12.384       12.149       11.000      153.362      147.590      120.991        0.372        0.021       83.678        6.870        0.007      332.977        1.991      873.683
11/24/2014  23:32:00      -50.299      -35.280       -2.016       26.296       17.492       12.584      691.489      305.986      158.345        0.247        0.058       61.439        8.473        0.019      332.926        1.906      873.674
11/24/2014  23:33:00      -64.737      -28.412       -7.924       10.235        9.436        7.303      104.757       89.038       53.330        0.265        0.012       70.697        4.518        0.004      332.985        2.004      873.675
11/24/2014  23:34:00      -59.375      -28.444       -5.999       12.942       13.179        7.695      167.493      173.692       59.216        0.239        0.020       65.837        6.560        0.010      333.035        2.087      873.672
11/24/2014  23:35:00      -45.598      -26.296       -7.064        7.966        6.887        5.499       63.450       47.432       30.240        0.148        0.007       52.637        4.685        0.008      333.072        2.149      873.677
11/24/2014  23:36:00      -53.179      -30.568       -3.923       10.157        9.292        8.487      103.158       86.335       72.028        0.202        0.013       61.339        4.520        0.005      333.007        2.041      873.681
11/24/2014  23:37:00      -81.742      -26.866       -9.767       10.109        8.055        6.897      102.193       64.883       47.572        0.386        0.011       86.043        3.945        0.002      332.950        1.945      873.695
11/24/2014  23:38:00      -98.250      -23.513      -13.222       16.795       12.310       11.752      282.066      151.538      138.101        0.548        0.029      101.025        9.311        0.008      332.959        1.959      873.715
11/24/2014  23:39:00      -90.892      -43.873       -9.463       15.319       12.825       10.999      234.661      164.485      120.983        0.540        0.026      100.927        9.317        0.009      332.883        1.838      873.737
11/24/2014  23:40:00      -78.247      -22.588       -6.172       15.911       20.985       14.044      253.161      440.365      197.223        0.378        0.045       81.442        7.656        0.009      332.838        1.763      873.757
11/24/2014  23:41:00      -82.881      -25.430      -13.793       14.929       13.051       11.744      222.875      170.327      137.912        0.412        0.027       86.695        8.262        0.009      332.804        1.706      873.762
11/24/2014  23:42:00      -90.284      -33.369       -8.697       20.243       16.533       12.520      409.768      273.348      156.760        0.509        0.042       96.253       10.117        0.011      332.792        1.685      873.771
11/24/2014  23:43:00     -120.420      -42.583       -7.337       11.926        9.969        8.037      142.221       99.388       64.596        0.834        0.015      127.727        5.087        0.002      332.819        1.732      873.783
11/24/2014  23:44:00     -122.415      -54.496       -9.376       18.911       17.949       15.571      357.623      322.155      242.466        0.948        0.046      133.998       10.340        0.006      332.809        1.716      873.793
11/24/2014  23:45:00      -93.390      -34.432       -5.722       27.709       19.408       13.222      767.811      376.667      174.817        0.563        0.066       99.536       13.415        0.018      332.798        1.696      873.799
11/24/2014  23:46:00      -85.703      -23.366       -5.058       26.408       16.992       17.227      697.404      288.718      296.762        0.460        0.064       88.831       16.829        0.036      332.783        1.672      873.813
11/24/2014  23:47:00      -65.895      -26.187       -6.746       21.202       16.085       10.664      449.533      258.721      113.725        0.295        0.041       70.908        9.906        0.020      332.789        1.682      873.820
11/24/2014  23:48:00      -63.368      -31.924        1.079       21.142       20.722       13.646      446.992      429.382      186.215        0.305        0.053       70.955       10.653        0.023      332.794        1.688      873.821
11/24/2014  23:49:00      -84.787      -32.495       -9.170       21.753       13.681       11.046      473.196      187.168      122.004        0.456        0.039       90.801        9.232        0.010      332.847        1.776      873.837
11/24/2014  23:50:00     -129.720      -42.150      -14.367       17.571       14.572       10.336      308.733      212.345      106.834        0.972        0.031      136.396        8.200        0.004      332.720        1.565      873.858
11/24/2014  23:51:00     -118.211      -44.590       -7.594       25.383       28.855       15.227      644.275      832.612      231.856        0.886        0.085      126.341       16.179        0.016      332.656        1.460      873.872
11/24/2014  23:52:00     -131.115      -26.088      -16.768       21.952       15.734       13.723      481.904      247.571      188.326        0.954        0.046      133.685        9.962        0.006      332.653        1.455      873.879
11/24/2014  23:53:00     -106.700      -15.105      -12.375       15.528       11.798       12.718      241.132      139.197      161.758        0.615        0.027      107.764        8.147        0.006      332.580        1.336      873.883
11/24/2014  23:54:00     -100.858       -8.747      -12.487       18.354       13.591       13.363      336.858      184.704      178.581        0.555        0.035      101.236        7.814        0.006      332.475        1.161      873.888
11/24/2014  23:55:00      -66.906       -1.374       -4.161       30.260       24.153       16.729      915.652      583.347      279.854        0.314        0.089       66.920       14.145        0.045      332.470        1.153      873.891
11/24/2014  23:56:00      -29.185       -8.602       -1.570       26.114       20.181       16.471      681.961      407.271      271.286        0.114        0.068       30.427       12.699        0.174      332.678        1.497      873.889
11/24/2014  23:57:00      -51.718       -9.234       -9.195       31.045       14.737       15.121      963.809      217.192      228.658        0.213        0.070       52.536       14.019        0.071      332.697        1.528      873.882
11/24/2014  23:58:00      -71.328      -26.473       -8.974       18.393       16.390       13.838      338.302      268.640      191.488        0.333        0.040       76.082       11.201        0.022      332.586        1.344      873.876
11/24/2014  23:59:00      -97.394        1.514      -13.423       23.002       16.608       16.364      529.106      275.833      267.782        0.537        0.054       97.406       14.976        0.024      332.515        1.227      873.879
